[[{"header":{"parameterUnit":"m.s-1","parameterCategory":1,"la1":31.0,"la2":29.5877,"lo1":-88.7671,"lo2":-86.6584,"dy":0.0162,"dx":0.0185,"nx":115,"ny":88,"refTime":"2024-08-05T06:00:00:Z","depth":0,"parameterNumber":2,"parameterNumberName":"U-component_of_WINDS"},"data":[0.0,0.0,0.0,0.0,0.0,0.0,0.0,0.0,0.0,0.0,0.0,0.0,0.0,0.0,0.0,0.0,0.0,0.0,0.0,0.0,0.0,0.0,0.0,0.0,0.0,0.0,0.0,0.0,0.0,0.0,0.0,0.0,0.0,0.0,0.0,0.0,0.0,0.0,0.0,0.0,0.0,0.0,0.0,0.0,0.0,0.0,0.0,0.0,0.0,0.0,0.0,0.0,0.0,0.0,0.0,0.0,0.0,0.0,0.0,0.0,0.0,0.0,0.0,0.0,0.0,0.0,0.0,0.0,0.0,0.0,0.0,0.0,0.0,0.0,0.0,0.0,0.0,0.0,0.0,0.0,0.0,0.0,0.0,0.0,0.0,0.0,0.0,0.0,0.0,0.0,0.0,0.0,0.0,0.0,0.0,0.0,0.0,0.0,0.0,0.0,0.0,0.0,0.0,0.0,0.0,0.0,0.0,0.0,0.0,0.0,0.0,0.0,0.0,0.0,0.0,0.0,0.0,0.0,0.0,0.0,0.0,0.0,0.0,0.0,0.0,0.0,0.0,0.0,0.0,0.0,0.0,0.0,0.0,0.0,0.0,0.0,0.0,0.0,0.0,0.0,0.0,0.0,0.0,0.0,0.0,0.0,0.0,0.0,0.0,0.0,0.0,0.0,0.0,0.0,0.0,0.0,0.0,0.0,0.0,0.0,0.0,0.0,0.0,0.0,0.0,0.0,0.0,0.0,0.0,0.0,0.0,0.0,0.0,0.0,0.0,0.0,0.0,0.0,0.0,0.0,0.0,0.0,0.0,0.0,0.0,0.0,0.0,0.0,0.0,0.0,0.0,0.0,0.0,0.0,0.0,0.0,0.0,0.0,0.0,0.0,0.0,0.0,0.0,0.0,0.0,0.0,0.0,0.0,0.0,0.0,0.0,0.0,0.0,0.0,0.0,0.0,0.0,0.0,0.0,0.0,0.0,0.0,0.0,0.0,0.0,0.0,0.0,0.0,0.0,0.0,0.0,0.0,0.0,0.0,0.0,0.0,0.0,0.0,0.0,0.0,0.0,0.0,0.0,0.0,0.0,0.0,0.0,0.0,0.0,0.0,0.0,0.0,0.0,0.0,0.0,0.0,0.0,0.0,0.0,0.0,0.0,0.0,0.0,0.0,0.0,0.0,0.0,0.0,0.0,0.0,0.0,0.0,0.0,0.0,0.0,0.0,0.0,0.0,0.0,0.0,0.0,0.0,0.0,0.0,0.0,0.0,0.0,0.0,0.0,0.0,0.0,0.0,0.0,0.0,0.0,0.0,0.0,0.0,0.0,0.0,0.0,0.0,0.0,0.0,0.0,0.0,0.0,0.0,0.0,0.0,0.0,0.0,0.0,0.0,0.0,0.0,0.0,0.0,0.0,0.0,0.0,0.0,0.0,0.0,0.0,0.0,0.0,0.0,0.0,0.0,0.0,0.0,0.0,0.0,0.0,0.0,0.0,0.0,0.0,0.0,0.0,0.0,0.0,0.0,0.0,0.0,0.0,0.0,0.0,0.0,0.0,0.0,0.0,0.0,0.0,0.0,0.0,0.0,0.0,0.0,0.0,0.0,0.0,0.0,0.0,0.0,0.0,0.0,0.0,0.0,0.0,0.0,0.0,0.0,0.0,0.0,0.0,0.0,0.0,0.0,0.0,0.0,0.0,0.0,0.0,0.0,0.0,0.0,0.0,0.0,0.0,0.0,0.0,0.0,0.0,0.0,0.0,0.0,0.0,0.0,0.0,0.0,0.0,0.0,0.0,0.0,0.0,0.0,0.0,0.0,0.0,0.0,0.0,0.0,0.0,0.0,0.0,0.0,0.0,0.0,0.0,0.0,0.0,0.0,0.0,0.0,0.0,0.0,0.0,0.0,0.0,0.0,0.0,0.0,0.0,0.0,0.0,0.0,0.0,0.0,0.0,0.0,0.0,0.0,0.0,0.0,0.0,0.0,0.0,0.0,0.0,0.0,0.0,0.0,0.0,0.0,0.0,0.0,0.0,0.0,0.0,0.0,0.0,0.0,0.0,0.0,0.0,0.0,0.0,0.0,0.0,0.0,0.0,0.0,0.0,0.0,0.0,0.0,0.0,0.0,0.0,0.0,0.0,0.0,0.0,0.0,0.0,0.0,0.0,0.0,0.0,0.0,0.0,0.0,0.0,0.0,0.0,0.0,0.0,0.0,0.0,0.0,0.0,0.0,0.0,0.0,0.0,0.0,0.0,0.0,0.0,0.0,0.0,0.0,0.0,0.0,0.0,0.0,0.0,0.0,0.0,0.0,0.0,0.0,0.0,0.0,0.0,0.0,0.0,0.0,0.0,0.0,0.0,0.0,0.0,0.0,0.0,0.0,0.0,0.0,0.0,0.0,0.0,0.0,0.0,0.0,0.0,0.0,0.0,0.0,0.0,0.0,0.0,0.0,0.0,0.0,0.0,0.0,0.0,0.0,0.0,0.0,0.0,0.0,0.0,0.0,0.0,0.0,0.0,0.0,0.0,0.0,0.0,0.0,0.0,0.0,0.0,0.0,0.0,0.0,0.0,0.0,0.0,0.0,0.0,0.0,0.0,0.0,0.0,0.0,0.0,0.0,0.0,0.0,0.0,0.0,0.0,0.0,0.0,0.0,0.0,0.0,0.0,0.0,0.0,0.0,0.0,0.0,0.0,0.0,0.0,0.0,0.0,0.0,0.0,0.0,0.0,0.0,0.0,0.0,0.0,0.0,0.0,0.0,0.0,0.0,0.0,0.0,0.0,0.0,0.0,0.0,0.0,0.0,0.0,0.0,0.0,0.0,0.0,0.0,0.0,0.0,0.0,0.0,0.0,0.0,0.0,0.0,0.0,0.0,0.0,0.0,0.0,0.0,0.0,0.0,0.0,0.0,0.0,0.0,0.0,0.0,0.0,0.0,0.0,0.0,0.0,0.0,0.0,0.0,0.0,0.0,0.0,0.0,0.0,0.0,0.0,0.0,0.0,0.0,0.0,0.0,0.0,0.0,0.0,0.0,0.0,0.0,0.0,0.0,0.0,0.0,0.0,0.0,0.0,0.0,0.0,0.0,0.0,0.0,0.0,0.0,0.0,0.0,0.0,0.0,0.0,0.0,0.0,0.0,0.0,0.0,0.0,0.0,0.0,0.0,0.0,0.0,0.0,0.0,0.0,0.0,0.0,0.0,0.0,0.0,0.0,0.0,0.0,0.0,0.0,0.0,0.0,0.0,0.0,0.0,0.0,0.0,0.0,0.0,0.0,0.0,0.0,0.0,0.0,0.0,0.0,0.0,0.0,0.0,0.0,0.0,0.0,0.0,0.0,0.0,0.0,0.0,0.0,0.0,0.0,0.0,0.0,0.0,0.0,0.0,0.0,0.0,0.0,0.0,0.0,0.0,0.0,0.0,0.0,0.0,0.0,0.0,0.0,0.0,0.0,0.0,0.0,0.0,0.0,0.0,0.0,0.0,0.0,0.0,0.0,0.0,0.0,0.0,0.0,0.0,0.0,0.0,0.0,0.0,0.0,0.0,0.0,0.0,0.0,0.0,0.0,0.0,0.0,0.0,0.0,0.0,0.0,0.0,0.0,0.0,0.0,0.0,0.0,0.0,0.0,0.0,0.0,0.0,0.0,0.0,0.0,0.0,0.0,0.0,0.0,0.0,0.0,0.0,0.0,0.0,0.0,0.0,0.0,0.0,0.0,0.0,0.0,0.0,0.0,0.0,0.0,0.0,0.0,0.0,0.0,0.0,0.0,0.0,0.0,0.0,0.0,0.0,0.0,0.0,0.0,0.0,0.0,0.0,0.0,0.0,0.0,0.0,0.0,0.0,0.0,0.0,0.0,0.0,0.0,0.0,0.0,0.0,0.0,0.0,0.0,0.0,0.0,0.0,0.0,0.0,0.0,0.0,0.0,0.0,0.0,0.0,0.0,0.0,0.0,0.0,0.0,0.0,0.0,0.0,0.0,0.0,0.0,0.0,0.0,0.0,0.0,0.0,0.0,0.0,0.0,0.0,0.0,0.0,0.0,0.0,0.0,0.0,0.0,0.0,0.0,0.0,0.0,0.0,0.0,0.0,0.0,0.0,0.0,0.0,0.0,0.0,0.0,0.0,0.0,0.0,0.0,0.0,0.0,0.0,0.0,0.0,0.0,0.0,0.0,0.0,0.0,0.0,0.0,0.0,0.0,0.0,0.0,0.0,0.0,0.0,0.0,0.0,0.0,0.0,0.0,0.0,0.0,0.0,0.0,0.0,0.8239,0.0,0.0,0.0,0.0,0.0,0.0,0.0,0.0,0.0,0.0,0.0,0.0,0.0,0.0,0.0,0.0,0.0,0.0,0.0,0.0,0.0,0.0,0.0,0.0,0.0,0.0,0.0,0.0,0.0,0.0,0.0,0.0,0.0,0.0,0.0,0.0,0.0,0.0,0.0,0.0,0.0,0.0,0.0,0.0,0.0,0.0,0.0,0.0,0.0,0.0,0.0,0.0,0.0,0.0,0.0,0.0,0.0,0.0,0.0,0.0,0.0,0.0,0.0,0.0,0.0,0.0,0.0,0.0,0.0,0.0,0.0,0.0,0.0,0.0,0.0,0.0,0.0,0.0,0.0,0.0,0.0,0.0,0.0,0.0,0.0,0.0,0.0,0.0,0.0,0.0,0.0,0.0,0.0,0.0,0.0,0.0,0.0,0.0,0.0,0.0,0.0,0.0,0.0,0.0,0.0,0.0,0.0,0.0,0.0,0.0,0.8502,0.8874,0.8743,0.8475,0.8175,0.0,0.0,0.0,0.0,0.0,0.0,0.0,0.0,0.0,0.0,0.0,0.0,0.0,0.0,0.0,0.0,0.0,0.0,0.0,0.0,0.0,0.0,0.0,0.0,0.0,0.0,0.0,0.0,0.0,0.0,0.0,0.0,0.0,0.0,0.0,0.0,0.0,0.0,0.0,0.0,0.0,0.0,0.0,0.0,0.0,0.0,0.0,0.0,0.0,0.0,0.0,0.0,0.0,0.0,0.0,0.0,0.0,0.0,0.0,0.0,0.0,0.0,0.0,0.0,0.0,0.0,0.0,0.0,0.0,0.0,0.0,0.0,0.0,0.0,0.0,0.0,0.0,0.0,0.0,0.0,0.0,0.0,0.0,0.0,0.0,0.0,0.0,0.0,0.0,0.0,0.0,0.0,0.0,0.0,0.0,0.0,0.0,0.0,0.0,0.0,0.0,0.0,0.0,0.0,0.0,0.0,0.0,0.0,0.0,0.0,0.0,0.0,0.8557,0.842,0.8488,0.0,0.0,0.0,0.0,0.0,0.0,0.0,0.0,0.0,0.0,0.0,0.0,0.0,0.0,0.0,0.0,0.0,0.0,0.0,0.0,0.0,0.0,0.0,0.0,0.0,0.0,0.0,0.0,0.0,0.0,0.0,0.0,0.0,0.0,0.0,0.0,0.0,0.0,0.0,0.0,0.0,0.0,0.0,0.0,0.0,0.0,0.0,0.0,0.0,0.0,0.0,0.0,0.0,0.0,0.0,0.0,0.0,0.0,0.0,0.0,0.0,0.0,0.0,0.0,0.0,0.0,0.0,0.0,0.0,0.0,0.0,0.0,0.0,0.0,0.0,0.0,0.0,0.0,0.0,0.0,0.0,0.0,0.0,0.0,0.0,0.0,0.0,0.0,0.0,0.0,0.0,0.0,0.0,0.0,0.0,0.0,0.0,0.0,0.0,0.0,0.0,0.0,0.0,0.0,0.0,0.0,0.0,0.0,0.0,0.0,0.7476,0.8852,0.9123,0.0,0.9682,0.0,0.0,0.0,0.0,0.0,0.0,0.0,0.0,0.0,0.0,0.0,0.0,0.0,0.0,0.0,0.0,0.0,0.0,0.0,0.0,0.0,0.0,0.0,0.0,0.0,0.0,0.0,0.0,0.0,0.0,0.0,0.0,0.0,0.0,0.0,0.0,0.0,0.0,0.0,0.0,0.0,0.0,0.0,0.0,0.0,0.0,0.0,0.0,0.0,0.0,0.0,0.0,0.0,0.0,0.0,0.0,0.0,0.0,0.0,0.0,0.0,0.0,0.0,0.0,0.0,0.0,0.0,0.0,0.0,0.0,0.0,0.0,0.0,0.0,0.0,0.0,0.0,0.0,0.0,0.0,0.0,0.0,0.0,0.0,0.0,0.0,0.0,0.0,0.0,0.0,0.0,0.0,0.0,0.0,0.0,0.0,0.0,0.0,0.0,0.0,0.0,0.0,0.0,0.0,0.0,0.0,0.0,0.0,0.0,0.0,0.0,0.8857,0.8675,0.8735,0.0,0.0,0.0,0.0,0.0,0.0,0.0,0.0,0.0,0.0,0.0,0.0,0.0,0.0,0.0,0.0,0.0,0.0,0.0,0.0,0.0,0.0,0.0,0.0,0.0,0.0,0.0,0.0,0.0,0.0,0.0,0.0,0.0,0.0,0.0,0.0,0.0,0.0,0.0,0.0,0.0,0.0,0.0,0.0,0.0,0.0,0.0,0.0,0.0,0.0,0.0,0.0,0.0,0.0,0.0,0.0,0.0,0.0,0.0,0.0,0.0,0.0,0.0,0.0,0.0,0.0,0.0,0.0,0.0,0.0,0.0,0.0,0.0,0.0,0.0,0.0,0.0,0.0,0.0,0.0,0.0,0.0,0.0,0.0,0.0,0.0,0.0,0.0,0.0,0.0,0.0,0.0,0.0,0.0,0.0,0.0,0.0,0.0,0.0,0.0,0.0,0.0,0.0,0.0,0.0,0.0,0.0,0.0,0.0,0.0,0.7442,0.0,0.8936,0.8625,0.837,0.8253,0.0,0.0,0.0,0.0,0.0,0.0,0.0,0.0,0.0,0.0,0.0,0.0,0.0,0.0,0.0,0.0,0.0,0.0,0.0,0.0,0.0,0.0,0.0,0.0,0.0,0.0,0.0,0.0,0.0,0.0,0.0,0.0,0.0,0.0,0.0,0.0,0.0,0.0,0.0,0.0,0.0,0.0,0.0,0.0,0.0,0.0,0.0,0.0,0.0,0.0,0.0,0.0,0.0,0.0,0.0,0.0,0.0,0.0,0.0,0.0,0.0,0.0,0.0,0.0,0.0,0.0,0.0,0.0,0.0,0.0,0.0,0.0,0.0,0.0,0.0,0.0,0.0,0.0,0.0,0.0,0.0,0.0,0.0,0.0,0.0,0.0,0.0,0.0,0.0,0.0,0.0,0.0,0.0,0.0,0.0,0.0,0.0,0.0,0.0,0.0,0.0,0.0,0.0,0.0,0.0,0.0,0.0,0.0,0.0,0.7442,0.7579,0.9266,0.9376,0.8785,0.0,0.0,0.0,0.0,0.0,0.0,0.0,0.0,0.0,0.0,0.0,0.0,0.0,0.0,0.0,0.0,0.0,0.0,0.0,0.0,0.0,0.0,0.0,0.0,0.0,0.0,0.0,0.0,0.0,0.0,0.0,0.0,0.0,0.0,0.0,0.0,0.0,0.0,0.0,0.0,0.0,0.0,0.0,0.0,0.0,0.0,0.0,0.0,0.0,0.0,0.0,0.0,0.0,0.0,0.0,0.0,0.0,0.0,0.0,0.0,0.0,0.0,0.0,0.0,0.0,0.0,0.0,0.0,0.0,0.0,0.0,0.0,0.0,0.0,0.0,0.0,0.0,0.0,0.0,0.0,0.0,0.0,0.0,0.0,0.0,0.0,0.0,0.0,0.0,0.0,0.0,0.0,0.0,0.0,0.0,0.0,0.0,0.0,0.0,0.0,0.0,0.0,0.0,0.0,0.0,0.0,0.0,0.0,0.0,0.6029,0.6527,0.8075,0.0,0.8948,0.8207,0.0,0.0,0.0,0.0,0.0,0.0,0.0,0.0,0.0,0.0,0.0,0.0,0.0,0.0,0.0,0.0,0.0,0.0,0.0,0.0,0.0,0.0,0.0,0.0,0.0,0.0,0.0,0.0,0.0,0.0,0.0,0.0,0.0,0.0,0.0,0.0,0.0,0.0,0.0,0.0,0.0,0.0,0.0,0.0,0.0,0.0,0.0,0.0,0.0,0.0,0.0,0.0,0.0,0.0,0.0,0.0,0.0,0.0,0.0,0.0,0.0,0.0,0.0,0.0,0.0,0.0,0.0,0.0,0.0,0.0,0.0,0.0,0.0,0.0,0.0,0.0,0.0,0.0,0.0,0.0,0.0,0.0,0.0,0.0,0.0,0.0,0.0,0.0,0.0,0.0,0.0,0.0,0.0,0.0,0.0,0.0,0.0,0.0,0.0,0.0,0.0,0.0,0.0,0.0,0.0,0.0,0.0,0.0,0.0,0.5928,0.0,0.9274,0.0,0.9054,0.8109,0.0,0.0,0.0,0.0,0.0,0.0,0.0,0.0,0.0,0.0,0.0,0.0,0.0,0.0,0.0,0.0,0.0,0.0,0.0,0.0,0.0,0.0,0.0,0.0,0.0,0.0,0.0,0.0,0.0,0.0,0.0,0.0,0.0,0.0,0.0,0.0,0.0,0.0,0.0,0.0,0.0,0.0,0.0,0.0,0.0,0.0,0.0,0.0,0.0,0.0,0.0,0.0,0.0,0.0,0.0,0.0,0.0,0.0,0.0,0.0,0.0,0.0,0.0,0.0,0.0,0.0,0.0,0.0,0.0,0.0,0.0,0.0,0.0,0.0,0.0,0.0,0.0,0.0,0.0,0.0,0.0,0.0,0.0,0.0,0.0,0.0,0.0,0.0,0.0,0.0,0.0,0.0,0.0,0.0,0.0,0.0,0.0,0.0,0.0,0.0,0.0,0.0,0.0,0.0,0.0,0.0,0.0,0.0,0.5961,0.8744,1.04,1.0931,1.0453,0.9831,0.8514,0.0,0.0,0.0,0.0,0.0,0.0,0.0,0.0,0.0,0.0,0.0,0.0,0.0,0.0,0.0,0.0,0.0,0.0,0.0,0.0,0.0,0.0,0.0,0.0,0.0,0.0,0.0,0.0,0.0,0.0,0.0,0.0,0.0,0.0,0.0,0.0,0.0,0.0,0.0,0.0,0.0,0.0,0.0,0.0,0.0,0.0,0.0,0.0,0.0,0.0,0.0,0.0,0.0,0.0,0.0,0.0,0.0,0.0,0.0,0.0,0.0,0.0,0.0,0.0,0.0,0.0,0.0,0.0,0.0,0.0,0.0,0.0,0.0,0.0,0.0,0.0,0.0,0.0,0.0,0.0,0.0,0.0,0.0,0.0,0.0,0.0,0.0,0.0,0.0,0.0,0.0,0.0,0.0,0.0,0.0,0.0,0.0,0.0,0.0,0.0,0.0,0.0,0.0,0.0,0.0,0.0,0.0,0.0,0.0,0.8488,0.9573,1.0639,1.1526,0.9876,0.889,0.0,0.0,0.0,0.0,0.0,0.0,0.0,0.0,0.0,0.0,0.0,0.0,0.0,0.0,0.0,0.0,0.0,0.0,0.0,0.0,0.0,0.0,0.0,0.0,0.0,0.0,0.0,0.0,0.0,0.0,0.0,0.0,0.0,0.0,0.0,0.0,0.0,0.0,0.0,0.0,0.0,0.0,0.0,0.0,0.0,0.0,0.0,0.0,0.0,0.0,0.0,0.0,0.0,0.0,0.0,0.0,0.0,0.0,0.0,0.0,0.0,0.0,0.0,0.0,0.0,0.0,0.0,0.0,0.0,0.0,0.0,0.0,0.0,0.0,0.0,0.0,0.0,0.0,0.0,0.0,0.0,0.0,0.0,0.0,0.0,0.0,0.0,0.0,0.0,0.0,0.0,0.0,0.0,0.0,0.0,0.0,0.0,0.0,0.0,0.0,0.0,0.0,0.0,0.0,0.0,0.0,0.0,0.0,0.0,1.0213,1.1269,1.2196,1.3002,1.1091,1.0041,0.9982,0.0,0.0,0.0,0.0,0.0,0.0,0.0,0.0,0.0,0.0,0.0,0.0,0.0,0.0,0.0,0.0,0.0,0.0,0.0,0.0,0.0,0.0,0.0,0.0,0.0,0.0,0.0,0.0,0.0,0.0,0.0,0.0,0.0,0.0,0.0,0.0,0.0,0.0,0.0,0.0,0.0,0.0,0.0,0.0,0.0,0.0,0.0,0.0,0.0,0.0,0.0,0.0,0.0,0.0,0.0,0.0,0.0,0.0,0.0,0.0,0.0,0.0,0.0,0.0,0.0,0.0,0.0,0.0,0.0,0.0,0.0,0.0,0.0,0.0,0.0,0.0,0.0,0.0,0.0,0.0,0.0,0.0,0.0,0.0,0.0,0.0,0.0,0.0,0.0,0.0,0.0,0.0,0.0,0.0,0.0,0.0,0.0,0.0,0.0,0.0,0.0,0.0,0.0,0.0,0.0,0.0,0.0,0.0,1.3364,1.4931,1.5305,1.4415,1.3132,1.1767,0.0,0.0,0.0,0.0,0.0,0.0,0.0,0.0,0.0,0.0,0.0,0.0,0.0,0.0,0.0,0.0,0.0,0.0,0.0,0.0,0.0,0.0,0.0,0.0,0.0,0.0,0.0,0.0,0.0,0.0,0.0,0.0,0.0,0.0,0.0,0.0,0.0,0.0,0.0,0.0,0.0,0.0,0.0,0.0,0.0,0.0,0.0,0.0,0.0,0.0,0.0,0.0,0.0,0.0,0.0,0.0,0.0,0.0,0.0,0.0,0.0,0.0,0.0,0.0,0.0,0.0,0.0,0.0,0.0,0.0,0.0,0.0,0.0,0.0,0.0,0.0,0.0,0.0,0.0,0.0,0.0,0.0,0.0,0.0,0.0,0.0,0.0,0.0,0.0,0.0,0.0,0.0,0.0,0.0,0.0,0.0,0.0,0.0,0.0,0.0,0.0,0.0,0.0,0.0,0.0,0.0,0.0,0.0,0.0,1.4251,1.6541,1.6795,1.4823,1.3301,1.2038,0.0,0.0,0.0,0.0,0.0,0.0,0.0,0.0,0.0,0.0,0.0,0.0,0.0,0.0,0.0,0.0,0.0,0.0,0.0,0.0,0.0,0.0,0.0,0.0,0.0,0.0,0.0,0.0,0.0,0.0,0.0,0.0,0.0,0.0,0.0,0.0,0.0,0.0,0.0,0.0,0.0,0.0,0.0,0.0,0.0,0.0,0.0,0.0,0.0,0.0,0.0,0.0,0.0,0.0,0.0,0.0,0.0,0.0,0.0,0.0,0.0,0.0,0.0,0.0,0.0,0.0,0.0,0.0,0.0,0.0,0.0,0.0,0.0,0.0,0.0,0.0,0.0,0.0,0.0,0.0,0.0,0.0,0.0,0.0,0.0,0.0,0.0,0.0,0.0,0.0,0.0,0.0,0.0,0.0,0.0,0.0,0.0,0.0,0.0,0.0,0.0,0.0,0.0,0.0,0.0,0.0,0.0,0.0,1.3748,1.5662,1.783,1.8166,1.6545,1.4977,1.3615,0.0,0.0,0.0,0.0,0.0,0.0,0.0,0.0,0.0,0.0,0.0,0.0,0.0,0.0,0.0,0.0,0.0,0.0,0.0,0.0,0.0,0.0,0.0,0.0,0.0,0.0,0.0,0.0,0.0,0.0,0.0,0.0,0.0,0.0,0.0,0.0,0.0,0.0,0.0,0.0,0.0,0.0,0.0,0.0,0.0,0.0,0.0,0.0,0.0,0.0,0.0,0.0,0.0,0.0,0.0,0.0,0.0,0.0,0.0,0.0,0.0,0.0,0.0,0.0,0.0,0.0,0.0,0.0,0.0,0.0,0.0,0.0,0.0,0.0,0.0,0.0,0.0,0.0,0.0,0.0,0.0,0.0,0.0,0.0,0.0,0.0,0.0,0.0,0.0,0.0,0.0,0.0,0.0,0.0,0.0,0.0,0.0,0.0,0.0,0.0,0.0,0.0,0.0,0.0,0.0,0.0,0.0,0.0,1.5189,1.7053,1.8728,1.9355,1.8821,1.727,1.5619,0.0,0.0,0.0,0.0,0.0,0.0,0.0,0.0,0.0,0.0,0.0,0.0,0.0,0.0,0.0,0.0,0.0,0.0,0.0,0.0,0.0,0.0,0.0,0.0,0.0,0.0,0.0,0.0,0.0,0.0,0.0,0.0,0.0,0.0,0.0,0.0,0.0,0.0,0.0,0.0,0.0,0.0,0.0,0.0,0.0,0.0,0.0,0.0,0.0,0.0,0.0,0.0,0.0,0.0,0.0,0.0,0.0,0.0,0.0,0.0,0.0,0.0,0.0,0.0,0.0,0.0,0.0,0.0,0.0,0.0,0.0,0.0,0.0,0.0,0.0,0.0,0.0,0.0,0.0,0.0,0.0,0.0,0.0,0.0,0.0,0.0,0.0,0.0,0.0,0.0,0.0,0.0,0.0,0.0,0.0,0.0,0.0,0.0,0.0,0.0,0.0,0.0,0.0,0.0,0.0,0.0,0.0,0.0,1.536,1.6345,1.8483,1.9668,1.9783,1.7597,1.56,0.0,0.0,0.0,0.0,0.0,0.0,0.0,0.0,0.0,0.0,0.0,0.0,0.0,0.0,0.0,0.0,0.0,0.0,0.0,0.0,0.0,0.0,0.0,0.0,0.0,0.0,0.0,0.0,0.0,0.0,0.0,0.0,0.0,0.0,0.0,0.0,0.0,0.0,0.0,0.0,0.0,0.0,0.0,0.0,0.0,0.0,0.0,0.0,1.555,0.0,0.0,0.0,0.0,0.0,0.0,0.0,0.0,0.0,0.0,0.0,0.0,0.0,0.0,0.0,0.0,0.0,0.0,0.0,0.0,0.0,0.0,0.0,0.0,0.0,0.0,0.0,0.0,0.0,0.0,0.0,0.0,0.0,0.0,0.0,0.0,0.0,0.0,0.0,0.0,0.0,0.0,0.0,0.0,0.0,0.0,0.0,0.0,0.0,0.0,0.0,0.0,0.0,0.0,0.0,0.0,0.0,0.0,0.0,1.5996,1.7753,1.9357,2.0363,2.0623,1.8691,1.6826,0.0,0.0,0.0,0.0,0.0,0.0,0.0,0.0,0.0,0.0,0.0,0.0,0.0,0.0,0.0,0.0,0.0,0.0,0.0,0.0,0.0,0.0,0.0,0.0,0.0,0.0,0.0,0.0,0.0,0.0,0.0,0.0,0.0,0.0,0.0,0.0,0.0,0.0,0.0,0.0,0.0,0.0,0.0,0.0,0.0,0.0,0.0,0.0,0.0,0.0,0.0,0.0,0.0,0.0,0.0,0.0,0.0,0.0,0.0,0.0,0.0,0.0,0.0,0.0,0.0,0.0,0.0,0.0,0.0,0.0,0.0,0.0,0.0,0.0,0.0,0.0,0.0,0.0,0.0,0.0,0.0,0.0,0.0,0.0,0.0,0.0,0.0,0.0,0.0,0.0,0.0,0.0,0.0,0.0,0.0,0.0,0.0,0.0,0.0,0.0,0.0,0.0,0.0,0.0,0.0,0.0,0.0,1.4125,1.6605,1.9395,2.0307,2.0847,2.1168,1.9639,1.804,1.6433,0.0,0.0,0.0,0.0,0.0,0.0,0.0,0.0,0.0,0.0,0.0,0.0,0.0,0.0,0.0,0.0,0.0,0.0,0.0,0.0,0.0,0.0,0.0,0.0,0.0,0.0,0.0,0.0,0.0,0.0,0.0,0.0,0.0,0.0,0.0,0.0,0.0,0.0,1.4217,1.6135,0.0,0.0,0.0,0.0,0.0,0.0,0.0,0.0,1.743,0.0,0.0,0.0,0.0,0.0,0.0,0.0,0.0,0.0,0.0,0.0,0.0,0.0,0.0,0.0,0.0,0.0,0.0,0.0,0.0,0.0,0.0,0.0,0.0,0.0,0.0,0.0,0.0,0.0,0.0,0.0,0.0,0.0,0.0,0.0,0.0,0.0,0.0,0.0,0.0,0.0,0.0,0.0,0.0,0.0,0.0,0.0,0.0,0.0,0.0,0.0,0.0,0.0,0.0,0.0,0.0,1.3569,1.4618,1.6276,1.8627,1.9426,1.9962,2.026,1.8741,1.7447,1.6418,0.0,0.0,0.0,0.0,0.0,0.0,0.0,0.0,0.0,0.0,0.0,0.0,0.0,0.0,0.0,0.0,0.0,0.0,0.0,0.0,0.0,0.0,0.0,0.0,0.0,0.0,0.0,0.0,0.0,0.0,0.0,0.0,0.0,0.0,0.0,0.0,0.0,0.0,0.0,1.9058,2.0536,0.0,0.0,0.0,0.0,0.0,0.0,0.0,0.0,1.8475,0.0,0.0,0.0,0.0,0.0,0.0,0.0,0.0,0.0,0.0,0.0,0.0,0.0,0.0,0.0,0.0,0.0,0.0,0.0,0.0,0.0,0.0,0.0,0.0,0.0,0.0,0.0,0.0,0.0,0.0,0.0,0.0,0.0,0.0,0.0,0.0,0.0,0.0,0.0,0.0,0.0,0.0,0.0,0.0,0.0,0.0,0.0,0.0,0.0,0.0,0.0,0.0,0.0,0.0,0.0,1.3839,1.5132,1.6805,1.8989,1.9432,1.9804,2.0041,1.8138,1.6693,0.0,0.0,0.0,0.0,0.0,0.0,0.0,0.0,0.0,0.0,0.0,0.0,0.0,0.0,0.0,0.0,0.0,0.0,0.0,0.0,0.0,0.0,0.0,0.0,0.0,0.0,0.0,0.0,0.0,0.0,0.0,0.0,0.0,0.0,0.0,0.0,0.0,0.0,0.0,0.0,2.0353,2.186,2.2715,0.0,0.0,0.0,0.0,0.0,0.0,2.0189,1.968,0.0,0.0,0.0,0.0,0.0,0.0,0.0,0.0,0.0,0.0,0.0,0.0,0.0,0.0,0.0,0.0,0.0,0.0,0.0,0.0,0.0,0.0,0.0,0.0,0.0,0.0,0.0,0.0,0.0,0.0,0.0,0.0,0.0,0.0,0.0,0.0,0.0,0.0,0.0,0.0,0.0,0.0,0.0,0.0,0.0,0.0,0.0,0.0,0.0,0.0,0.0,0.0,0.0,0.0,0.0,1.3902,1.536,1.7204,1.9473,1.9656,1.9816,2.0041,1.7917,1.6246,0.0,0.0,0.0,0.0,0.0,0.0,0.0,0.0,0.0,0.0,0.0,0.0,0.0,0.0,0.0,0.0,0.0,0.0,0.0,0.0,0.0,0.0,0.0,0.0,0.0,0.0,0.0,0.0,0.0,0.0,0.0,0.0,0.0,0.0,0.0,0.0,0.0,0.0,0.0,0.0,0.0,2.3135,2.4653,2.4096,0.0,0.0,0.0,0.0,2.252,2.1789,0.0,0.0,0.0,0.0,0.0,0.0,0.0,0.0,0.0,0.0,0.0,0.0,0.0,0.0,0.0,0.0,0.0,0.0,0.0,0.0,0.0,0.0,0.0,0.0,0.0,0.0,0.0,0.0,0.0,0.0,0.0,0.0,0.0,0.0,0.0,0.0,0.0,0.0,0.0,0.0,0.0,0.0,0.0,0.0,0.0,0.0,0.0,0.0,0.0,0.0,0.0,0.0,0.0,0.0,0.0,0.0,1.3867,1.4813,1.6646,1.9423,1.9612,1.9755,2.0088,1.8395,1.6766,0.0,0.0,0.0,0.0,0.0,0.0,0.0,0.0,0.0,0.0,0.0,0.0,0.0,0.0,0.0,0.0,0.0,0.0,0.0,0.0,0.0,0.0,0.0,0.0,0.0,0.0,0.0,0.0,0.0,0.0,0.0,0.0,0.0,0.0,0.0,0.0,0.0,0.0,0.0,0.0,0.0,2.5343,2.428,2.5198,2.5713,0.0,0.0,2.4373,2.593,2.4819,0.0,0.0,0.0,0.0,0.0,0.0,0.0,0.0,0.0,0.0,0.0,0.0,0.0,0.0,0.0,0.0,0.0,0.0,0.0,0.0,0.0,0.0,0.0,0.0,0.0,0.0,0.0,0.0,0.0,0.0,0.0,0.0,0.0,0.0,0.0,0.0,0.0,0.0,0.0,0.0,0.0,0.0,0.0,0.0,0.0,0.0,0.0,0.0,0.0,0.0,0.0,0.0,0.0,0.0,0.0,1.0388,1.3884,1.5243,1.71,1.9473,1.9593,1.9762,2.0088,1.8032,1.6368,0.0,0.0,0.0,0.0,0.0,0.0,0.0,0.0,0.0,0.0,0.0,0.0,0.0,0.0,0.0,0.0,0.0,0.0,0.0,0.0,0.0,0.0,0.0,0.0,0.0,0.0,0.0,0.0,0.0,0.0,0.0,0.0,0.0,0.0,0.0,0.0,0.0,0.0,0.0,0.0,0.0,0.0,2.6909,2.7227,0.0,0.0,0.0,2.7002,2.6878,0.0,0.0,0.0,0.0,0.0,0.0,0.0,0.0,0.0,0.0,0.0,0.0,0.0,0.0,0.0,0.0,0.0,0.0,0.0,0.0,0.0,0.0,0.0,0.0,0.0,0.0,0.0,0.0,0.0,0.0,0.0,0.0,0.0,0.0,0.0,0.0,0.0,0.0,0.0,0.0,0.0,0.0,0.0,0.0,0.0,0.0,0.0,0.0,0.0,0.0,0.0,0.0,0.0,0.0,0.0,0.0,0.0,1.3952,1.5657,1.7493,1.9457,1.9567,1.9731,2.0002,1.7863,0.0,0.0,0.0,0.0,0.0,0.0,0.0,0.0,0.0,0.0,0.0,0.0,0.0,0.0,0.0,0.0,0.0,0.0,0.0,0.0,0.0,0.0,0.0,0.0,0.0,0.0,0.0,0.7087,0.0,0.0,0.0,0.0,0.0,0.0,0.0,0.0,0.0,0.0,0.0,0.0,0.0,0.0,2.5894,2.8521,2.8594,2.8479,0.0,0.0,2.902,2.811,2.8542,2.8055,0.0,0.0,0.0,0.0,0.0,0.0,0.0,0.0,0.0,0.0,0.0,0.0,0.0,0.0,0.0,0.0,0.0,0.0,0.0,0.0,0.0,0.0,0.0,0.0,0.0,0.0,0.0,0.0,0.0,0.0,0.0,0.0,0.0,0.0,0.0,0.0,0.0,0.0,0.0,0.0,0.0,0.0,0.0,0.0,0.0,0.0,0.0,0.0,0.0,0.0,0.0,0.0,0.0,0.0,0.0,1.3934,1.5657,1.7418,1.9258,1.9499,1.9701,1.9877,1.8355,1.6791,0.0,0.0,0.0,0.0,0.0,0.0,0.0,0.0,0.0,0.0,0.0,0.0,0.0,0.0,0.0,0.0,0.0,0.0,0.0,0.0,0.0,0.0,0.0,0.0,0.0,0.0,0.0,0.0,0.0,0.0,0.0,0.0,0.0,0.0,0.0,0.0,0.0,0.0,0.0,0.0,0.0,2.6785,2.7199,2.8546,2.9777,0.0,0.0,2.9738,3.076,3.0543,2.9277,2.6378,0.0,0.0,0.0,0.0,0.0,0.0,0.0,0.0,0.0,0.0,0.0,0.0,0.0,0.0,0.0,0.0,0.0,0.0,0.0,0.0,0.0,0.0,0.0,0.0,0.0,0.0,0.0,0.0,0.0,0.0,0.0,0.0,0.0,0.0,0.0,0.0,0.0,0.0,0.0,0.0,0.0,0.0,0.0,0.0,0.0,0.0,0.0,0.0,0.0,0.0,0.0,0.0,0.0,1.0909,1.3969,1.5778,1.7545,1.9225,1.9485,1.9682,1.9904,1.844,1.7114,0.0,0.0,0.0,0.0,0.0,0.0,0.0,0.0,0.0,0.0,0.0,0.0,0.0,0.0,0.0,0.0,0.0,0.0,0.0,0.0,0.0,0.0,0.0,0.0,0.0,0.0,0.0,0.0,1.0246,1.1158,1.2814,0.0,0.0,0.0,0.0,0.0,0.0,0.0,0.0,0.0,0.0,2.8272,2.9635,3.0679,0.0,0.0,3.1958,3.1863,3.1333,3.19,3.1278,2.8108,2.6723,0.0,0.0,0.0,0.0,0.0,0.0,0.0,0.0,0.0,0.0,0.0,0.0,0.0,0.0,0.0,0.0,0.0,0.0,0.0,0.0,0.0,0.0,0.0,0.0,0.0,0.0,0.0,0.0,0.0,0.0,0.0,0.0,0.0,0.0,0.0,0.0,0.0,0.0,0.0,0.0,0.0,0.0,0.0,0.0,0.0,0.0,0.0,0.0,0.0,0.0,0.0,0.0,1.1013,1.4028,1.5863,1.7574,1.9206,1.9476,1.9676,1.9778,1.8422,1.7263,0.0,0.0,0.0,0.0,0.0,0.0,0.0,0.0,0.0,0.0,0.0,0.0,0.0,0.0,0.0,0.0,0.0,0.0,0.0,0.0,0.0,0.0,0.0,0.0,0.0,0.0,0.0,0.0,1.1599,1.2279,1.3381,0.0,0.0,0.0,0.0,0.0,0.0,0.0,0.0,0.0,0.0,2.9215,3.1188,3.1648,3.1998,3.2759,3.2721,3.2447,3.1844,3.224,3.1785,2.9355,0.0,0.0,0.0,0.0,0.0,0.0,0.0,0.0,0.0,0.0,0.0,0.0,0.0,0.0,0.0,0.0,0.0,0.0,0.0,0.0,0.0,0.0,0.0,0.0,0.0,0.0,0.0,0.0,0.0,0.0,0.4533,0.0,0.0,0.0,0.0,0.0,0.0,0.0,0.0,0.0,0.0,0.0,0.0,0.0,0.0,0.0,0.0,0.0,0.0,0.0,0.0,0.0,0.0,1.1129,1.4162,1.5923,1.7551,1.9066,1.9438,1.9593,1.9569,1.8316,1.7235,1.6395,0.0,0.0,0.0,0.0,0.0,0.0,0.0,0.0,0.0,0.0,0.0,0.0,0.0,0.0,0.0,0.0,0.0,0.0,0.0,0.0,0.0,0.0,0.0,0.0,0.0,0.0,1.2049,1.314,1.3703,0.0,0.0,0.0,0.0,0.0,0.0,0.0,0.0,0.0,0.0,2.7554,2.938,3.1172,3.0791,3.1283,3.3541,3.1947,3.0967,3.2598,3.1475,3.024,0.0,0.0,0.0,0.0,0.0,0.0,0.0,0.0,0.0,0.0,0.0,0.0,0.0,0.0,0.0,0.0,0.0,0.0,0.0,0.0,0.0,0.0,0.0,0.0,0.0,0.0,0.0,0.7044,0.6541,0.0,0.0,0.0,0.0,0.0,0.0,0.0,0.0,0.0,0.0,0.0,1.1675,1.2207,0.0,0.0,0.0,0.0,0.0,0.0,0.0,0.0,0.0,0.0,0.0,0.0,1.1654,1.4126,1.5923,1.7536,1.9049,1.9419,1.9593,1.9593,1.8867,1.7554,1.5657,0.0,0.0,0.0,0.0,0.0,0.0,0.0,0.0,0.0,0.0,0.0,0.0,0.0,0.0,0.0,0.0,0.0,0.0,0.0,0.0,0.0,0.0,0.0,0.0,0.0,1.0288,0.0,0.0,0.0,0.0,0.0,0.0,0.0,0.0,0.0,0.0,0.0,2.4652,2.7248,2.919,3.1035,3.2792,3.3296,3.3977,0.0,0.0,0.0,0.0,0.0,0.0,0.0,0.0,0.0,0.0,0.0,0.0,0.0,0.0,3.3862,2.9044,2.7718,2.7513,2.8013,0.0,0.0,0.0,0.0,0.0,0.0,0.0,0.0,0.0,0.0,0.0,0.0,0.0,0.0,0.8639,0.0,0.7719,0.0,0.0,0.0,0.0,0.0,0.0,0.0,0.0,1.239,1.3456,1.3868,1.4386,1.4733,0.0,1.3882,1.2414,0.0,0.0,0.0,0.0,0.0,0.0,0.0,0.0,1.2626,1.4611,1.6341,1.7809,1.9048,1.9419,1.9593,1.9593,1.9152,1.7715,1.5255,1.4134,1.2935,0.0,0.0,0.0,0.0,0.0,0.0,0.0,0.0,0.0,0.0,0.0,0.0,0.0,0.0,0.0,0.0,0.0,0.0,0.0,0.0,0.0,0.0,0.0,1.1647,0.0,0.0,0.0,0.0,0.0,0.0,0.0,0.0,0.0,2.3951,2.5181,2.701,2.9859,3.1075,3.2374,3.4067,0.0,0.0,0.0,0.0,0.0,0.0,0.0,3.4576,3.5302,3.6641,3.7124,3.5665,3.6697,3.7645,3.7292,0.0,0.0,3.2734,3.1562,3.1743,3.2889,3.337,3.3813,3.4587,3.5623,3.6559,0.0,0.0,0.0,0.0,0.0,0.0,0.0,0.0,0.9812,1.0185,0.0,0.9945,0.0,0.0,0.0,0.0,0.0,1.0973,0.0,0.0,1.4268,1.5359,1.5408,1.5479,1.561,1.5887,1.6808,1.6554,1.516,1.1708,0.0,0.0,0.0,0.0,0.0,0.0,1.3986,1.5528,1.707,1.8286,1.9067,1.9438,1.9593,1.9619,1.9171,1.7756,1.5381,1.5261,1.4116,1.1735,1.0835,0.0,0.0,0.0,0.0,0.0,0.0,0.0,0.0,0.0,0.0,0.0,0.0,0.0,0.0,0.0,0.0,0.0,0.0,0.0,0.0,1.4082,0.0,0.0,0.0,0.0,0.0,0.0,0.0,0.0,0.0,0.0,2.714,2.8148,3.001,3.3147,0.0,0.0,0.0,0.0,3.4613,3.6252,3.6549,3.6671,3.6728,3.7034,3.7107,3.6619,0.0,0.0,3.8007,3.9091,3.9835,3.9113,4.027,4.0806,3.8834,3.776,3.7869,3.9447,3.8428,3.7721,3.8346,3.8805,3.959,1.4882,0.0,0.0,0.0,0.0,1.3142,1.329,1.3453,1.3446,1.317,1.2641,1.1901,0.0,0.0,0.0,0.0,0.0,0.0,1.3759,1.468,1.6102,1.6976,1.7453,1.8274,1.8701,1.8778,1.9,1.8906,1.8393,1.6502,1.4065,1.1292,0.0,0.0,0.0,0.0,1.481,1.6327,1.7379,1.8286,1.9104,1.9438,1.9726,1.9941,1.9268,1.8557,1.7849,1.674,1.5545,1.4265,1.2884,0.0,0.0,0.0,0.0,0.0,0.0,0.0,0.0,0.0,0.0,0.0,0.0,0.0,0.0,0.0,0.0,0.0,0.0,0.0,1.2537,1.3517,1.4684,0.0,0.0,0.0,0.0,0.0,0.0,0.0,0.0,0.0,3.2185,3.1824,3.2104,0.0,0.0,3.4805,3.5816,3.629,3.7164,3.8898,0.0,0.0,0.0,3.971,3.9294,3.9144,3.9815,4.0318,4.0407,4.0824,4.1058,4.075,4.1114,4.1373,4.1188,4.0578,4.0317,4.0675,4.0349,4.0276,4.1024,4.1711,4.2501,1.7662,1.6529,1.5666,1.5512,1.5798,1.5758,1.5846,1.5977,1.587,1.5704,1.545,1.494,1.4419,1.3891,1.302,0.0,0.0,0.0,1.5863,1.6614,1.7689,1.8475,1.8998,1.9715,2.015,2.0349,2.0379,2.041,2.0451,1.9705,1.7946,1.5284,0.0,0.0,1.3908,1.5143,1.6232,1.7164,1.7978,1.8614,1.9086,1.9419,1.9755,2.006,1.9629,1.9073,1.8436,1.7517,1.6474,1.5342,1.407,1.3261,0.0,0.0,0.0,0.0,0.0,0.0,0.0,0.0,0.0,0.0,0.0,0.7219,0.5905,0.0,0.0,0.0,1.1344,1.3575,1.4861,1.6093,0.0,0.0,0.0,0.0,0.0,0.0,0.0,2.8139,3.04,3.2767,3.5211,3.5211,3.5306,3.6251,3.6217,3.652,3.768,0.0,3.9147,4.0615,4.1323,4.1705,4.166,4.1757,4.1684,4.1246,4.1255,4.1538,4.2071,4.2136,4.2149,4.2366,4.2483,4.2668,4.3317,4.3106,4.2793,4.2772,4.265,4.28,4.3569,4.4138,4.4672,1.9329,1.93,1.8626,1.8194,1.7952,1.7935,1.7836,1.764,1.7396,1.7765,1.8508,1.8353,1.8247,1.8082,1.7076,0.0,1.6348,1.7511,1.7978,1.7948,1.9138,1.985,2.0153,2.0255,2.0563,2.107,2.1221,2.1442,2.1675,2.1603,2.1224,2.0445,1.8216,1.7037,1.7019,1.7726,1.8125,1.82,1.8941,1.9267,1.9244,1.9485,1.9774,2.0088,2.0031,1.9303,1.7886,1.7727,1.6996,1.5482,1.4646,1.457,1.5234,0.0,0.0,0.0,0.0,0.0,0.0,0.0,0.0,0.0,0.0,0.0,0.0,0.0,0.0,0.0,1.4326,0.0,1.8847,2.0527,0.0,0.0,0.0,2.4138,2.6726,2.7532,2.8578,3.0266,0.0,0.0,3.6692,0.0,3.8953,3.901,3.8384,3.8461,3.9986,4.0291,4.075,4.1704,4.3157,4.354,4.2234,4.3092,4.3709,4.2852,4.2591,4.2668,4.316,4.3165,4.3304,4.3794,4.4085,4.4278,4.5045,4.5101,4.5407,4.5408,4.507,4.4984,4.5608,4.5847,4.614,2.0353,2.0495,2.0521,2.0025,1.9192,1.9192,1.914,1.9105,1.9045,1.9022,1.9034,1.9007,1.8836,1.8598,1.7927,1.785,1.8174,1.8435,1.8917,1.9618,2.0131,2.0737,2.1451,2.1759,2.215,2.2517,2.291,2.3142,2.3208,2.2689,2.2271,2.2016,2.0934,2.0047,1.9467,1.963,2.0029,2.0644,2.0825,2.0749,2.0411,1.9993,1.9862,2.0108,1.9459,1.8969,1.8609,1.7459,1.6656,1.629,1.5528,1.5202,1.5368,1.2756,0.0,0.0,0.0,0.0,0.0,0.0,0.0,0.0,0.0,1.1242,0.9294,0.0,1.3632,0.0,1.7065,1.9593,2.0744,2.1789,0.0,0.0,2.6587,2.7823,3.0938,3.1938,3.2466,3.2747,3.5186,3.7186,3.8059,3.9108,4.004,4.0749,4.0595,4.0405,4.0367,4.1455,4.2564,4.3387,4.3824,4.3818,4.3475,4.3665,4.3918,4.3655,4.3541,4.373,4.4321,4.4372,4.4323,4.4383,4.4908,4.5046,4.4513,4.535,4.6451,4.688,4.6428,4.5897,4.6104,4.6489,4.6874,2.1224,2.1315,2.1729,2.1503,2.0939,2.0681,2.0572,2.0588,2.0588,2.0475,2.0257,2.0005,1.9794,1.9578,1.9083,1.9083,1.9405,1.9563,1.994,2.0494,2.0921,2.1516,2.2158,2.2439,2.2738,2.3146,2.3526,2.3721,2.3725,2.3373,2.3177,2.3138,2.2725,2.2292,2.1839,2.1169,2.108,2.1589,2.1661,2.1594,2.1414,2.0703,2.0271,2.0089,1.9631,1.8873,1.7829,1.7317,1.674,1.6064,1.5621,1.542,1.539,1.4476,1.3745,0.0,0.0,0.0,0.0,0.0,0.0,0.0,0.0,0.0,0.0,0.0,1.6042,1.7036,2.0285,2.2705,2.364,2.5147,2.702,2.9298,2.9843,3.1098,3.3676,3.4308,3.4783,3.5327,3.7048,3.8499,3.9222,4.012,4.0921,4.1494,4.2145,4.245,4.2201,4.2908,4.3807,4.4669,4.4741,4.4662,4.4662,4.4008,4.382,4.4479,4.4557,4.4594,4.4916,4.4886,4.4843,4.5009,4.5462,4.5801,4.5655,4.6458,4.7492,4.8134,4.7923,4.7472,4.7279,4.7444,4.7699,2.1738,2.1816,2.2315,2.2487,2.2467,2.2021,2.1864,2.1894,2.1796,2.1622,2.145,2.0974,2.0712,2.0563,2.022,2.0135,2.0345,2.0679,2.086,2.0942,2.154,2.2032,2.2443,2.2537,2.2824,2.3247,2.3544,2.3678,2.37,2.3771,2.3795,2.3795,2.3795,2.3816,2.3783,2.2513,2.1898,2.2006,2.2087,2.217,2.2342,2.1574,2.0876,2.0288,2.005,1.8882,1.6708,1.7253,1.6958,1.5568,1.5635,1.5713,1.5724,1.6484,1.6174,0.0,1.4826,0.0,0.0,0.0,0.0,0.0,0.0,0.0,0.0,1.7392,1.8793,2.0494,2.3622,2.5944,2.6899,2.9102,3.0893,3.1898,3.275,3.3838,3.5355,3.5729,3.6323,3.7526,3.8572,3.9505,4.0137,4.0998,4.1552,4.1911,4.3118,4.4057,4.4306,4.4344,4.4669,4.549,4.5586,4.5451,4.5393,4.4374,4.4008,4.526,4.5361,4.5243,4.5263,4.5033,4.5085,4.5674,4.5913,4.628,4.7323,4.7847,4.8496,4.9202,4.9067,4.8795,4.8603,4.8513,4.873,2.1344,2.1435,2.1816,2.1957,2.198,2.2065,2.2247,2.239,2.1752,2.1201,2.073,2.0663,2.0646,2.0597,2.0357,2.0561,2.1071,2.0893,2.1071,2.1631,2.1721,2.1928,2.2198,2.2409,2.2694,2.307,2.3383,2.3589,2.3718,2.3771,2.3795,2.3795,2.3795,2.3896,2.4036,0.0,0.0,0.0,2.3312,2.307,2.3146,2.2458,2.1727,2.1064,1.9686,0.0,1.7502,1.6952,1.6551,1.6319,1.7019,0.0,0.0,0.0,0.0,0.0,0.0,0.0,0.0,0.0,0.0,0.0,2.0332,2.0439,2.0073,2.2036,2.3539,2.4075,2.6378,2.8339,2.95,3.0631,3.1981,3.3545,3.4474,3.5397,3.6378,3.7586,3.8323,3.797,3.9118,4.0096,4.0466,4.1088,4.1913,4.2708,4.3669,4.4552,4.5241,4.528,4.5376,4.5566,4.5566,4.5566,4.5586,4.5259,4.4989,4.5547,4.5568,4.5513,4.5476,4.5321,4.5357,4.6025,4.6509,4.6845,4.6955,4.814,4.9184,4.9244,4.9146,4.8974,4.894,4.9213,4.9491,2.1229,0.0,2.1816,2.2088,0.0,2.2381,2.2506,2.2611,2.195,2.1412,2.0923,2.1011,2.1027,2.0907,2.0805,2.1027,2.153,2.153,2.1808,2.2263,2.2573,2.2857,2.304,2.3164,2.3476,2.3898,2.4112,2.4353,2.4623,2.4369,2.4284,2.431,2.4076,2.3996,2.4094,2.4229,2.4339,2.4392,2.4134,2.4023,2.4069,2.3328,2.2596,2.1855,0.0,0.0,0.0,0.0,0.0,0.0,0.0,0.0,0.0,0.0,0.0,1.8904,1.8873,1.903,1.9468,1.9812,2.0524,2.1668,2.3663,2.4487,2.3587,2.5431,2.6711,2.6942,2.8755,3.0204,3.0906,3.2043,3.3182,3.4128,3.5315,3.643,3.73,3.8439,3.9192,3.93,3.9871,4.0564,4.1277,4.192,4.2691,4.3568,4.4434,4.5087,4.549,4.5586,4.5586,4.5566,4.5182,4.5124,4.5451,4.5182,4.5163,4.5451,4.5586,4.5531,4.5419,4.5686,4.6075,4.6711,4.7345,4.7806,4.8127,4.8915,4.9427,4.937,4.9566,4.9743,4.9709,4.98,5.0102,2.1015,2.1307,2.1827,2.2217,2.2402,2.2586,2.2632,2.2577,0.0,0.0,0.0,2.134,2.1325,2.1215,2.1204,2.1406,2.1801,2.2095,2.2397,2.2723,2.3259,2.3652,2.3852,2.3885,2.416,2.4675,2.4895,2.5171,2.5464,2.5084,2.4933,2.4995,2.4681,2.4533,2.4575,2.4837,2.494,2.4922,2.4776,2.4742,2.4787,2.4153,2.3434,2.266,2.1878,2.0773,1.9297,1.9311,1.9014,1.8391,1.8602,1.9027,1.9602,2.0329,2.1086,2.1885,2.2343,2.2435,2.2073,2.2456,2.2928,2.3334,2.6056,2.7409,2.6631,2.7941,2.8875,2.9102,3.0557,3.1541,3.1793,3.3116,3.4108,3.4397,3.593,3.7219,3.795,3.8911,3.9777,4.0373,4.045,4.0912,4.2008,4.2646,4.3393,4.4201,4.4989,4.5586,4.5586,4.5586,4.5586,4.5547,4.5124,4.4874,4.5297,4.5105,4.4855,4.549,4.5586,4.5495,4.5417,4.5967,4.6724,4.7169,4.7969,4.8617,4.9307,4.9452,4.9459,4.9313,4.9987,5.0605,5.0598,5.0575,5.0971,2.0581,2.0667,2.1259,2.1609,2.1766,2.2109,2.2263,2.2253,2.1813,2.1298,2.0809,2.1044,2.1044,2.0893,2.1097,2.1406,2.1786,2.184,2.2171,0.0,2.2801,2.2996,2.331,2.3502,2.3737,2.4145,2.4718,2.5029,2.5125,2.5455,2.5651,2.5707,2.5891,2.6124,2.6409,2.6581,2.6654,2.6617,2.5354,2.4742,2.4806,2.4674,2.4299,2.353,2.2691,2.1855,2.0999,2.0946,2.0918,2.0812,2.1597,2.2046,2.2105,2.2249,2.271,2.3449,2.295,2.3126,2.4353,2.3961,2.4524,2.6617,2.7941,2.8559,2.8474,2.9307,2.9893,2.9975,3.104,3.1981,3.2603,3.3456,3.4366,3.5201,3.6767,3.7853,3.8065,3.9354,4.0315,4.0469,4.0489,4.095,4.2066,4.2744,4.3436,4.4203,4.5068,4.555,4.5586,4.5586,4.5586,4.5586,4.5509,4.547,4.5528,4.5528,4.5413,4.5547,4.5624,4.5609,4.5357,4.6099,4.679,4.7103,4.7928,4.8673,4.9352,4.9509,4.9465,4.9356,5.0081,5.0792,5.1379,5.1996,5.2559,1.9554,1.9761,2.0232,2.0696,2.1237,2.1841,2.2123,2.2203,2.2027,2.179,2.1535,2.1639,2.1654,2.1565,2.1683,2.1932,2.2233,2.253,2.2873,2.3293,2.3608,2.3817,2.3932,2.4052,2.4349,2.4816,2.5128,2.5593,2.6143,2.6096,2.6153,2.6435,2.6426,2.6562,2.6897,2.6953,2.7009,2.699,2.6314,2.5939,2.5991,2.5627,2.5242,2.4911,2.369,2.2912,2.2558,2.2121,2.1909,2.1972,2.2393,2.2786,2.3089,2.3745,2.4263,2.4587,2.4629,2.4777,2.5019,2.5139,2.6018,2.8008,2.8589,2.907,2.9551,2.9899,3.0128,3.0195,3.1408,3.2373,3.28,3.3899,3.504,3.6012,3.7213,3.8131,3.8738,3.9719,4.0469,4.0546,4.0931,4.1585,4.2566,4.328,4.4049,4.4855,4.5376,4.5568,4.5586,4.5586,4.5586,4.5586,4.5586,4.5586,4.5586,4.5586,4.5586,4.5586,4.6009,4.6148,4.6046,4.6879,4.7672,4.7946,4.8513,4.9096,4.9604,4.9502,4.9527,5.0006,5.0623,5.1466,5.227,5.311,5.3634,1.8776,1.8952,1.9422,2.0066,2.0845,2.1541,2.1935,2.2123,2.2184,2.217,2.217,2.217,2.217,2.217,2.217,2.237,2.2646,2.3068,2.3421,2.3711,2.4162,2.441,2.4492,2.4549,2.4879,2.5406,2.5556,2.6106,2.6886,2.6636,2.6782,2.7341,2.7159,2.7218,2.755,2.7568,2.755,2.755,2.7587,2.7382,2.7008,2.6274,2.5911,2.5834,2.4591,2.386,2.3855,2.3296,2.2969,2.3049,2.3305,2.3662,2.4125,2.5209,2.5814,2.5803,2.6168,2.6092,2.5526,2.6317,2.7405,2.8665,2.9032,2.946,3.0061,3.0142,3.0219,3.0572,3.1649,3.2577,3.3157,3.4331,3.5589,3.6573,3.741,3.8247,3.9181,4.0008,4.0489,4.0585,4.1258,4.2124,4.297,4.3797,4.4586,4.5316,4.5586,4.5586,4.5586,4.5586,4.5586,4.5586,4.5586,4.5586,4.5586,4.5586,4.5586,4.5586,4.6297,4.657,4.6736,4.777,4.8618,4.8662,4.9108,4.9491,4.9644,4.9525,4.9714,5.0399,5.1312,5.2244,5.3144,5.3796,5.4265,1.887,1.8726,1.9285,2.0014,2.0772,2.1153,2.1602,2.1983,2.2123,2.217,2.217,2.217,2.217,2.217,2.217,2.231,2.2615,2.2844,2.3083,2.3363,2.361,2.3852,2.4162,2.4467,2.4775,2.5169,2.5626,2.612,2.664,2.7012,2.771,2.8634,2.8704,2.882,2.9191,2.9231,2.9231,2.9268,2.9268,2.8559,2.7155,2.631,2.5928,2.5979,2.5141,2.47,2.4624,2.4681,2.4671,2.4761,2.5405,2.592,2.6085,2.6931,2.7447,2.7345,2.6759,2.6308,2.6317,2.7675,2.8575,2.8745,2.9525,3.0026,3.0156,3.0176,3.05,3.1272,3.1749,3.2591,3.3653,3.4655,3.5624,3.6553,3.7364,3.8251,3.9204,4.0008,4.0489,4.0489,4.1316,4.2143,4.3008,4.3855,4.4682,4.547,4.5586,4.5586,4.5586,4.5586,4.5586,4.5586,4.5586,4.5586,4.5586,4.5586,4.5643,4.5701,4.6355,4.682,4.716,4.8012,4.8957,4.8958,4.9164,4.9596,4.9471,4.9433,4.9827,5.0777,5.1836,5.2982,5.3939,5.4334,5.4321,1.8935,1.86,1.8873,1.928,1.9964,2.1,2.1511,2.1568,2.186,2.2063,2.2152,2.1779,2.1827,2.217,2.217,2.2278,2.237,2.2601,2.2873,2.3068,2.3304,2.3566,2.3809,2.3937,2.4271,2.4791,2.5068,2.5668,2.659,2.7352,2.811,2.8815,2.8905,2.9115,2.9491,2.9511,2.9511,2.9511,2.9511,2.8932,2.7867,2.7024,2.6611,2.6461,2.5383,2.4753,2.4753,2.4768,2.4798,2.4842,2.522,2.5768,2.6502,2.6724,2.6578,2.6132,2.6222,2.6749,2.7718,2.8441,2.9209,3.0162,3.016,3.0528,3.142,3.0753,3.1009,3.2975,3.3431,3.3601,3.3808,3.4774,3.5886,3.6728,3.7319,3.8117,3.9619,4.0111,4.0427,4.055,4.172,4.2662,4.3201,4.4259,4.5124,4.5547,4.5586,4.5586,4.5586,4.5586,4.5586,4.5586,4.5586,4.5586,4.5586,4.5586,4.5817,4.6355,4.7067,4.7588,4.824,4.8911,4.96,4.9402,4.9533,4.9555,4.9358,4.987,5.0394,5.1376,5.2641,5.3883,5.4315,5.4409,5.4375,1.9141,1.8746,1.8532,1.8736,1.9223,2.0461,2.0963,2.0911,2.1281,2.1529,2.1602,2.1321,2.1479,2.1888,2.2123,2.217,2.2217,2.2555,2.2783,2.2934,2.3216,2.348,2.3595,2.3724,2.3979,2.4426,2.467,2.5427,2.6708,2.7444,2.8192,2.8797,2.8892,2.9119,2.9511,2.9551,2.955,2.955,2.9569,2.9157,2.8316,2.7548,2.7005,2.6615,2.5391,2.4673,2.4673,2.4673,2.4723,2.4783,2.5001,2.5697,2.6816,2.6916,2.6636,2.6148,2.6788,2.7785,2.9068,2.9547,3.0314,3.1362,3.0994,3.1165,3.2003,3.1523,3.2101,3.4141,3.503,3.5044,3.4685,3.5394,3.6381,3.728,3.7524,3.8298,3.9852,4.0196,4.0323,4.0608,4.1989,4.3335,4.3835,4.4816,4.5566,4.5586,4.5586,4.5586,4.5586,4.5586,4.5586,4.5586,4.5586,4.5586,4.5605,4.5893,4.6259,4.6855,4.7644,4.8663,4.9337,4.9774,5.0089,4.9758,4.9636,4.9509,4.9439,4.9987,5.1199,5.2319,5.3493,5.4334,5.439,5.4409,5.4409,1.9643,1.9033,1.8407,1.8445,1.9052,1.93,1.9641,2.0093,2.0258,2.0334,2.0497,2.0881,2.1175,2.1286,2.1874,2.2184,2.2263,2.2663,2.2859,2.2934,2.3334,2.3595,2.3595,2.3937,2.4063,2.4188,2.4695,2.5615,2.6839,2.7255,2.7911,2.8842,2.8906,2.9169,2.9589,2.9683,2.9701,2.9683,2.9608,2.9214,2.8371,2.7583,2.6739,2.5955,2.5145,2.4673,2.4673,2.4673,2.4707,2.4707,2.5476,2.6397,2.7327,2.8103,2.8446,2.8679,2.9389,2.9844,3.0143,3.1255,3.2147,3.2223,3.192,3.1916,3.2334,3.2505,3.3197,3.4398,3.597,3.6712,3.6659,3.667,3.7149,3.7962,3.8179,3.8757,3.9908,4.0042,4.0213,4.0655,4.2027,4.3605,4.5124,4.5528,4.5586,4.5586,4.5586,4.5586,4.5586,4.5586,4.5586,4.5586,4.5586,4.5586,4.5663,4.6144,4.6682,4.7278,4.8202,4.9317,4.9506,4.9723,4.9964,5.0031,4.9721,4.9546,4.9501,5.0347,5.1836,5.3009,5.3793,5.4409,5.4409,5.4409,5.4409,1.9698,1.9019,1.8384,1.8247,1.8487,1.9282,1.9609,1.9537,1.9871,2.0112,2.0118,2.0042,2.0232,2.0858,2.1334,2.1779,2.2231,2.2555,2.2768,2.2949,2.326,2.348,2.3595,2.3739,2.3894,2.4105,2.4354,2.5189,2.6522,2.7144,2.7911,2.8748,2.8888,2.9169,2.9589,2.9701,2.9701,2.9645,2.9176,2.8463,2.7656,2.6848,2.6022,2.5182,2.4842,2.4673,2.4673,2.4673,2.4673,2.4673,2.5039,2.5352,2.574,2.6537,2.7809,2.933,2.9823,3.0433,3.1438,3.2084,3.2618,3.2938,3.2486,3.2593,3.3243,3.3141,3.3538,3.5379,3.65,3.7282,3.7829,3.7618,3.7387,3.7701,3.7894,3.8376,3.9231,3.9712,3.9983,4.0462,4.1908,4.372,4.5086,4.5586,4.5586,4.5586,4.5586,4.5586,4.5586,4.5586,4.5586,4.5586,4.5586,4.5586,4.5586,4.6317,4.7048,4.7778,4.8625,4.9529,4.9988,4.9943,5.0114,5.0005,4.9721,4.9659,4.9688,5.0576,5.2173,5.3624,5.4409,5.4409,5.4409,5.4409,5.4409,1.9618,1.903,1.851,1.8178,1.8196,1.8991,1.9149,1.8863,1.9197,1.9407,1.946,1.9279,1.9592,2.0308,2.0809,2.1286,2.1841,2.237,2.2692,2.2814,2.3038,2.3304,2.348,2.3523,2.3653,2.3937,2.4204,2.4957,2.6215,2.6935,2.7741,2.8628,2.8795,2.9126,2.9474,2.9401,2.9288,2.9119,2.8444,2.7636,2.6848,2.6301,2.5587,2.4839,2.4673,2.4673,2.4673,2.4673,2.4673,2.4726,2.4951,2.5377,2.6004,2.7072,2.8442,3.0099,3.0839,3.154,3.2561,3.2959,3.3259,3.3602,3.3122,3.3202,3.403,3.3395,3.4171,3.5846,3.6665,3.7312,3.8267,3.8175,3.7863,3.7911,3.7952,3.8321,3.8997,3.9432,4.0079,4.1074,4.2426,4.3953,4.522,4.5528,4.5586,4.5586,4.5568,4.555,4.5586,4.5568,4.5568,4.5605,4.5586,4.5586,4.5818,4.6512,4.7261,4.7972,4.9106,4.9932,5.0216,5.0183,5.0082,4.9952,4.9873,4.9833,5.0244,5.1077,5.2398,5.3981,5.4409,5.4409,5.4409,5.4409,5.4409,1.9454,1.9097,1.8757,1.8396,1.8199,1.8265,1.8185,1.8216,1.8216,1.8282,1.8441,1.8869,1.9239,1.9656,2.0207,2.0709,2.114,2.1969,2.2463,2.2569,2.2768,2.3024,2.326,2.3304,2.3436,2.3681,2.4287,2.5082,2.595,2.6623,2.7404,2.8166,2.8676,2.902,2.9332,2.8802,2.8445,2.8313,2.7674,2.6829,2.6113,2.5944,2.5496,2.4801,2.4673,2.4673,2.4673,2.4673,2.4726,2.4876,2.5506,2.6827,2.8358,2.981,3.1037,3.1383,3.2636,3.3393,3.3542,3.3899,3.4083,3.4073,3.3776,3.356,3.3697,3.3726,3.4329,3.5871,3.645,3.7008,3.8377,3.8615,3.8634,3.8707,3.8719,3.8888,3.912,3.9324,4.0273,4.2144,4.3269,4.4297,4.522,4.5586,4.5586,4.5586,4.5513,4.5476,4.555,4.5514,4.5475,4.5549,4.5586,4.5586,4.6108,4.6743,4.7415,4.8202,4.9469,5.0446,5.0259,5.0139,5.0005,4.989,4.9615,4.964,5.1228,5.2023,5.2529,5.3721,5.3999,5.4409,5.4409,5.4409,5.4409,1.9548,1.9421,1.9074,1.8768,1.8464,1.8419,1.8305,1.8096,1.8084,1.8084,1.8139,1.8356,1.8614,1.8975,1.9436,1.9888,2.0333,2.093,2.1589,2.2137,2.2388,2.2649,2.2979,2.3216,2.3392,2.3681,2.4287,2.4902,2.5603,2.6471,2.7296,2.7966,2.8471,2.8902,2.9198,2.8592,2.8241,2.822,2.7054,2.6209,2.5944,2.5402,2.497,2.4745,2.4673,2.4673,2.4673,2.4673,2.4986,2.5546,2.586,2.704,2.9068,2.9954,3.1013,3.2543,3.3185,3.3807,3.4256,3.427,3.4213,3.408,3.3778,3.3578,3.3621,3.3953,3.4739,3.5981,3.6595,3.7449,3.8401,3.8707,3.8946,3.946,3.9515,3.954,3.9679,3.9634,4.0522,4.2218,4.306,4.3989,4.5163,4.5586,4.5586,4.5586,4.555,4.5532,4.5573,4.5534,4.555,4.5586,4.5586,4.5605,4.5973,4.6532,4.7275,4.8022,4.9228,5.0256,5.0149,5.0063,4.9925,4.9788,4.9521,5.0177,5.1753,5.2653,5.3013,5.3628,5.424,5.4409,5.4409,5.4409,5.4409,1.9574,1.9592,1.9377,1.9033,1.8623,1.8589,1.843,1.813,1.8084,1.8084,1.8084,1.8084,1.8302,1.8614,1.8869,1.9226,1.9668,2.0206,2.0822,2.152,2.1725,2.1988,2.2406,2.2889,2.3216,2.361,2.423,2.4823,2.5319,2.6248,2.7095,2.7747,2.821,2.8506,2.8645,2.8009,2.7606,2.7339,2.6209,2.5515,2.5402,2.497,2.4673,2.4745,2.5005,2.5155,2.5192,2.5487,2.575,2.6161,2.6817,2.8491,3.0488,3.1072,3.1807,3.291,3.3665,3.4078,3.433,3.4165,3.4018,3.3805,3.3542,3.3361,3.3442,3.4021,3.4921,3.5891,3.6705,3.7606,3.8511,3.9019,3.9478,4.0249,4.0029,4.0097,4.0277,4.0402,4.1067,4.2473,4.3092,4.3982,4.5016,4.5476,4.5513,4.5568,4.555,4.5515,4.5534,4.5515,4.5515,4.5495,4.5513,4.5551,4.5664,4.6301,4.7092,4.7888,4.8738,4.9523,4.9872,4.9887,4.9825,4.9852,4.9684,5.0459,5.1884,5.2394,5.2847,5.3609,5.4409,5.4409,5.4409,5.4409,5.4446,1.9618,1.9618,1.9618,1.9248,1.8678,1.8678,1.8487,1.8141,1.8166,1.8123,1.8121,1.8077,1.8274,1.8511,1.8607,1.8774,1.9059,1.9653,2.02,2.0628,2.091,2.1314,2.2007,2.2601,2.3064,2.354,2.4166,2.4759,2.5182,2.6054,2.6824,2.743,2.7918,2.807,2.7894,2.7182,2.6786,2.6311,2.537,2.492,2.4804,2.4858,2.4839,2.4895,2.56,2.6029,2.6158,2.6908,2.7075,2.6685,2.8623,3.0544,3.2091,3.2993,3.3074,3.3198,3.4061,3.412,3.3928,3.3797,3.368,3.339,3.3232,3.314,3.3337,3.4114,3.5028,3.5975,3.6825,3.7653,3.8559,3.93,4.0107,4.091,4.0689,4.0662,4.1212,4.1449,4.1931,4.2829,4.336,4.3858,4.5048,4.5182,4.5342,4.5437,4.5475,4.5438,4.5416,4.5416,4.5379,4.538,4.54,4.5476,4.5571,4.6143,4.6923,4.7619,4.8422,4.9037,4.9626,4.9741,5.0174,5.0146,5.0134,5.0979,5.1865,5.2582,5.3219,5.3981,5.439,5.4409,5.4409,5.4409,5.4484,1.9943,1.9943,1.9943,1.9574,1.903,1.9215,1.8857,1.8168,1.8347,1.8275,1.8111,1.8102,1.8148,1.8227,1.8233,1.841,1.8726,1.8952,1.9191,1.956,2.0138,2.1472,2.2711,2.3041,2.3367,2.3924,2.4243,2.4461,2.5005,2.5881,2.6487,2.6971,2.7689,2.804,2.8037,2.7533,2.7122,2.66,2.5853,2.5194,2.4898,2.5362,2.5656,2.5712,2.6381,2.6849,2.7094,2.8374,2.9072,2.898,3.0582,3.2072,3.2974,3.3165,3.3347,3.3751,3.3889,3.3972,3.3788,3.3578,3.3408,3.3291,3.314,3.3198,3.3841,3.4554,3.5367,3.6251,3.7133,3.7884,3.8445,3.9199,4.0339,4.1666,4.1684,4.1699,4.1889,4.1785,4.1931,4.2669,4.3189,4.3869,4.4578,4.5052,4.5226,4.5284,4.5361,4.536,4.5311,4.5314,4.5277,4.5319,4.5361,4.54,4.5592,4.6151,4.6758,4.739,4.809,4.8767,4.9254,4.9574,5.0341,5.0992,5.0678,5.1171,5.2428,5.3459,5.4018,5.4352,5.439,5.4409,5.4409,5.4409,5.4503,1.9954,2.0085,2.0085,1.983,1.9293,1.9214,1.8857,1.8367,1.8132,1.8162,1.8116,1.8084,1.8082,1.8096,1.8115,1.8212,1.8391,1.8795,1.9053,1.9359,2.0452,2.1686,2.2777,2.3036,2.3498,2.4163,2.4597,2.5078,2.5639,2.6338,2.6816,2.713,2.769,2.7941,2.7715,2.7518,2.7173,2.6779,2.6339,2.593,2.5752,2.6037,2.6296,2.6591,2.7315,2.8156,2.9223,3.0471,3.1166,3.1431,3.2182,3.2987,3.3759,3.3543,3.3543,3.3902,3.3815,3.3707,3.3455,3.3321,3.3262,3.3201,3.3212,3.363,3.4187,3.5043,3.6021,3.6479,3.7377,3.7911,3.837,3.927,4.0702,4.2157,4.2627,4.2697,4.28,4.2576,4.2631,4.3036,4.337,4.3782,4.4465,4.4776,4.4957,4.513,4.5246,4.517,4.51,4.516,4.517,4.5151,4.5275,4.5357,4.5801,4.6361,4.7058,4.7669,4.8323,4.8882,4.9114,4.9527,5.0222,5.0935,5.1021,5.1565,5.2821,5.383,5.4112,5.4334,5.439,5.4409,5.4409,5.4675,5.4712,1.9852,2.0085,2.0085,1.992,1.9544,1.8935,1.8647,1.8405,1.7885,1.7791,1.7967,1.8018,1.808,1.8079,1.8107,1.8081,1.8173,1.8759,1.9183,1.9725,2.0722,2.1825,2.2269,2.3044,2.3658,2.4341,2.5221,2.5773,2.6231,2.7045,2.7326,2.7244,2.7691,2.766,2.7331,2.7174,2.7025,2.6841,2.6744,2.6667,2.673,2.6933,2.723,2.7493,2.865,3.0039,3.1373,3.2456,3.2948,3.3462,3.3265,3.3556,3.4297,3.3986,3.3716,3.355,3.3597,3.3415,3.3086,3.316,3.316,3.3069,3.3648,3.4169,3.4508,3.5507,3.6434,3.6823,3.7468,3.7988,3.8703,3.9768,4.1162,4.2486,4.2996,4.3196,4.3375,4.3497,4.3566,4.3738,4.3631,4.3918,4.4202,4.4465,4.4561,4.4896,4.5076,4.5276,4.5332,4.5552,4.5274,4.4808,4.5029,4.5347,4.5963,4.6612,4.7372,4.8106,4.8815,4.9302,4.9302,4.964,5.0091,5.0579,5.1185,5.2086,5.3264,5.3902,5.4221,5.4334,5.4409,5.4409,5.4465,5.4905,5.5149,2.0052,2.0085,2.0085,1.992,1.9558,1.9124,1.8626,1.8203,1.7981,1.7714,1.77,1.7907,1.802,1.8091,1.7986,1.8092,1.8054,1.8377,1.8716,1.9518,2.0337,2.1284,2.204,2.3089,2.412,2.4784,2.5136,2.5708,2.6286,2.6326,2.6268,2.6864,2.6918,2.6841,2.6968,2.728,2.737,2.7036,2.7049,2.7082,2.7253,2.8028,2.8522,2.8753,3.0028,3.1318,3.2278,3.2851,3.3433,3.3982,3.39,3.3739,3.3956,3.3671,3.3455,3.3415,3.3238,3.3055,3.293,3.2961,3.2979,3.3059,3.374,3.4347,3.4989,3.5846,3.672,3.722,3.7596,3.8259,3.9553,4.0616,4.1609,4.2517,4.2938,4.2975,4.3087,4.3304,4.3497,4.3566,4.3686,4.3786,4.391,4.4383,4.4524,4.4708,4.5025,4.5361,4.5663,4.5957,4.5639,4.5197,4.5275,4.5622,4.5826,4.6667,4.7718,4.8401,4.9106,4.949,4.949,4.9678,5.0091,5.0823,5.1686,5.2644,5.3601,5.4052,5.4371,5.439,5.4409,5.4409,5.4543,5.5093,5.5585,2.0085,2.0085,2.0085,1.9998,1.9737,1.893,1.8436,1.8131,1.7475,1.7241,1.7273,1.7436,1.7514,1.7557,1.7523,1.7645,1.7844,1.8066,1.8331,1.8888,1.9613,2.0466,2.1436,2.2698,2.3944,2.5059,2.5718,2.6149,2.6334,2.6378,2.6385,2.6206,2.6389,2.6669,2.6707,2.7129,2.7302,2.751,2.7852,2.8054,2.827,2.9168,3.0054,3.036,3.1331,3.2249,3.3138,3.3302,3.3679,3.3988,3.3842,3.3634,3.3671,3.3379,3.3208,3.3147,3.3073,3.2916,3.2916,3.2934,3.3077,3.3437,3.4169,3.4936,3.5703,3.6488,3.7059,3.7452,3.7774,3.8382,4.0211,4.0874,4.1669,4.2375,4.2709,4.2747,4.2824,4.3123,4.3339,4.3375,4.3532,4.391,4.4216,4.45,4.5118,4.5544,4.5885,4.6186,4.6158,4.6392,4.6307,4.6017,4.5911,4.5918,4.5899,4.6645,4.7965,4.8682,4.93,4.949,4.9478,4.9753,5.0053,5.0973,5.1931,5.2832,5.3695,5.4108,5.4409,5.4409,5.4409,5.4409,5.4712,5.5357,5.5809,1.9803,1.9944,1.9802,1.9802,1.9605,1.8375,1.7939,1.8007,1.689,1.6612,1.676,1.6839,1.7004,1.6959,1.6994,1.7186,1.749,1.784,1.8069,1.8193,1.9101,1.9977,2.0925,2.216,2.3616,2.5273,2.6034,2.6491,2.6617,2.6871,2.6271,2.5668,2.6007,2.6225,2.628,2.6759,2.7208,2.7635,2.8478,2.9054,2.9444,3.0252,3.1034,3.1797,3.2112,3.273,3.3419,3.3666,3.3797,3.378,3.3522,3.3437,3.3339,3.3147,3.2916,3.2916,3.2916,3.2916,3.2969,3.3094,3.3437,3.4133,3.4936,3.5614,3.6345,3.697,3.7416,3.7684,3.7987,3.8843,4.0503,4.1221,4.1667,4.219,4.249,4.253,4.2591,4.29,4.3069,4.3232,4.3394,4.3754,4.437,4.4864,4.5663,4.64,4.6713,4.6869,4.685,4.6962,4.6999,4.6744,4.6569,4.689,4.694,4.7061,4.834,4.8975,4.9539,4.9415,4.9415,4.9534,4.9928,5.1198,5.2193,5.2982,5.3695,5.4202,5.4409,5.4409,5.4409,5.439,5.4903,5.5584,5.5939,1.8496,1.9121,1.8576,1.8375,1.824,1.7413,1.7139,1.7079,1.6533,1.6351,1.6412,1.6691,1.6865,1.6835,1.692,1.7012,1.7121,1.7478,1.7707,1.7875,1.8755,1.9727,2.0622,2.1716,2.3267,2.4774,2.5699,2.6078,2.6135,2.6019,2.5712,2.5287,2.5113,2.521,2.5907,2.6524,2.7236,2.7759,2.8613,2.9263,2.9752,3.0624,3.159,3.2456,3.2652,3.2967,3.3322,3.3652,3.3807,3.3807,3.3753,3.355,3.3321,3.3055,3.2916,3.2916,3.2916,3.2934,3.3077,3.3526,3.3865,3.4401,3.5346,3.6096,3.6577,3.7131,3.7612,3.8076,3.8826,3.9896,4.0913,4.1591,4.2019,4.231,4.2328,4.2369,4.2432,4.2573,4.2864,4.3087,4.3269,4.3742,4.4597,4.5363,4.6091,4.6817,4.7322,4.7281,4.708,4.7499,4.7937,4.7569,4.7141,4.765,4.8126,4.8256,4.8777,4.9276,4.9621,4.9291,4.9267,4.9196,4.9821,5.0951,5.194,5.2738,5.3451,5.4221,5.4409,5.4409,5.439,5.4352,5.483,5.5323,5.5887,1.8031,1.8432,1.8104,1.8037,1.7901,1.7207,1.6941,1.6802,1.6272,1.6079,1.607,1.6272,1.6323,1.636,1.6323,1.6425,1.6802,1.7314,1.7503,1.7772,1.8386,1.9179,2.0006,2.1153,2.2116,2.3369,2.4463,2.5313,2.5595,2.5248,2.4912,2.462,2.4618,2.5072,2.5582,2.6462,2.7176,2.78,2.8619,2.9286,2.9793,3.0907,3.1999,3.2464,3.2852,3.3019,3.3284,3.3429,3.3522,3.3522,3.3541,3.335,3.316,3.2993,3.2916,3.2934,3.2952,3.3116,3.3419,3.3972,3.4401,3.5293,3.606,3.6577,3.6952,3.7416,3.7933,3.8754,3.9236,4.0431,4.1591,4.2055,4.2234,4.2287,4.2287,4.2287,4.2328,4.2414,4.2652,4.301,4.3597,4.4273,4.5223,4.5973,4.656,4.7219,4.7858,4.7731,4.74,4.7856,4.8441,4.8129,4.7667,4.8058,4.8727,4.9117,4.9409,4.9826,4.9958,4.9653,4.9272,4.928,4.9687,5.0474,5.1417,5.2375,5.3545,5.4409,5.4409,5.4409,5.439,5.4412,5.4662,5.5063,5.5736,1.7619,1.7755,1.7628,1.756,1.7491,1.6941,1.6664,1.6533,1.607,1.5805,1.5805,1.5805,1.5876,1.5797,1.5895,1.6017,1.6367,1.696,1.7199,1.7449,1.7848,1.849,1.9422,2.0111,2.1096,2.2498,2.3122,2.4118,2.4621,2.484,2.4417,2.4357,2.4937,2.5459,2.5784,2.6632,2.7211,2.7853,2.8623,2.9313,3.0079,3.1116,3.2039,3.2386,3.2639,3.2862,3.3142,3.3291,3.3291,3.3262,3.3262,3.3172,3.2961,3.2916,3.2987,3.3098,3.3166,3.3526,3.3937,3.4615,3.5239,3.606,3.6488,3.6988,3.7398,3.7826,3.8415,3.9593,4.0182,4.0735,4.1895,4.2269,4.2287,4.2287,4.2287,4.2287,4.2287,4.2351,4.2472,4.3039,4.3869,4.4839,4.581,4.6379,4.6985,4.7592,4.8217,4.8272,4.8015,4.8161,4.8492,4.8364,4.8268,4.8528,4.9083,4.9803,5.0195,5.0678,5.0673,5.0449,4.9895,4.9414,4.9932,5.0432,5.1074,5.209,5.3334,5.4303,5.4287,5.4287,5.4356,5.4412,5.4474,5.51,5.5943,1.6296,1.7001,1.6333,1.607,1.607,1.6,1.5938,1.5938,1.5876,1.5805,1.5805,1.5805,1.5805,1.5805,1.5805,1.5833,1.6035,1.6336,1.671,1.6985,1.7412,1.8217,1.9213,1.9561,2.0637,2.1769,2.2257,2.2734,2.3477,2.4476,2.4904,2.464,2.5182,2.5758,2.6107,2.6933,2.7515,2.7897,2.8659,2.9392,2.9946,3.0677,3.1405,3.1951,3.2265,3.2486,3.2912,3.3129,3.3172,3.3024,3.319,3.316,3.2961,3.2916,3.3312,3.3705,3.3972,3.4026,3.4418,3.5221,3.5989,3.6577,3.7006,3.7398,3.7684,3.8237,3.8915,3.9789,4.0485,4.1234,4.2019,4.2269,4.2287,4.2287,4.2287,4.2287,4.2305,4.2608,4.2696,4.3122,4.3999,4.5269,4.6391,4.6853,4.7352,4.7959,4.8439,4.8458,4.8495,4.8514,4.8514,4.8347,4.879,4.9137,4.9942,5.0628,5.1021,5.1491,5.1355,5.1176,5.049,4.9991,5.0083,5.0602,5.1138,5.1564,5.2549,5.3274,5.3813,5.4146,5.4181,5.4158,5.4168,5.5025,5.6073,1.5922,1.6263,1.5938,1.5805,1.5805,1.5805,1.5805,1.5805,1.5805,1.5805,1.5805,1.5805,1.5805,1.5805,1.5805,1.5805,1.5876,1.614,1.6401,1.6696,1.7177,1.7927,1.8665,1.9257,2.017,2.0718,2.1479,2.1874,2.2617,2.3766,2.4713,2.5047,2.5729,2.6264,2.6453,2.7155,2.7668,2.817,2.8794,2.9377,2.9832,3.0369,3.0993,3.1623,3.1933,3.2283,3.2621,3.293,3.3006,3.2916,3.3055,3.3024,3.293,3.2969,3.3241,3.4026,3.4526,3.4936,3.5453,3.606,3.6542,3.7006,3.738,3.7541,3.7737,3.8362,3.9307,4.0289,4.0806,4.1466,4.2091,4.2269,4.2287,4.2287,4.2287,4.2287,4.2412,4.2858,4.315,4.3632,4.4222,4.5531,4.668,4.7186,4.7524,4.7858,4.8249,4.8344,4.8344,4.8382,4.8382,4.8326,4.9009,4.9787,5.0824,5.1709,5.1968,5.2251,5.2029,5.1712,5.1021,5.0667,5.0609,5.0441,5.0612,5.113,5.1814,5.2732,5.3647,5.3889,5.4,5.398,5.4089,5.5099,5.6099,1.5805,1.5805,1.5805,1.5805,1.5805,1.5805,1.5805,1.5805,1.5805,1.5805,1.5805,1.5805,1.5805,1.5805,1.5805,1.5805,1.5797,1.607,1.6211,1.6495,1.6994,1.7563,1.8204,1.8837,1.9361,1.9365,2.0758,2.1496,2.215,2.308,2.4315,2.5159,2.6169,2.6634,2.6897,2.7265,2.772,2.7997,2.8732,2.9166,2.9422,3.0038,3.0584,3.1106,3.1585,3.2021,3.2386,3.2639,3.2787,3.2916,3.2916,3.293,3.2916,3.3309,3.3616,3.4418,3.515,3.6096,3.6435,3.6792,3.7041,3.7345,3.763,3.7702,3.8076,3.8647,3.9504,4.0681,4.1234,4.1716,4.2109,4.2287,4.2287,4.2287,4.2287,4.2287,4.2412,4.2983,4.3572,4.406,4.4771,4.5809,4.6805,4.7386,4.7733,4.7893,4.805,4.8169,4.819,4.8229,4.819,4.8226,4.9058,4.9908,5.0814,5.1839,5.2395,5.286,5.2617,5.2373,5.1768,5.1142,5.0775,5.061,5.0446,5.0744,5.1431,5.2496,5.3495,5.3586,5.3717,5.3832,5.4167,5.518,5.6256,1.5805,1.5805,1.5805,1.5805,1.5805,1.5805,1.5805,1.5805,1.5805,1.5805,1.5805,1.5805,1.5805,1.5805,1.5805,1.5805,1.5805,1.5805,1.6008,1.6342,1.6766,1.7216,1.778,1.8459,1.912,1.9346,2.0216,2.117,2.2154,2.2613,2.3811,2.4938,2.6133,2.6843,2.7202,2.7419,2.7625,2.786,2.8431,2.8748,2.9028,2.9528,3.0156,3.0584,3.0914,3.1325,3.2057,3.2335,3.2623,3.282,3.2977,3.3062,3.3223,3.383,3.4329,3.4954,3.6024,3.6863,3.722,3.7309,3.747,3.7559,3.7719,3.8005,3.8487,3.9361,4.0217,4.0967,4.1556,4.2019,4.2251,4.2287,4.2287,4.2287,4.2323,4.2448,4.2697,4.3286,4.3875,4.4482,4.5302,4.6266,4.6595,4.7097,4.7518,4.7663,4.7806,4.7929,4.801,4.7992,4.8032,4.8214,4.9069,4.9823,5.0396,5.1289,5.2371,5.2817,5.2776,5.2831,5.2752,5.206,5.1209,5.0903,5.082,5.0893,5.1017,5.1852,5.2596,5.3138,5.3459,5.365,5.4229,5.5225,5.6405,1.5805,1.5805,1.5805,1.5805,1.5805,1.5805,1.5805,1.5805,1.5805,1.5805,1.5805,1.5805,1.5805,1.5805,1.5805,1.5805,1.5805,1.5805,1.5938,1.614,1.6585,1.6995,1.7532,1.7966,1.8501,1.8851,1.9456,1.9913,2.0546,2.1856,2.2794,2.3956,2.55,2.6634,2.71,2.7423,2.756,2.7725,2.8073,2.8398,2.8542,2.9106,2.9694,2.9968,3.0526,3.0971,3.1548,3.1877,3.2214,3.2629,3.3048,3.3377,3.3725,3.4543,3.5114,3.5543,3.6649,3.7095,3.7523,3.7577,3.7577,3.7719,3.8023,3.8522,3.9004,3.9914,4.061,4.1252,4.1823,4.2251,4.2287,4.2287,4.2287,4.2287,4.2358,4.2519,4.3001,4.3607,4.4125,4.4714,4.5543,4.6493,4.6671,4.676,4.7098,4.7407,4.7554,4.7699,4.7765,4.7842,4.7861,4.8302,4.9117,4.9755,5.038,5.1402,5.248,5.2681,5.282,5.282,5.2777,5.2652,5.191,5.1519,5.1048,5.0931,5.0932,5.1191,5.1759,5.2594,5.3207,5.3616,5.4362,5.5238,5.636,1.5805,1.5805,1.5805,1.5805,1.5805,1.5805,1.5805,1.5805,1.5805,1.5805,1.5805,1.5805,1.5805,1.5805,1.5805,1.5805,1.5805,1.5805,1.5876,1.6149,1.6482,1.6899,1.7338,1.7772,1.8257,1.8373,1.8877,1.9369,1.9688,2.1022,2.1945,2.3002,2.4171,2.538,2.6774,2.7372,2.756,2.7675,2.7974,2.8186,2.8332,2.8779,2.9289,2.9544,3.0038,3.0526,3.101,3.1432,3.1994,3.2562,3.3161,3.3864,3.4533,3.5206,3.5865,3.6417,3.6809,3.7041,3.7398,3.7577,3.7702,3.8058,3.8415,3.895,3.9646,4.0503,4.1038,4.1538,4.2019,4.2287,4.2287,4.2287,4.2287,4.2287,4.2287,4.2483,4.3286,4.3946,4.4428,4.4963,4.5891,4.6724,4.6695,4.6749,4.6824,4.7098,4.7249,4.7425,4.7554,4.7626,4.7753,4.8381,4.9264,4.9836,5.0407,5.1484,5.2417,5.2445,5.2545,5.2408,5.2379,5.2286,5.2155,5.1688,5.1215,5.0856,5.1113,5.1687,5.1997,5.226,5.2745,5.3196,5.4336,5.5212,5.6081,1.5805,1.5805,1.5805,1.5805,1.5805,1.5805,1.5805,1.5805,1.5735,1.5726,1.5655,1.5655,1.5655,1.5726,1.5655,1.5726,1.5805,1.5805,1.5938,1.614,1.6412,1.683,1.7304,1.7813,1.8038,1.8148,1.853,1.8989,1.9272,1.9808,2.0852,2.2096,2.3236,2.4363,2.6079,2.7086,2.7575,2.766,2.7974,2.8073,2.822,2.8527,2.8904,2.9182,2.9544,3.0038,3.0485,3.0948,3.1611,3.2559,3.3092,3.4053,3.5403,3.5701,3.6394,3.729,3.7397,3.7469,3.7577,3.7594,3.8005,3.8594,3.8968,3.9611,4.061,4.1199,4.1448,4.193,4.2216,4.2287,4.2287,4.2287,4.2287,4.2323,4.2341,4.2739,4.3576,4.4446,4.4963,4.5472,4.6239,4.6934,4.6795,4.6702,4.6637,4.6778,4.6934,4.707,4.7143,4.7409,4.7553,4.821,4.9046,4.9874,5.0476,5.16,5.2325,5.2333,5.2257,5.2114,5.2018,5.1969,5.1835,5.1615,5.1719,5.1643,5.1951,5.233,5.2444,5.2515,5.2376,5.2834,5.4041,5.5087,5.5916,1.5805,1.5805,1.5805,1.5805,1.5805,1.5805,1.5805,1.5735,1.5426,1.5204,1.5133,1.4856,1.4919,1.5133,1.5284,1.5426,1.5726,1.5805,1.5938,1.6,1.6421,1.656,1.6968,1.7501,1.791,1.7839,1.8145,1.8354,1.8459,1.897,1.9959,2.1199,2.2827,2.4579,2.5795,2.6721,2.7049,2.7509,2.7725,2.7825,2.786,2.8155,2.8446,2.8653,2.9106,2.9528,2.9908,3.0377,3.1213,3.2332,3.2872,3.4021,3.539,3.584,3.6644,3.7264,3.7299,3.7069,3.7438,3.782,3.8469,3.9002,3.9736,4.0396,4.1074,4.1645,4.1984,4.218,4.2228,4.2246,4.2287,4.2287,4.2323,4.2465,4.2656,4.3233,4.4014,4.4911,4.5659,4.6158,4.6806,4.6507,4.6315,4.6235,4.6186,4.6284,4.6381,4.6381,4.6411,4.6941,4.724,4.7885,4.8716,4.9663,5.0581,5.1581,5.203,5.2018,5.1969,5.184,5.174,5.174,5.1722,5.1687,5.2101,5.2547,5.2832,5.3028,5.2832,5.277,5.2515,5.2888,5.414,5.4997,5.5589,1.5576,1.5497,1.5497,1.5363,1.5292,1.5647,1.5805,1.5655,1.5204,1.4832,1.4617,1.4266,1.4194,1.4474,1.476,1.5054,1.5497,1.5726,1.5938,1.6008,1.6289,1.6491,1.6769,1.7107,1.7364,1.7474,1.773,1.79,1.8096,1.8649,1.9629,2.0902,2.2493,2.3861,2.5163,2.6054,2.6893,2.7408,2.7675,2.7625,2.771,2.786,2.8073,2.8317,2.8653,2.9044,2.9348,2.9847,3.057,3.1683,3.2647,3.3656,3.48,3.5665,3.6377,3.6773,3.6943,3.6846,3.7409,3.8227,3.8837,3.93,4.0468,4.1065,4.1368,4.1866,4.1902,4.1984,4.2002,4.2044,4.2044,4.2044,4.209,4.2232,4.2678,4.3243,4.3955,4.4834,4.5605,4.6177,4.6429,4.6102,4.5817,4.57,4.5615,4.5717,4.5819,4.5768,4.5803,4.6376,4.7115,4.7869,4.8643,4.9621,5.0535,5.1415,5.1736,5.169,5.169,5.169,5.169,5.174,5.169,5.1797,5.2315,5.2868,5.3546,5.3724,5.3315,5.2886,5.2466,5.3149,5.4305,5.4806,5.5166,1.5054,1.4895,1.4895,1.4625,1.4338,1.5221,1.5664,1.5655,1.5062,1.4537,1.4171,1.397,1.368,1.368,1.4402,1.4832,1.5125,1.5576,1.5859,1.607,1.614,1.6351,1.656,1.6621,1.7038,1.7387,1.7599,1.7754,1.7985,1.8501,1.9375,2.041,2.1655,2.3012,2.4326,2.5439,2.6467,2.7086,2.7509,2.756,2.761,2.761,2.7825,2.8073,2.8317,2.8542,2.8842,2.9289,2.999,3.0738,3.1419,3.2804,3.3914,3.467,3.5503,3.6173,3.6539,3.7108,3.7537,3.8356,3.9203,3.9738,4.0612,4.1226,4.158,4.1828,4.1796,4.1596,4.1534,4.1622,4.1666,4.1587,4.1523,4.189,4.2328,4.2969,4.3593,4.4373,4.512,4.5591,4.5868,4.5751,4.5562,4.5373,4.5319,4.5196,4.5302,4.5389,4.5511,4.6082,4.6876,4.8012,4.8799,4.9621,5.0482,5.1241,5.1449,5.1452,5.164,5.169,5.169,5.169,5.169,5.1922,5.2511,5.3226,5.4243,5.4207,5.3619,5.3085,5.248,5.2973,5.3985,5.4168,5.4597,1.5054,1.4895,1.4895,1.4625,1.4201,1.4425,1.4569,1.4497,1.3912,1.347,1.3025,1.2586,1.2659,1.2886,1.3608,1.425,1.4911,1.5426,1.5797,1.5938,1.607,1.6281,1.6421,1.663,1.6978,1.7285,1.7523,1.762,1.8108,1.85,1.8981,1.9844,2.1043,2.2278,2.3373,2.4453,2.5604,2.6645,2.7233,2.7458,2.7575,2.7575,2.7725,2.7825,2.8024,2.8204,2.8431,2.8748,2.9484,3.0454,3.0797,3.1872,3.3371,3.4097,3.4871,3.583,3.6658,3.7486,3.7638,3.878,3.9763,4.003,4.0691,4.1103,4.1428,4.1525,4.1569,4.1283,4.1047,4.1105,4.122,4.1215,4.1308,4.1702,4.2228,4.2933,4.3611,4.4422,4.5062,4.5234,4.5494,4.5424,4.5233,4.5197,4.5123,4.4906,4.4797,4.4923,4.5155,4.5682,4.6621,4.7804,4.8556,4.9275,5.0171,5.0893,5.1052,5.121,5.1349,5.1538,5.1589,5.1589,5.164,5.2088,5.282,5.3974,5.5246,5.4785,5.3847,5.305,5.2519,5.3016,5.346,5.3798,5.4456,1.4705,1.441,1.4545,1.4122,1.347,1.3397,1.3397,1.3324,1.3258,1.2973,1.2599,1.2231,1.2077,1.2372,1.3317,1.4114,1.4625,1.5434,1.5805,1.5876,1.6008,1.6079,1.6211,1.6351,1.656,1.6908,1.7254,1.7413,1.7901,1.841,1.8881,1.946,2.0565,2.1511,2.2551,2.3663,2.4731,2.58,2.6615,2.713,2.7386,2.7554,2.7575,2.761,2.7875,2.7925,2.8024,2.8334,2.8966,2.9643,2.9768,3.0717,3.2333,3.3381,3.4346,3.5287,3.6246,3.7075,3.7667,3.8713,3.9551,4.0057,4.0496,4.0638,4.0943,4.11,4.1007,4.0819,4.0685,4.0603,4.0772,4.0909,4.1229,4.1518,4.2253,4.2997,4.3769,4.4542,4.4849,4.4964,4.4995,4.4995,4.494,4.4995,4.494,4.4776,4.4648,4.472,4.4827,4.5166,4.6227,4.7441,4.8159,4.8771,4.9701,5.0474,5.064,5.0731,5.0874,5.1052,5.1263,5.1405,5.1441,5.2218,5.319,5.4352,5.5366,5.4816,5.4024,5.3282,5.2807,5.3165,5.3563,5.3725,5.4559,1.4065,1.3492,1.3848,1.3324,1.2378,1.2378,1.2378,1.2378,1.29,1.2893,1.2519,1.2378,1.2083,1.215,1.3178,1.3905,1.4561,1.5292,1.5805,1.5805,1.5876,1.5876,1.5876,1.5876,1.6211,1.6412,1.6691,1.7116,1.7503,1.7935,1.8448,1.9217,1.9672,2.0461,2.163,2.3187,2.4314,2.5095,2.6022,2.6723,2.7202,2.7424,2.7554,2.7575,2.761,2.761,2.771,2.7925,2.8186,2.8317,2.8773,2.9735,3.1451,3.2914,3.3941,3.4872,3.5813,3.6726,3.7582,3.8573,3.9278,3.9733,4.007,4.0171,4.0451,4.0693,4.0597,4.0451,4.0334,4.0268,4.037,4.0521,4.0741,4.1339,4.2142,4.2908,4.3778,4.4392,4.4678,4.4776,4.4776,4.4737,4.4737,4.4776,4.4776,4.4626,4.457,4.457,4.4671,4.4868,4.5796,4.7102,4.77,4.838,4.9407,5.0022,5.0154,5.0268,5.0324,5.0345,5.0404,5.0829,5.1304,5.2179,5.3107,5.4163,5.4933,5.4517,5.4179,5.3696,5.3364,5.3457,5.3629,5.3672,5.4535,1.3112,1.2826,1.2746,1.2519,1.2305,1.2305,1.2305,1.2305,1.2445,1.2378,1.2077,1.2305,1.2298,1.2077,1.3171,1.3833,1.4346,1.5221,1.5735,1.5805,1.5805,1.5805,1.5805,1.5805,1.6008,1.6211,1.6482,1.683,1.7354,1.7629,1.7846,1.8423,1.9102,2.0144,2.0705,2.2433,2.3727,2.4274,2.5487,2.6351,2.6983,2.7263,2.7418,2.7543,2.7569,2.7599,2.7634,2.769,2.794,2.8201,2.874,3.0033,3.1789,3.2843,3.3734,3.4578,3.5578,3.6501,3.7357,3.8175,3.895,3.9282,3.9575,3.9816,4.002,4.0271,4.032,4.0171,4.007,4.002,4.0037,4.0138,4.0375,4.1186,4.198,4.2878,4.3741,4.4164,4.4536,4.457,4.457,4.457,4.457,4.457,4.457,4.457,4.457,4.4621,4.4693,4.4879,4.5513,4.6616,4.7198,4.7926,4.895,4.9453,4.9436,4.9598,4.9639,4.9664,4.9612,5.0383,5.1156,5.2052,5.2995,5.3957,5.4582,5.4589,5.426,5.3914,5.3688,5.3696,5.3445,5.346,5.4507,1.2439,1.2077,1.2077,1.215,1.2305,1.2305,1.2305,1.2305,1.2599,1.2599,1.2372,1.2452,1.2378,1.2372,1.3397,1.3833,1.4346,1.5292,1.5664,1.5805,1.5805,1.5805,1.5805,1.5805,1.5876,1.6079,1.6272,1.6691,1.7254,1.7491,1.7716,1.8041,1.8965,1.9553,1.9923,2.1577,2.2802,2.3301,2.476,2.5792,2.6552,2.686,2.7357,2.7563,2.7583,2.7586,2.772,2.7748,2.774,2.8193,2.8767,3.0054,3.1543,3.2655,3.3568,3.4534,3.5495,3.6389,3.7037,3.7738,3.8408,3.8662,3.8723,3.8832,3.9119,3.9368,3.9885,3.9799,3.9764,3.9713,3.9816,3.9934,4.0165,4.0766,4.1839,4.2844,4.3707,4.4401,4.457,4.457,4.457,4.457,4.457,4.457,4.457,4.457,4.457,4.4491,4.4579,4.4926,4.5613,4.6257,4.6858,4.7617,4.8579,4.8781,4.8656,4.8748,4.8961,4.8917,4.8956,5.0102,5.1106,5.1731,5.2558,5.3639,5.4119,5.4222,5.4397,5.4188,5.3953,5.3867,5.358,5.3283,5.3919,1.1842,1.1484,1.1632,1.1929,1.2231,1.2305,1.2305,1.2378,1.282,1.3193,1.3185,1.2673,1.2826,1.3339,1.3912,1.4057,1.4561,1.5363,1.5726,1.5805,1.5805,1.5876,1.5867,1.5867,1.5938,1.6079,1.6211,1.6621,1.7176,1.7285,1.7494,1.7754,1.8131,1.8508,1.9329,2.0381,2.1502,2.2432,2.361,2.4772,2.5613,2.639,2.7047,2.7395,2.7527,2.7588,2.7788,2.7854,2.7652,2.821,2.9027,3.0463,3.1618,3.2725,3.3523,3.4515,3.5272,3.6012,3.6627,3.7186,3.7584,3.7748,3.769,3.7863,3.8206,3.8652,3.9156,3.9348,3.9312,3.9451,3.9556,3.964,3.9897,4.0641,4.177,4.28,4.3715,4.444,4.444,4.444,4.4384,4.4384,4.4423,4.4423,4.444,4.4457,4.4474,4.4337,4.4415,4.493,4.5602,4.6175,4.6713,4.7486,4.8289,4.8211,4.8033,4.8081,4.8161,4.8115,4.8413,4.9624,5.0574,5.1111,5.1967,5.3111,5.3598,5.3749,5.396,5.4183,5.4033,5.3781,5.3481,5.3267,5.3178,1.118,1.1626,1.1706,1.1929,1.2231,1.2305,1.2305,1.2305,1.2452,1.2966,1.355,1.3339,1.3339,1.3912,1.4482,1.4697,1.4768,1.5497,1.5726,1.5805,1.5876,1.5938,1.6,1.6,1.614,1.6211,1.6281,1.6551,1.6959,1.7038,1.7245,1.7552,1.8312,1.8655,1.8849,1.9884,2.0997,2.1632,2.2463,2.3676,2.4743,2.564,2.6733,2.7138,2.7551,2.7513,2.7588,2.7847,2.7795,2.8241,2.9355,3.0896,3.2167,3.3066,3.3819,3.4454,3.5202,3.56,3.6183,3.6522,3.6845,3.7055,3.7115,3.7294,3.7573,3.7863,3.8262,3.8374,3.8518,3.899,3.9098,3.9206,3.9478,4.0882,4.2112,4.2915,4.3706,4.3931,4.3931,4.3756,4.3654,4.3722,4.3814,4.3848,4.3873,4.3889,4.3948,4.3931,4.4454,4.5019,4.556,4.606,4.6618,4.7243,4.7919,4.7754,4.7555,4.7555,4.7554,4.7718,4.8245,4.922,5.0033,5.0631,5.1625,5.2754,5.3111,5.3264,5.3466,5.3632,5.3749,5.3664,5.3345,5.3045,5.2838]},{"header":{"parameterUnit":"m.s-1","parameterCategory":1,"la1":31.0,"la2":29.5877,"lo1":-88.7671,"lo2":-86.6584,"dy":0.0162,"dx":0.0185,"nx":115,"ny":88,"refTime":"2024-08-05T06:00:00:Z","depth":0,"parameterNumber":3,"parameterNumberName":"V-component_of_WINDS"},"data":[0.0,0.0,0.0,0.0,0.0,0.0,0.0,0.0,0.0,0.0,0.0,0.0,0.0,0.0,0.0,0.0,0.0,0.0,0.0,0.0,0.0,0.0,0.0,0.0,0.0,0.0,0.0,0.0,0.0,0.0,0.0,0.0,0.0,0.0,0.0,0.0,0.0,0.0,0.0,0.0,0.0,0.0,0.0,0.0,0.0,0.0,0.0,0.0,0.0,0.0,0.0,0.0,0.0,0.0,0.0,0.0,0.0,0.0,0.0,0.0,0.0,0.0,0.0,0.0,0.0,0.0,0.0,0.0,0.0,0.0,0.0,0.0,0.0,0.0,0.0,0.0,0.0,0.0,0.0,0.0,0.0,0.0,0.0,0.0,0.0,0.0,0.0,0.0,0.0,0.0,0.0,0.0,0.0,0.0,0.0,0.0,0.0,0.0,0.0,0.0,0.0,0.0,0.0,0.0,0.0,0.0,0.0,0.0,0.0,0.0,0.0,0.0,0.0,0.0,0.0,0.0,0.0,0.0,0.0,0.0,0.0,0.0,0.0,0.0,0.0,0.0,0.0,0.0,0.0,0.0,0.0,0.0,0.0,0.0,0.0,0.0,0.0,0.0,0.0,0.0,0.0,0.0,0.0,0.0,0.0,0.0,0.0,0.0,0.0,0.0,0.0,0.0,0.0,0.0,0.0,0.0,0.0,0.0,0.0,0.0,0.0,0.0,0.0,0.0,0.0,0.0,0.0,0.0,0.0,0.0,0.0,0.0,0.0,0.0,0.0,0.0,0.0,0.0,0.0,0.0,0.0,0.0,0.0,0.0,0.0,0.0,0.0,0.0,0.0,0.0,0.0,0.0,0.0,0.0,0.0,0.0,0.0,0.0,0.0,0.0,0.0,0.0,0.0,0.0,0.0,0.0,0.0,0.0,0.0,0.0,0.0,0.0,0.0,0.0,0.0,0.0,0.0,0.0,0.0,0.0,0.0,0.0,0.0,0.0,0.0,0.0,0.0,0.0,0.0,0.0,0.0,0.0,0.0,0.0,0.0,0.0,0.0,0.0,0.0,0.0,0.0,0.0,0.0,0.0,0.0,0.0,0.0,0.0,0.0,0.0,0.0,0.0,0.0,0.0,0.0,0.0,0.0,0.0,0.0,0.0,0.0,0.0,0.0,0.0,0.0,0.0,0.0,0.0,0.0,0.0,0.0,0.0,0.0,0.0,0.0,0.0,0.0,0.0,0.0,0.0,0.0,0.0,0.0,0.0,0.0,0.0,0.0,0.0,0.0,0.0,0.0,0.0,0.0,0.0,0.0,0.0,0.0,0.0,0.0,0.0,0.0,0.0,0.0,0.0,0.0,0.0,0.0,0.0,0.0,0.0,0.0,0.0,0.0,0.0,0.0,0.0,0.0,0.0,0.0,0.0,0.0,0.0,0.0,0.0,0.0,0.0,0.0,0.0,0.0,0.0,0.0,0.0,0.0,0.0,0.0,0.0,0.0,0.0,0.0,0.0,0.0,0.0,0.0,0.0,0.0,0.0,0.0,0.0,0.0,0.0,0.0,0.0,0.0,0.0,0.0,0.0,0.0,0.0,0.0,0.0,0.0,0.0,0.0,0.0,0.0,0.0,0.0,0.0,0.0,0.0,0.0,0.0,0.0,0.0,0.0,0.0,0.0,0.0,0.0,0.0,0.0,0.0,0.0,0.0,0.0,0.0,0.0,0.0,0.0,0.0,0.0,0.0,0.0,0.0,0.0,0.0,0.0,0.0,0.0,0.0,0.0,0.0,0.0,0.0,0.0,0.0,0.0,0.0,0.0,0.0,0.0,0.0,0.0,0.0,0.0,0.0,0.0,0.0,0.0,0.0,0.0,0.0,0.0,0.0,0.0,0.0,0.0,0.0,0.0,0.0,0.0,0.0,0.0,0.0,0.0,0.0,0.0,0.0,0.0,0.0,0.0,0.0,0.0,0.0,0.0,0.0,0.0,0.0,0.0,0.0,0.0,0.0,0.0,0.0,0.0,0.0,0.0,0.0,0.0,0.0,0.0,0.0,0.0,0.0,0.0,0.0,0.0,0.0,0.0,0.0,0.0,0.0,0.0,0.0,0.0,0.0,0.0,0.0,0.0,0.0,0.0,0.0,0.0,0.0,0.0,0.0,0.0,0.0,0.0,0.0,0.0,0.0,0.0,0.0,0.0,0.0,0.0,0.0,0.0,0.0,0.0,0.0,0.0,0.0,0.0,0.0,0.0,0.0,0.0,0.0,0.0,0.0,0.0,0.0,0.0,0.0,0.0,0.0,0.0,0.0,0.0,0.0,0.0,0.0,0.0,0.0,0.0,0.0,0.0,0.0,0.0,0.0,0.0,0.0,0.0,0.0,0.0,0.0,0.0,0.0,0.0,0.0,0.0,0.0,0.0,0.0,0.0,0.0,0.0,0.0,0.0,0.0,0.0,0.0,0.0,0.0,0.0,0.0,0.0,0.0,0.0,0.0,0.0,0.0,0.0,0.0,0.0,0.0,0.0,0.0,0.0,0.0,0.0,0.0,0.0,0.0,0.0,0.0,0.0,0.0,0.0,0.0,0.0,0.0,0.0,0.0,0.0,0.0,0.0,0.0,0.0,0.0,0.0,0.0,0.0,0.0,0.0,0.0,0.0,0.0,0.0,0.0,0.0,0.0,0.0,0.0,0.0,0.0,0.0,0.0,0.0,0.0,0.0,0.0,0.0,0.0,0.0,0.0,0.0,0.0,0.0,0.0,0.0,0.0,0.0,0.0,0.0,0.0,0.0,0.0,0.0,0.0,0.0,0.0,0.0,0.0,0.0,0.0,0.0,0.0,0.0,0.0,0.0,0.0,0.0,0.0,0.0,0.0,0.0,0.0,0.0,0.0,0.0,0.0,0.0,0.0,0.0,0.0,0.0,0.0,0.0,0.0,0.0,0.0,0.0,0.0,0.0,0.0,0.0,0.0,0.0,0.0,0.0,0.0,0.0,0.0,0.0,0.0,0.0,0.0,0.0,0.0,0.0,0.0,0.0,0.0,0.0,0.0,0.0,0.0,0.0,0.0,0.0,0.0,0.0,0.0,0.0,0.0,0.0,0.0,0.0,0.0,0.0,0.0,0.0,0.0,0.0,0.0,0.0,0.0,0.0,0.0,0.0,0.0,0.0,0.0,0.0,0.0,0.0,0.0,0.0,0.0,0.0,0.0,0.0,0.0,0.0,0.0,0.0,0.0,0.0,0.0,0.0,0.0,0.0,0.0,0.0,0.0,0.0,0.0,0.0,0.0,0.0,0.0,0.0,0.0,0.0,0.0,0.0,0.0,0.0,0.0,0.0,0.0,0.0,0.0,0.0,0.0,0.0,0.0,0.0,0.0,0.0,0.0,0.0,0.0,0.0,0.0,0.0,0.0,0.0,0.0,0.0,0.0,0.0,0.0,0.0,0.0,0.0,0.0,0.0,0.0,0.0,0.0,0.0,0.0,0.0,0.0,0.0,0.0,0.0,0.0,0.0,0.0,0.0,0.0,0.0,0.0,0.0,0.0,0.0,0.0,0.0,0.0,0.0,0.0,0.0,0.0,0.0,0.0,0.0,0.0,0.0,0.0,0.0,0.0,0.0,0.0,0.0,0.0,0.0,0.0,0.0,0.0,0.0,0.0,0.0,0.0,0.0,0.0,0.0,0.0,0.0,0.0,0.0,0.0,0.0,0.0,0.0,0.0,0.0,0.0,0.0,0.0,0.0,0.0,0.0,0.0,0.0,0.0,0.0,0.0,0.0,0.0,0.0,0.0,0.0,0.0,0.0,0.0,0.0,0.0,0.0,0.0,0.0,0.0,0.0,0.0,0.0,0.0,0.0,0.0,0.0,0.0,0.0,0.0,0.0,0.0,0.0,0.0,0.0,0.0,0.0,0.0,0.0,0.0,0.0,0.0,0.0,0.0,0.0,0.0,0.0,0.0,0.0,0.0,0.0,0.0,0.0,0.0,0.0,0.0,0.0,0.0,0.0,0.0,0.0,0.0,0.0,0.0,0.0,0.0,0.0,0.0,0.0,0.0,0.0,0.0,0.0,0.0,0.0,0.0,0.0,0.0,0.0,0.0,0.0,0.0,0.0,0.0,0.0,0.0,0.0,0.0,0.0,0.0,0.0,0.0,0.0,0.0,0.0,0.0,0.0,0.0,0.0,0.0,0.0,0.0,0.0,0.0,0.0,0.0,0.0,0.0,0.0,0.0,0.0,0.0,0.0,0.0,0.0,0.0,0.0,0.0,0.0,0.0,-0.3583,0.0,0.0,0.0,0.0,0.0,0.0,0.0,0.0,0.0,0.0,0.0,0.0,0.0,0.0,0.0,0.0,0.0,0.0,0.0,0.0,0.0,0.0,0.0,0.0,0.0,0.0,0.0,0.0,0.0,0.0,0.0,0.0,0.0,0.0,0.0,0.0,0.0,0.0,0.0,0.0,0.0,0.0,0.0,0.0,0.0,0.0,0.0,0.0,0.0,0.0,0.0,0.0,0.0,0.0,0.0,0.0,0.0,0.0,0.0,0.0,0.0,0.0,0.0,0.0,0.0,0.0,0.0,0.0,0.0,0.0,0.0,0.0,0.0,0.0,0.0,0.0,0.0,0.0,0.0,0.0,0.0,0.0,0.0,0.0,0.0,0.0,0.0,0.0,0.0,0.0,0.0,0.0,0.0,0.0,0.0,0.0,0.0,0.0,0.0,0.0,0.0,0.0,0.0,0.0,0.0,0.0,0.0,0.0,0.0,0.0,-0.4884,-0.5098,-0.4772,-0.4318,-0.3726,0.0,0.0,0.0,0.0,0.0,0.0,0.0,0.0,0.0,0.0,0.0,0.0,0.0,0.0,0.0,0.0,0.0,0.0,0.0,0.0,0.0,0.0,0.0,0.0,0.0,0.0,0.0,0.0,0.0,0.0,0.0,0.0,0.0,0.0,0.0,0.0,0.0,0.0,0.0,0.0,0.0,0.0,0.0,0.0,0.0,0.0,0.0,0.0,0.0,0.0,0.0,0.0,0.0,0.0,0.0,0.0,0.0,0.0,0.0,0.0,0.0,0.0,0.0,0.0,0.0,0.0,0.0,0.0,0.0,0.0,0.0,0.0,0.0,0.0,0.0,0.0,0.0,0.0,0.0,0.0,0.0,0.0,0.0,0.0,0.0,0.0,0.0,0.0,0.0,0.0,0.0,0.0,0.0,0.0,0.0,0.0,0.0,0.0,0.0,0.0,0.0,0.0,0.0,0.0,0.0,0.0,0.0,0.0,0.0,0.0,0.0,0.0,-0.4866,-0.4383,-0.3647,0.0,0.0,0.0,0.0,0.0,0.0,0.0,0.0,0.0,0.0,0.0,0.0,0.0,0.0,0.0,0.0,0.0,0.0,0.0,0.0,0.0,0.0,0.0,0.0,0.0,0.0,0.0,0.0,0.0,0.0,0.0,0.0,0.0,0.0,0.0,0.0,0.0,0.0,0.0,0.0,0.0,0.0,0.0,0.0,0.0,0.0,0.0,0.0,0.0,0.0,0.0,0.0,0.0,0.0,0.0,0.0,0.0,0.0,0.0,0.0,0.0,0.0,0.0,0.0,0.0,0.0,0.0,0.0,0.0,0.0,0.0,0.0,0.0,0.0,0.0,0.0,0.0,0.0,0.0,0.0,0.0,0.0,0.0,0.0,0.0,0.0,0.0,0.0,0.0,0.0,0.0,0.0,0.0,0.0,0.0,0.0,0.0,0.0,0.0,0.0,0.0,0.0,0.0,0.0,0.0,0.0,0.0,0.0,0.0,0.0,-0.4316,-0.5059,-0.5135,0.0,-0.2937,0.0,0.0,0.0,0.0,0.0,0.0,0.0,0.0,0.0,0.0,0.0,0.0,0.0,0.0,0.0,0.0,0.0,0.0,0.0,0.0,0.0,0.0,0.0,0.0,0.0,0.0,0.0,0.0,0.0,0.0,0.0,0.0,0.0,0.0,0.0,0.0,0.0,0.0,0.0,0.0,0.0,0.0,0.0,0.0,0.0,0.0,0.0,0.0,0.0,0.0,0.0,0.0,0.0,0.0,0.0,0.0,0.0,0.0,0.0,0.0,0.0,0.0,0.0,0.0,0.0,0.0,0.0,0.0,0.0,0.0,0.0,0.0,0.0,0.0,0.0,0.0,0.0,0.0,0.0,0.0,0.0,0.0,0.0,0.0,0.0,0.0,0.0,0.0,0.0,0.0,0.0,0.0,0.0,0.0,0.0,0.0,0.0,0.0,0.0,0.0,0.0,0.0,0.0,0.0,0.0,0.0,0.0,0.0,0.0,0.0,0.0,-0.5088,-0.4735,-0.3958,0.0,0.0,0.0,0.0,0.0,0.0,0.0,0.0,0.0,0.0,0.0,0.0,0.0,0.0,0.0,0.0,0.0,0.0,0.0,0.0,0.0,0.0,0.0,0.0,0.0,0.0,0.0,0.0,0.0,0.0,0.0,0.0,0.0,0.0,0.0,0.0,0.0,0.0,0.0,0.0,0.0,0.0,0.0,0.0,0.0,0.0,0.0,0.0,0.0,0.0,0.0,0.0,0.0,0.0,0.0,0.0,0.0,0.0,0.0,0.0,0.0,0.0,0.0,0.0,0.0,0.0,0.0,0.0,0.0,0.0,0.0,0.0,0.0,0.0,0.0,0.0,0.0,0.0,0.0,0.0,0.0,0.0,0.0,0.0,0.0,0.0,0.0,0.0,0.0,0.0,0.0,0.0,0.0,0.0,0.0,0.0,0.0,0.0,0.0,0.0,0.0,0.0,0.0,0.0,0.0,0.0,0.0,0.0,0.0,0.0,-0.4297,0.0,-0.4827,-0.4324,-0.3575,-0.2662,0.0,0.0,0.0,0.0,0.0,0.0,0.0,0.0,0.0,0.0,0.0,0.0,0.0,0.0,0.0,0.0,0.0,0.0,0.0,0.0,0.0,0.0,0.0,0.0,0.0,0.0,0.0,0.0,0.0,0.0,0.0,0.0,0.0,0.0,0.0,0.0,0.0,0.0,0.0,0.0,0.0,0.0,0.0,0.0,0.0,0.0,0.0,0.0,0.0,0.0,0.0,0.0,0.0,0.0,0.0,0.0,0.0,0.0,0.0,0.0,0.0,0.0,0.0,0.0,0.0,0.0,0.0,0.0,0.0,0.0,0.0,0.0,0.0,0.0,0.0,0.0,0.0,0.0,0.0,0.0,0.0,0.0,0.0,0.0,0.0,0.0,0.0,0.0,0.0,0.0,0.0,0.0,0.0,0.0,0.0,0.0,0.0,0.0,0.0,0.0,0.0,0.0,0.0,0.0,0.0,0.0,0.0,0.0,0.0,-0.4297,-0.4051,-0.4345,-0.4053,-0.3438,0.0,0.0,0.0,0.0,0.0,0.0,0.0,0.0,0.0,0.0,0.0,0.0,0.0,0.0,0.0,0.0,0.0,0.0,0.0,0.0,0.0,0.0,0.0,0.0,0.0,0.0,0.0,0.0,0.0,0.0,0.0,0.0,0.0,0.0,0.0,0.0,0.0,0.0,0.0,0.0,0.0,0.0,0.0,0.0,0.0,0.0,0.0,0.0,0.0,0.0,0.0,0.0,0.0,0.0,0.0,0.0,0.0,0.0,0.0,0.0,0.0,0.0,0.0,0.0,0.0,0.0,0.0,0.0,0.0,0.0,0.0,0.0,0.0,0.0,0.0,0.0,0.0,0.0,0.0,0.0,0.0,0.0,0.0,0.0,0.0,0.0,0.0,0.0,0.0,0.0,0.0,0.0,0.0,0.0,0.0,0.0,0.0,0.0,0.0,0.0,0.0,0.0,0.0,0.0,0.0,0.0,0.0,0.0,0.0,-0.3463,-0.3655,-0.4114,0.0,-0.396,-0.3253,0.0,0.0,0.0,0.0,0.0,0.0,0.0,0.0,0.0,0.0,0.0,0.0,0.0,0.0,0.0,0.0,0.0,0.0,0.0,0.0,0.0,0.0,0.0,0.0,0.0,0.0,0.0,0.0,0.0,0.0,0.0,0.0,0.0,0.0,0.0,0.0,0.0,0.0,0.0,0.0,0.0,0.0,0.0,0.0,0.0,0.0,0.0,0.0,0.0,0.0,0.0,0.0,0.0,0.0,0.0,0.0,0.0,0.0,0.0,0.0,0.0,0.0,0.0,0.0,0.0,0.0,0.0,0.0,0.0,0.0,0.0,0.0,0.0,0.0,0.0,0.0,0.0,0.0,0.0,0.0,0.0,0.0,0.0,0.0,0.0,0.0,0.0,0.0,0.0,0.0,0.0,0.0,0.0,0.0,0.0,0.0,0.0,0.0,0.0,0.0,0.0,0.0,0.0,0.0,0.0,0.0,0.0,0.0,0.0,-0.3405,0.0,-0.4599,0.0,-0.3913,-0.3072,0.0,0.0,0.0,0.0,0.0,0.0,0.0,0.0,0.0,0.0,0.0,0.0,0.0,0.0,0.0,0.0,0.0,0.0,0.0,0.0,0.0,0.0,0.0,0.0,0.0,0.0,0.0,0.0,0.0,0.0,0.0,0.0,0.0,0.0,0.0,0.0,0.0,0.0,0.0,0.0,0.0,0.0,0.0,0.0,0.0,0.0,0.0,0.0,0.0,0.0,0.0,0.0,0.0,0.0,0.0,0.0,0.0,0.0,0.0,0.0,0.0,0.0,0.0,0.0,0.0,0.0,0.0,0.0,0.0,0.0,0.0,0.0,0.0,0.0,0.0,0.0,0.0,0.0,0.0,0.0,0.0,0.0,0.0,0.0,0.0,0.0,0.0,0.0,0.0,0.0,0.0,0.0,0.0,0.0,0.0,0.0,0.0,0.0,0.0,0.0,0.0,0.0,0.0,0.0,0.0,0.0,0.0,0.0,-0.3424,-0.4972,-0.5443,-0.5302,-0.4709,-0.3873,-0.2869,0.0,0.0,0.0,0.0,0.0,0.0,0.0,0.0,0.0,0.0,0.0,0.0,0.0,0.0,0.0,0.0,0.0,0.0,0.0,0.0,0.0,0.0,0.0,0.0,0.0,0.0,0.0,0.0,0.0,0.0,0.0,0.0,0.0,0.0,0.0,0.0,0.0,0.0,0.0,0.0,0.0,0.0,0.0,0.0,0.0,0.0,0.0,0.0,0.0,0.0,0.0,0.0,0.0,0.0,0.0,0.0,0.0,0.0,0.0,0.0,0.0,0.0,0.0,0.0,0.0,0.0,0.0,0.0,0.0,0.0,0.0,0.0,0.0,0.0,0.0,0.0,0.0,0.0,0.0,0.0,0.0,0.0,0.0,0.0,0.0,0.0,0.0,0.0,0.0,0.0,0.0,0.0,0.0,0.0,0.0,0.0,0.0,0.0,0.0,0.0,0.0,0.0,0.0,0.0,0.0,0.0,0.0,0.0,0.0,-0.3981,-0.4237,-0.4325,-0.4195,-0.3353,-0.2654,0.0,0.0,0.0,0.0,0.0,0.0,0.0,0.0,0.0,0.0,0.0,0.0,0.0,0.0,0.0,0.0,0.0,0.0,0.0,0.0,0.0,0.0,0.0,0.0,0.0,0.0,0.0,0.0,0.0,0.0,0.0,0.0,0.0,0.0,0.0,0.0,0.0,0.0,0.0,0.0,0.0,0.0,0.0,0.0,0.0,0.0,0.0,0.0,0.0,0.0,0.0,0.0,0.0,0.0,0.0,0.0,0.0,0.0,0.0,0.0,0.0,0.0,0.0,0.0,0.0,0.0,0.0,0.0,0.0,0.0,0.0,0.0,0.0,0.0,0.0,0.0,0.0,0.0,0.0,0.0,0.0,0.0,0.0,0.0,0.0,0.0,0.0,0.0,0.0,0.0,0.0,0.0,0.0,0.0,0.0,0.0,0.0,0.0,0.0,0.0,0.0,0.0,0.0,0.0,0.0,0.0,0.0,0.0,0.0,-0.4023,-0.4269,-0.4409,-0.4351,-0.3338,-0.2597,-0.2167,0.0,0.0,0.0,0.0,0.0,0.0,0.0,0.0,0.0,0.0,0.0,0.0,0.0,0.0,0.0,0.0,0.0,0.0,0.0,0.0,0.0,0.0,0.0,0.0,0.0,0.0,0.0,0.0,0.0,0.0,0.0,0.0,0.0,0.0,0.0,0.0,0.0,0.0,0.0,0.0,0.0,0.0,0.0,0.0,0.0,0.0,0.0,0.0,0.0,0.0,0.0,0.0,0.0,0.0,0.0,0.0,0.0,0.0,0.0,0.0,0.0,0.0,0.0,0.0,0.0,0.0,0.0,0.0,0.0,0.0,0.0,0.0,0.0,0.0,0.0,0.0,0.0,0.0,0.0,0.0,0.0,0.0,0.0,0.0,0.0,0.0,0.0,0.0,0.0,0.0,0.0,0.0,0.0,0.0,0.0,0.0,0.0,0.0,0.0,0.0,0.0,0.0,0.0,0.0,0.0,0.0,0.0,0.0,-0.4798,-0.5287,-0.5345,-0.4928,-0.3734,-0.269,0.0,0.0,0.0,0.0,0.0,0.0,0.0,0.0,0.0,0.0,0.0,0.0,0.0,0.0,0.0,0.0,0.0,0.0,0.0,0.0,0.0,0.0,0.0,0.0,0.0,0.0,0.0,0.0,0.0,0.0,0.0,0.0,0.0,0.0,0.0,0.0,0.0,0.0,0.0,0.0,0.0,0.0,0.0,0.0,0.0,0.0,0.0,0.0,0.0,0.0,0.0,0.0,0.0,0.0,0.0,0.0,0.0,0.0,0.0,0.0,0.0,0.0,0.0,0.0,0.0,0.0,0.0,0.0,0.0,0.0,0.0,0.0,0.0,0.0,0.0,0.0,0.0,0.0,0.0,0.0,0.0,0.0,0.0,0.0,0.0,0.0,0.0,0.0,0.0,0.0,0.0,0.0,0.0,0.0,0.0,0.0,0.0,0.0,0.0,0.0,0.0,0.0,0.0,0.0,0.0,0.0,0.0,0.0,0.0,-0.4803,-0.5215,-0.5055,-0.4285,-0.3409,-0.2641,0.0,0.0,0.0,0.0,0.0,0.0,0.0,0.0,0.0,0.0,0.0,0.0,0.0,0.0,0.0,0.0,0.0,0.0,0.0,0.0,0.0,0.0,0.0,0.0,0.0,0.0,0.0,0.0,0.0,0.0,0.0,0.0,0.0,0.0,0.0,0.0,0.0,0.0,0.0,0.0,0.0,0.0,0.0,0.0,0.0,0.0,0.0,0.0,0.0,0.0,0.0,0.0,0.0,0.0,0.0,0.0,0.0,0.0,0.0,0.0,0.0,0.0,0.0,0.0,0.0,0.0,0.0,0.0,0.0,0.0,0.0,0.0,0.0,0.0,0.0,0.0,0.0,0.0,0.0,0.0,0.0,0.0,0.0,0.0,0.0,0.0,0.0,0.0,0.0,0.0,0.0,0.0,0.0,0.0,0.0,0.0,0.0,0.0,0.0,0.0,0.0,0.0,0.0,0.0,0.0,0.0,0.0,0.0,-0.5278,-0.5014,-0.5409,-0.5166,-0.4202,-0.3458,-0.2832,0.0,0.0,0.0,0.0,0.0,0.0,0.0,0.0,0.0,0.0,0.0,0.0,0.0,0.0,0.0,0.0,0.0,0.0,0.0,0.0,0.0,0.0,0.0,0.0,0.0,0.0,0.0,0.0,0.0,0.0,0.0,0.0,0.0,0.0,0.0,0.0,0.0,0.0,0.0,0.0,0.0,0.0,0.0,0.0,0.0,0.0,0.0,0.0,0.0,0.0,0.0,0.0,0.0,0.0,0.0,0.0,0.0,0.0,0.0,0.0,0.0,0.0,0.0,0.0,0.0,0.0,0.0,0.0,0.0,0.0,0.0,0.0,0.0,0.0,0.0,0.0,0.0,0.0,0.0,0.0,0.0,0.0,0.0,0.0,0.0,0.0,0.0,0.0,0.0,0.0,0.0,0.0,0.0,0.0,0.0,0.0,0.0,0.0,0.0,0.0,0.0,0.0,0.0,0.0,0.0,0.0,0.0,0.0,-0.583,-0.5214,-0.5681,-0.5413,-0.4432,-0.3671,-0.3071,0.0,0.0,0.0,0.0,0.0,0.0,0.0,0.0,0.0,0.0,0.0,0.0,0.0,0.0,0.0,0.0,0.0,0.0,0.0,0.0,0.0,0.0,0.0,0.0,0.0,0.0,0.0,0.0,0.0,0.0,0.0,0.0,0.0,0.0,0.0,0.0,0.0,0.0,0.0,0.0,0.0,0.0,0.0,0.0,0.0,0.0,0.0,0.0,0.0,0.0,0.0,0.0,0.0,0.0,0.0,0.0,0.0,0.0,0.0,0.0,0.0,0.0,0.0,0.0,0.0,0.0,0.0,0.0,0.0,0.0,0.0,0.0,0.0,0.0,0.0,0.0,0.0,0.0,0.0,0.0,0.0,0.0,0.0,0.0,0.0,0.0,0.0,0.0,0.0,0.0,0.0,0.0,0.0,0.0,0.0,0.0,0.0,0.0,0.0,0.0,0.0,0.0,0.0,0.0,0.0,0.0,0.0,0.0,-0.6089,-0.4571,-0.5475,-0.5454,-0.4341,-0.354,-0.2962,0.0,0.0,0.0,0.0,0.0,0.0,0.0,0.0,0.0,0.0,0.0,0.0,0.0,0.0,0.0,0.0,0.0,0.0,0.0,0.0,0.0,0.0,0.0,0.0,0.0,0.0,0.0,0.0,0.0,0.0,0.0,0.0,0.0,0.0,0.0,0.0,0.0,0.0,0.0,0.0,0.0,0.0,0.0,0.0,0.0,0.0,0.0,0.0,-0.7459,0.0,0.0,0.0,0.0,0.0,0.0,0.0,0.0,0.0,0.0,0.0,0.0,0.0,0.0,0.0,0.0,0.0,0.0,0.0,0.0,0.0,0.0,0.0,0.0,0.0,0.0,0.0,0.0,0.0,0.0,0.0,0.0,0.0,0.0,0.0,0.0,0.0,0.0,0.0,0.0,0.0,0.0,0.0,0.0,0.0,0.0,0.0,0.0,0.0,0.0,0.0,0.0,0.0,0.0,0.0,0.0,0.0,0.0,0.0,-0.6341,-0.5049,-0.5688,-0.5504,-0.4431,-0.3845,-0.3309,0.0,0.0,0.0,0.0,0.0,0.0,0.0,0.0,0.0,0.0,0.0,0.0,0.0,0.0,0.0,0.0,0.0,0.0,0.0,0.0,0.0,0.0,0.0,0.0,0.0,0.0,0.0,0.0,0.0,0.0,0.0,0.0,0.0,0.0,0.0,0.0,0.0,0.0,0.0,0.0,0.0,0.0,0.0,0.0,0.0,0.0,0.0,0.0,0.0,0.0,0.0,0.0,0.0,0.0,0.0,0.0,0.0,0.0,0.0,0.0,0.0,0.0,0.0,0.0,0.0,0.0,0.0,0.0,0.0,0.0,0.0,0.0,0.0,0.0,0.0,0.0,0.0,0.0,0.0,0.0,0.0,0.0,0.0,0.0,0.0,0.0,0.0,0.0,0.0,0.0,0.0,0.0,0.0,0.0,0.0,0.0,0.0,0.0,0.0,0.0,0.0,0.0,0.0,0.0,0.0,0.0,0.0,-0.64,-0.6499,-0.5699,-0.5919,-0.5586,-0.4499,-0.4174,-0.3711,-0.2972,0.0,0.0,0.0,0.0,0.0,0.0,0.0,0.0,0.0,0.0,0.0,0.0,0.0,0.0,0.0,0.0,0.0,0.0,0.0,0.0,0.0,0.0,0.0,0.0,0.0,0.0,0.0,0.0,0.0,0.0,0.0,0.0,0.0,0.0,0.0,0.0,0.0,0.0,-0.6896,-0.6974,0.0,0.0,0.0,0.0,0.0,0.0,0.0,0.0,-0.7669,0.0,0.0,0.0,0.0,0.0,0.0,0.0,0.0,0.0,0.0,0.0,0.0,0.0,0.0,0.0,0.0,0.0,0.0,0.0,0.0,0.0,0.0,0.0,0.0,0.0,0.0,0.0,0.0,0.0,0.0,0.0,0.0,0.0,0.0,0.0,0.0,0.0,0.0,0.0,0.0,0.0,0.0,0.0,0.0,0.0,0.0,0.0,0.0,0.0,0.0,0.0,0.0,0.0,0.0,0.0,0.0,-0.6255,-0.6778,-0.6535,-0.5473,-0.58,-0.5489,-0.4353,-0.3984,-0.3589,-0.3154,0.0,0.0,0.0,0.0,0.0,0.0,0.0,0.0,0.0,0.0,0.0,0.0,0.0,0.0,0.0,0.0,0.0,0.0,0.0,0.0,0.0,0.0,0.0,0.0,0.0,0.0,0.0,0.0,0.0,0.0,0.0,0.0,0.0,0.0,0.0,0.0,0.0,0.0,0.0,-0.8188,-0.8245,0.0,0.0,0.0,0.0,0.0,0.0,0.0,0.0,-0.7558,0.0,0.0,0.0,0.0,0.0,0.0,0.0,0.0,0.0,0.0,0.0,0.0,0.0,0.0,0.0,0.0,0.0,0.0,0.0,0.0,0.0,0.0,0.0,0.0,0.0,0.0,0.0,0.0,0.0,0.0,0.0,0.0,0.0,0.0,0.0,0.0,0.0,0.0,0.0,0.0,0.0,0.0,0.0,0.0,0.0,0.0,0.0,0.0,0.0,0.0,0.0,0.0,0.0,0.0,0.0,-0.6416,-0.7016,-0.679,-0.576,-0.5848,-0.5399,-0.4351,-0.3814,-0.3472,0.0,0.0,0.0,0.0,0.0,0.0,0.0,0.0,0.0,0.0,0.0,0.0,0.0,0.0,0.0,0.0,0.0,0.0,0.0,0.0,0.0,0.0,0.0,0.0,0.0,0.0,0.0,0.0,0.0,0.0,0.0,0.0,0.0,0.0,0.0,0.0,0.0,0.0,0.0,0.0,-0.8535,-0.8666,-0.8948,0.0,0.0,0.0,0.0,0.0,0.0,-0.7953,-0.7752,0.0,0.0,0.0,0.0,0.0,0.0,0.0,0.0,0.0,0.0,0.0,0.0,0.0,0.0,0.0,0.0,0.0,0.0,0.0,0.0,0.0,0.0,0.0,0.0,0.0,0.0,0.0,0.0,0.0,0.0,0.0,0.0,0.0,0.0,0.0,0.0,0.0,0.0,0.0,0.0,0.0,0.0,0.0,0.0,0.0,0.0,0.0,0.0,0.0,0.0,0.0,0.0,0.0,0.0,0.0,-0.6372,-0.7081,-0.6951,-0.6047,-0.5916,-0.5356,-0.4351,-0.3727,-0.3416,0.0,0.0,0.0,0.0,0.0,0.0,0.0,0.0,0.0,0.0,0.0,0.0,0.0,0.0,0.0,0.0,0.0,0.0,0.0,0.0,0.0,0.0,0.0,0.0,0.0,0.0,0.0,0.0,0.0,0.0,0.0,0.0,0.0,0.0,0.0,0.0,0.0,0.0,0.0,0.0,0.0,-0.9055,-0.9836,-0.9492,0.0,0.0,0.0,0.0,-0.8532,-0.8255,0.0,0.0,0.0,0.0,0.0,0.0,0.0,0.0,0.0,0.0,0.0,0.0,0.0,0.0,0.0,0.0,0.0,0.0,0.0,0.0,0.0,0.0,0.0,0.0,0.0,0.0,0.0,0.0,0.0,0.0,0.0,0.0,0.0,0.0,0.0,0.0,0.0,0.0,0.0,0.0,0.0,0.0,0.0,0.0,0.0,0.0,0.0,0.0,0.0,0.0,0.0,0.0,0.0,0.0,0.0,0.0,-0.6356,-0.6868,-0.6768,-0.6077,-0.5996,-0.5432,-0.4316,-0.3826,-0.3411,0.0,0.0,0.0,0.0,0.0,0.0,0.0,0.0,0.0,0.0,0.0,0.0,0.0,0.0,0.0,0.0,0.0,0.0,0.0,0.0,0.0,0.0,0.0,0.0,0.0,0.0,0.0,0.0,0.0,0.0,0.0,0.0,0.0,0.0,0.0,0.0,0.0,0.0,0.0,0.0,0.0,-1.0111,-1.0181,-1.0053,-0.9806,0.0,0.0,-0.8871,-0.8802,-0.8728,0.0,0.0,0.0,0.0,0.0,0.0,0.0,0.0,0.0,0.0,0.0,0.0,0.0,0.0,0.0,0.0,0.0,0.0,0.0,0.0,0.0,0.0,0.0,0.0,0.0,0.0,0.0,0.0,0.0,0.0,0.0,0.0,0.0,0.0,0.0,0.0,0.0,0.0,0.0,0.0,0.0,0.0,0.0,0.0,0.0,0.0,0.0,0.0,0.0,0.0,0.0,0.0,0.0,0.0,0.0,-0.5123,-0.6364,-0.6867,-0.6736,-0.6047,-0.599,-0.548,-0.4316,-0.3751,-0.3405,0.0,0.0,0.0,0.0,0.0,0.0,0.0,0.0,0.0,0.0,0.0,0.0,0.0,0.0,0.0,0.0,0.0,0.0,0.0,0.0,0.0,0.0,0.0,0.0,0.0,0.0,0.0,0.0,0.0,0.0,0.0,0.0,0.0,0.0,0.0,0.0,0.0,0.0,0.0,0.0,0.0,0.0,-0.9728,-0.9709,0.0,0.0,0.0,-0.9166,-0.8733,0.0,0.0,0.0,0.0,0.0,0.0,0.0,0.0,0.0,0.0,0.0,0.0,0.0,0.0,0.0,0.0,0.0,0.0,0.0,0.0,0.0,0.0,0.0,0.0,0.0,0.0,0.0,0.0,0.0,0.0,0.0,0.0,0.0,0.0,0.0,0.0,0.0,0.0,0.0,0.0,0.0,0.0,0.0,0.0,0.0,0.0,0.0,0.0,0.0,0.0,0.0,0.0,0.0,0.0,0.0,0.0,0.0,-0.6358,-0.6849,-0.6803,-0.6228,-0.6076,-0.5518,-0.4526,-0.3797,0.0,0.0,0.0,0.0,0.0,0.0,0.0,0.0,0.0,0.0,0.0,0.0,0.0,0.0,0.0,0.0,0.0,0.0,0.0,0.0,0.0,0.0,0.0,0.0,0.0,0.0,0.0,-0.2738,0.0,0.0,0.0,0.0,0.0,0.0,0.0,0.0,0.0,0.0,0.0,0.0,0.0,0.0,-0.8413,-0.872,-0.8947,-0.9116,0.0,0.0,-0.922,-0.846,-0.7581,-0.7125,0.0,0.0,0.0,0.0,0.0,0.0,0.0,0.0,0.0,0.0,0.0,0.0,0.0,0.0,0.0,0.0,0.0,0.0,0.0,0.0,0.0,0.0,0.0,0.0,0.0,0.0,0.0,0.0,0.0,0.0,0.0,0.0,0.0,0.0,0.0,0.0,0.0,0.0,0.0,0.0,0.0,0.0,0.0,0.0,0.0,0.0,0.0,0.0,0.0,0.0,0.0,0.0,0.0,0.0,0.0,-0.635,-0.6849,-0.6993,-0.682,-0.6289,-0.5696,-0.5048,-0.428,-0.3761,0.0,0.0,0.0,0.0,0.0,0.0,0.0,0.0,0.0,0.0,0.0,0.0,0.0,0.0,0.0,0.0,0.0,0.0,0.0,0.0,0.0,0.0,0.0,0.0,0.0,0.0,0.0,0.0,0.0,0.0,0.0,0.0,0.0,0.0,0.0,0.0,0.0,0.0,0.0,0.0,0.0,-0.8317,-0.6844,-0.7716,-0.8609,0.0,0.0,-0.8809,-0.7741,-0.6422,-0.589,-0.6822,0.0,0.0,0.0,0.0,0.0,0.0,0.0,0.0,0.0,0.0,0.0,0.0,0.0,0.0,0.0,0.0,0.0,0.0,0.0,0.0,0.0,0.0,0.0,0.0,0.0,0.0,0.0,0.0,0.0,0.0,0.0,0.0,0.0,0.0,0.0,0.0,0.0,0.0,0.0,0.0,0.0,0.0,0.0,0.0,0.0,0.0,0.0,0.0,0.0,0.0,0.0,0.0,0.0,-0.4886,-0.6366,-0.6616,-0.6779,-0.6855,-0.6331,-0.569,-0.5101,-0.4173,-0.356,0.0,0.0,0.0,0.0,0.0,0.0,0.0,0.0,0.0,0.0,0.0,0.0,0.0,0.0,0.0,0.0,0.0,0.0,0.0,0.0,0.0,0.0,0.0,0.0,0.0,0.0,0.0,0.0,-0.3478,-0.3518,-0.3979,0.0,0.0,0.0,0.0,0.0,0.0,0.0,0.0,0.0,0.0,-0.7974,-0.691,-0.7578,0.0,0.0,-0.8488,-0.8314,-0.745,-0.6708,-0.6435,-0.7073,-0.7348,0.0,0.0,0.0,0.0,0.0,0.0,0.0,0.0,0.0,0.0,0.0,0.0,0.0,0.0,0.0,0.0,0.0,0.0,0.0,0.0,0.0,0.0,0.0,0.0,0.0,0.0,0.0,0.0,0.0,0.0,0.0,0.0,0.0,0.0,0.0,0.0,0.0,0.0,0.0,0.0,0.0,0.0,0.0,0.0,0.0,0.0,0.0,0.0,0.0,0.0,0.0,0.0,-0.4646,-0.6283,-0.6409,-0.6702,-0.7133,-0.6422,-0.5782,-0.5346,-0.4253,-0.3512,0.0,0.0,0.0,0.0,0.0,0.0,0.0,0.0,0.0,0.0,0.0,0.0,0.0,0.0,0.0,0.0,0.0,0.0,0.0,0.0,0.0,0.0,0.0,0.0,0.0,0.0,0.0,0.0,-0.3546,-0.3521,-0.3995,0.0,0.0,0.0,0.0,0.0,0.0,0.0,0.0,0.0,0.0,-0.7555,-0.7129,-0.7306,-0.7608,-0.7789,-0.778,-0.7491,-0.706,-0.6706,-0.6684,-0.7319,0.0,0.0,0.0,0.0,0.0,0.0,0.0,0.0,0.0,0.0,0.0,0.0,0.0,0.0,0.0,0.0,0.0,0.0,0.0,0.0,0.0,0.0,0.0,0.0,0.0,0.0,0.0,0.0,0.0,0.0,-0.2617,0.0,0.0,0.0,0.0,0.0,0.0,0.0,0.0,0.0,0.0,0.0,0.0,0.0,0.0,0.0,0.0,0.0,0.0,0.0,0.0,0.0,0.0,-0.4468,-0.5975,-0.6313,-0.6869,-0.7607,-0.6598,-0.599,-0.5936,-0.4609,-0.3742,-0.3373,0.0,0.0,0.0,0.0,0.0,0.0,0.0,0.0,0.0,0.0,0.0,0.0,0.0,0.0,0.0,0.0,0.0,0.0,0.0,0.0,0.0,0.0,0.0,0.0,0.0,0.0,-0.3541,-0.3246,-0.3069,0.0,0.0,0.0,0.0,0.0,0.0,0.0,0.0,0.0,0.0,-0.719,-0.7053,-0.7197,-0.6756,-0.6792,-0.7436,-0.6863,-0.63,-0.641,-0.6047,-0.6152,0.0,0.0,0.0,0.0,0.0,0.0,0.0,0.0,0.0,0.0,0.0,0.0,0.0,0.0,0.0,0.0,0.0,0.0,0.0,0.0,0.0,0.0,0.0,0.0,0.0,0.0,0.0,-0.5024,-0.4687,0.0,0.0,0.0,0.0,0.0,0.0,0.0,0.0,0.0,0.0,0.0,-0.7189,-0.748,0.0,0.0,0.0,0.0,0.0,0.0,0.0,0.0,0.0,0.0,0.0,0.0,-0.4679,-0.596,-0.6313,-0.6908,-0.7648,-0.6592,-0.599,-0.599,-0.466,-0.3651,-0.3079,0.0,0.0,0.0,0.0,0.0,0.0,0.0,0.0,0.0,0.0,0.0,0.0,0.0,0.0,0.0,0.0,0.0,0.0,0.0,0.0,0.0,0.0,0.0,0.0,0.0,-0.3023,0.0,0.0,0.0,0.0,0.0,0.0,0.0,0.0,0.0,0.0,0.0,-0.7478,-0.7429,-0.7413,-0.7522,-0.7646,-0.7458,-0.7455,0.0,0.0,0.0,0.0,0.0,0.0,0.0,0.0,0.0,0.0,0.0,0.0,0.0,0.0,-1.2829,-1.2403,-1.2124,-1.2106,-1.2472,0.0,0.0,0.0,0.0,0.0,0.0,0.0,0.0,0.0,0.0,0.0,0.0,0.0,0.0,-0.6049,0.0,-0.5355,0.0,0.0,0.0,0.0,0.0,0.0,0.0,0.0,-0.763,-0.8246,-0.8582,-0.8859,-0.8852,0.0,-0.7381,-0.6223,0.0,0.0,0.0,0.0,0.0,0.0,0.0,0.0,-0.5037,-0.6015,-0.6478,-0.7015,-0.7599,-0.6592,-0.599,-0.599,-0.4642,-0.3644,-0.3,-0.262,-0.2223,0.0,0.0,0.0,0.0,0.0,0.0,0.0,0.0,0.0,0.0,0.0,0.0,0.0,0.0,0.0,0.0,0.0,0.0,0.0,0.0,0.0,0.0,0.0,-0.3094,0.0,0.0,0.0,0.0,0.0,0.0,0.0,0.0,0.0,-0.8189,-0.7819,-0.7554,-0.7792,-0.7604,-0.7548,-0.7943,0.0,0.0,0.0,0.0,0.0,0.0,0.0,-0.6878,-0.815,-1.0248,-1.1705,-1.1588,-1.2012,-1.2505,-1.3114,0.0,0.0,-1.3142,-1.2912,-1.2986,-1.3539,-1.3908,-1.4266,-1.4592,-1.5397,-1.6086,0.0,0.0,0.0,0.0,0.0,0.0,0.0,0.0,-0.6619,-0.687,0.0,-0.6771,0.0,0.0,0.0,0.0,0.0,-0.7058,0.0,0.0,-0.9046,-0.9551,-0.9582,-0.9579,-0.9287,-0.8806,-0.8657,-0.8029,-0.6909,-0.4909,0.0,0.0,0.0,0.0,0.0,0.0,-0.5474,-0.6195,-0.681,-0.7295,-0.7655,-0.6598,-0.599,-0.5905,-0.4647,-0.3734,-0.3164,-0.2966,-0.2267,-0.1001,-0.0331,0.0,0.0,0.0,0.0,0.0,0.0,0.0,0.0,0.0,0.0,0.0,0.0,0.0,0.0,0.0,0.0,0.0,0.0,0.0,0.0,-0.4105,0.0,0.0,0.0,0.0,0.0,0.0,0.0,0.0,0.0,0.0,-0.8492,-0.7542,-0.7274,-0.8495,0.0,0.0,0.0,0.0,-0.7832,-0.8286,-0.7852,-0.7461,-0.7472,-0.7031,-0.6961,-0.7617,0.0,0.0,-1.2717,-1.3651,-1.4009,-1.3468,-1.3768,-1.425,-1.4423,-1.4118,-1.4159,-1.4847,-1.4559,-1.4385,-1.472,-1.558,-1.65,-0.7996,0.0,0.0,0.0,0.0,-0.7511,-0.8104,-0.8904,-0.8985,-0.9009,-0.9017,-0.8607,0.0,0.0,0.0,0.0,0.0,0.0,-0.9324,-1.0089,-1.0457,-1.0867,-1.128,-1.1035,-1.0851,-1.0678,-0.9473,-0.8766,-0.8479,-0.6962,-0.5647,-0.4534,0.0,0.0,0.0,0.0,-0.5834,-0.6514,-0.6933,-0.7295,-0.767,-0.6598,-0.561,-0.4787,-0.4228,-0.3818,-0.3672,-0.2914,-0.2081,-0.1217,-0.0422,0.0,0.0,0.0,0.0,0.0,0.0,0.0,0.0,0.0,0.0,0.0,0.0,0.0,0.0,0.0,0.0,0.0,0.0,0.0,-0.3242,-0.3183,-0.3155,0.0,0.0,0.0,0.0,0.0,0.0,0.0,0.0,0.0,-0.8699,-0.823,-0.8079,0.0,0.0,-0.7956,-0.8269,-0.8211,-0.8239,-0.8446,0.0,0.0,0.0,-0.7899,-0.8084,-0.8231,-1.0482,-1.2616,-1.3422,-1.3957,-1.4238,-1.3932,-1.3956,-1.4044,-1.4283,-1.4369,-1.4575,-1.4905,-1.4886,-1.4859,-1.5033,-1.5595,-1.6102,-1.0613,-0.9495,-0.8639,-0.8554,-0.9121,-0.919,-0.9616,-1.0326,-1.0454,-1.0493,-1.052,-1.0365,-1.019,-0.9954,-0.9723,0.0,0.0,0.0,-1.0953,-1.1687,-1.1598,-1.1713,-1.1871,-1.1555,-1.1227,-1.082,-0.972,-0.914,-0.8999,-0.8162,-0.7251,-0.6175,0.0,0.0,-0.5514,-0.6003,-0.6435,-0.6891,-0.7172,-0.7473,-0.7663,-0.6592,-0.5432,-0.4355,-0.4128,-0.3924,-0.3625,-0.301,-0.2352,-0.1646,-0.0584,-0.0087,0.0,0.0,0.0,0.0,0.0,0.0,0.0,0.0,0.0,0.0,0.0,-0.261,-0.2164,0.0,0.0,0.0,-0.3577,-0.3669,-0.3261,-0.3384,0.0,0.0,0.0,0.0,0.0,0.0,0.0,-0.6951,-0.765,-0.8246,-0.8779,-0.8698,-0.8803,-0.9207,-0.8779,-0.8431,-0.8613,0.0,-0.8589,-0.8448,-0.8689,-0.858,-0.8004,-0.8117,-0.8386,-0.8673,-1.0765,-1.2502,-1.3164,-1.3792,-1.4308,-1.4278,-1.4112,-1.4173,-1.4389,-1.4528,-1.4839,-1.5252,-1.5418,-1.5578,-1.575,-1.5956,-1.6259,-1.2977,-1.2774,-1.0863,-1.0242,-1.0469,-1.0459,-1.0664,-1.1023,-1.1297,-1.1482,-1.1734,-1.1975,-1.2135,-1.2311,-1.235,0.0,-1.283,-1.2548,-1.253,-1.2743,-1.2488,-1.2164,-1.1812,-1.1518,-1.0876,-0.9994,-0.9671,-0.9268,-0.8812,-0.8783,-0.8575,-0.826,-0.7313,-0.684,-0.6833,-0.7117,-0.7277,-0.7353,-0.7604,-0.7735,-0.7581,-0.652,-0.5437,-0.4316,-0.4303,-0.3971,-0.3275,-0.3166,-0.2806,-0.2107,-0.08,-0.0064,-0.01,0.0,0.0,0.0,0.0,0.0,0.0,0.0,0.0,0.0,0.0,0.0,0.0,0.0,0.0,0.0,-0.438,0.0,-0.4049,-0.4223,0.0,0.0,0.0,-0.4692,-0.5195,-0.6293,-0.6795,-0.6502,0.0,0.0,-0.8809,0.0,-0.9262,-0.9276,-0.895,-0.8791,-0.8865,-0.884,-0.8755,-0.8485,-0.8389,-0.8365,-0.8018,-0.7889,-0.8101,-0.8913,-1.0422,-1.1533,-1.2172,-1.2991,-1.3862,-1.4124,-1.4112,-1.428,-1.4636,-1.4654,-1.4973,-1.5524,-1.596,-1.6373,-1.66,-1.6687,-1.6794,-1.4585,-1.4351,-1.3583,-1.2696,-1.1818,-1.1818,-1.1902,-1.1996,-1.2017,-1.2235,-1.2539,-1.258,-1.2765,-1.3144,-1.3694,-1.3697,-1.3265,-1.3271,-1.3369,-1.342,-1.3073,-1.2958,-1.2953,-1.2311,-1.1592,-1.0861,-1.02,-0.9764,-0.9554,-0.9224,-0.9111,-0.9063,-0.8511,-0.8099,-0.7865,-0.7931,-0.8092,-0.8341,-0.8414,-0.7913,-0.6829,-0.6017,-0.5183,-0.432,-0.4269,-0.3946,-0.3449,-0.2882,-0.2452,-0.2108,-0.1086,-0.063,-0.0839,-0.0976,0.0,0.0,0.0,0.0,0.0,0.0,0.0,0.0,0.0,-0.4175,-0.336,0.0,-0.4861,0.0,-0.4453,-0.4388,-0.4032,-0.4186,0.0,0.0,-0.4988,-0.5282,-0.5944,-0.6716,-0.7049,-0.6662,-0.8043,-0.8842,-0.8351,-0.8939,-0.9244,-0.8941,-0.9186,-0.905,-0.8488,-0.8434,-0.8467,-0.8434,-0.8122,-0.7825,-0.7861,-0.7798,-0.8041,-0.918,-0.9056,-0.9295,-1.1153,-1.1269,-1.1463,-1.2727,-1.309,-1.345,-1.4249,-1.4517,-1.4535,-1.4669,-1.531,-1.614,-1.678,-1.7035,-1.7177,-1.6359,-1.6208,-1.5715,-1.5056,-1.4257,-1.3302,-1.2855,-1.2865,-1.2865,-1.3044,-1.3345,-1.3685,-1.3989,-1.429,-1.4976,-1.4976,-1.4491,-1.4344,-1.4289,-1.4283,-1.3651,-1.3185,-1.2987,-1.2374,-1.1774,-1.104,-1.0352,-0.9947,-0.9888,-0.9562,-0.9423,-0.9466,-0.9239,-0.9007,-0.8824,-0.8553,-0.841,-0.8396,-0.8207,-0.7594,-0.6445,-0.5887,-0.5242,-0.4408,-0.4307,-0.3926,-0.3264,-0.2781,-0.2278,-0.1688,-0.1161,-0.0943,-0.111,-0.197,-0.2238,0.0,0.0,0.0,0.0,0.0,0.0,0.0,0.0,0.0,0.0,0.0,-0.5174,-0.4565,-0.4776,-0.4878,-0.4488,-0.4718,-0.5008,-0.5364,-0.5531,-0.5834,-0.6394,-0.6824,-0.7235,-0.759,-0.8129,-0.8535,-0.8426,-0.8803,-0.8885,-0.8536,-0.8862,-0.8926,-0.849,-0.834,-0.8317,-0.8279,-0.799,-0.7875,-0.7875,-0.776,-0.7924,-0.8545,-0.8661,-0.9073,-1.0266,-1.0569,-1.1077,-1.2376,-1.2715,-1.3025,-1.4067,-1.4315,-1.4406,-1.4372,-1.4995,-1.5884,-1.6742,-1.7151,-1.7479,-1.7999,-1.7904,-1.7278,-1.7022,-1.6854,-1.4923,-1.4063,-1.4015,-1.3952,-1.4041,-1.4197,-1.4823,-1.5187,-1.5355,-1.5869,-1.5944,-1.5611,-1.5232,-1.5017,-1.4869,-1.3988,-1.3238,-1.2569,-1.2236,-1.1692,-1.0964,-1.036,-1.0051,-0.9999,-0.9725,-0.9614,-0.9614,-0.9614,-0.9562,-0.9488,-0.8982,-0.8516,-0.8064,-0.7605,-0.7043,-0.6406,-0.6034,-0.5399,-0.4591,-0.4399,-0.3884,-0.2984,-0.281,-0.227,-0.1328,-0.1231,-0.1237,-0.1341,-0.3018,-0.3475,0.0,-0.2848,0.0,0.0,0.0,0.0,0.0,0.0,0.0,0.0,-0.5819,-0.5389,-0.4826,-0.5345,-0.5515,-0.5229,-0.5459,-0.5656,-0.5696,-0.5922,-0.6271,-0.6553,-0.6783,-0.7307,-0.8319,-0.8199,-0.8127,-0.8348,-0.8621,-0.8548,-0.8147,-0.8284,-0.8464,-0.8412,-0.8419,-0.8279,-0.8021,-0.8038,-0.8014,-0.8004,-0.7824,-0.776,-0.8082,-0.8612,-0.941,-0.9312,-1.019,-1.1241,-1.2238,-1.2625,-1.3052,-1.4018,-1.4173,-1.425,-1.4341,-1.5001,-1.5737,-1.638,-1.706,-1.7616,-1.8554,-1.8389,-1.7904,-1.7701,-1.7641,-1.6931,-1.6462,-1.6267,-1.5949,-1.5545,-1.513,-1.522,-1.5277,-1.5311,-1.5691,-1.5424,-1.4686,-1.4971,-1.4686,-1.3847,-1.3705,-1.3372,-1.288,-1.255,-1.2067,-1.1377,-1.0718,-1.0257,-1.0007,-0.9725,-0.9614,-0.9614,-0.9614,-0.9413,-0.9106,0.0,0.0,0.0,-0.7575,-0.7108,-0.6856,-0.6281,-0.5619,-0.496,-0.4681,0.0,-0.3204,-0.2951,-0.2621,-0.2185,-0.1939,0.0,0.0,0.0,0.0,0.0,0.0,0.0,0.0,0.0,0.0,0.0,-0.5543,-0.5813,-0.6089,-0.6267,-0.6252,-0.5891,-0.5908,-0.5894,-0.5667,-0.5885,-0.6,-0.5915,-0.6156,-0.6321,-0.6496,-0.7051,-0.7362,-0.7123,-0.787,-0.8158,-0.7591,-0.808,-0.8337,-0.7819,-0.7995,-0.8157,-0.8079,-0.8086,-0.8103,-0.8035,-0.8035,-0.8035,-0.8038,-0.798,-0.7933,-0.8031,-0.8137,-0.8333,-0.8531,-0.9221,-1.0263,-1.1262,-1.2136,-1.2991,-1.402,-1.4146,-1.4336,-1.4821,-1.5143,-1.5559,-1.5666,-1.6466,-1.7162,-2.0501,0.0,-1.9816,-1.9542,0.0,-1.9116,-1.8969,-1.8722,-1.746,-1.688,-1.6867,-1.6788,-1.68,-1.6855,-1.7074,-1.68,-1.615,-1.615,-1.5772,-1.5158,-1.4729,-1.4283,-1.3912,-1.3781,-1.3282,-1.2507,-1.2088,-1.155,-1.0963,-1.047,-1.0121,-1.0007,-0.9544,-0.9211,-0.9008,-0.858,-0.8262,-0.8043,-0.7436,-0.7059,-0.6902,-0.636,-0.5844,-0.5348,0.0,0.0,0.0,0.0,0.0,0.0,0.0,0.0,0.0,0.0,0.0,-0.3461,-0.3926,-0.4219,-0.4227,-0.4392,-0.4785,-0.5453,-0.601,-0.6333,-0.6375,-0.6814,-0.6784,-0.6158,-0.6375,-0.642,-0.6007,-0.6301,-0.6375,-0.6094,-0.6227,-0.6424,-0.6661,-0.6951,-0.7175,-0.7018,-0.748,-0.7701,-0.7278,-0.7675,-0.7912,-0.778,-0.7935,-0.8052,-0.8021,-0.8038,-0.8038,-0.8035,-0.7967,-0.7957,-0.8014,-0.7967,-0.7963,-0.8014,-0.8038,-0.8233,-0.8726,-0.9191,-1.0004,-1.0999,-1.2024,-1.3033,-1.3914,-1.4142,-1.4407,-1.4741,-1.5036,-1.5327,-1.5435,-1.6181,-1.7007,-2.2438,-2.2161,-2.1732,-2.1361,-2.1166,-2.097,-2.0921,-2.0779,0.0,0.0,0.0,-1.8469,-1.8456,-1.8524,-1.8596,-1.8363,-1.7892,-1.7496,-1.7108,-1.6738,-1.5985,-1.5433,-1.5122,-1.507,-1.4588,-1.3819,-1.3377,-1.2894,-1.2214,-1.1366,-1.0841,-1.0546,-0.966,-0.9172,-0.8945,-0.819,-0.7804,-0.7798,-0.7339,-0.7036,-0.6874,-0.6528,-0.6115,-0.5755,-0.5253,-0.4748,-0.4367,-0.3929,-0.3825,-0.4035,-0.3155,-0.2971,-0.3766,-0.3814,-0.3908,-0.4204,-0.4698,-0.4922,-0.4843,-0.5184,-0.5399,-0.5548,-0.6256,-0.6644,-0.6702,-0.7096,-0.7066,-0.6252,-0.6635,-0.6704,-0.6252,-0.6512,-0.663,-0.6143,-0.6335,-0.6563,-0.6692,-0.6861,-0.7014,-0.7119,-0.7132,-0.7214,-0.7407,-0.7616,-0.7651,-0.7794,-0.7933,-0.8038,-0.8038,-0.8038,-0.8038,-0.8031,-0.7957,-0.7913,-0.7987,-0.7953,-0.7909,-0.8021,-0.8038,-0.8432,-0.924,-0.9666,-1.0145,-1.1433,-1.2183,-1.3027,-1.3906,-1.418,-1.4299,-1.4724,-1.4926,-1.511,-1.5469,-1.6068,-1.6685,-2.2757,-2.2653,-2.2207,-2.1894,-2.1766,-2.1444,-2.1313,-2.121,-2.0253,-1.9602,-1.9152,-1.8865,-1.8865,-1.9061,-1.8747,-1.8363,-1.7879,-1.7844,-1.74,0.0,-1.6566,-1.6327,-1.5946,-1.5556,-1.5195,-1.4651,-1.3702,-1.3168,-1.294,-1.2006,-1.1487,-1.1311,-1.0526,-0.9767,-0.9029,-0.8445,-0.8213,-0.8201,-0.745,-0.7036,-0.6879,-0.6843,-0.6511,-0.5976,-0.571,-0.5348,-0.4896,-0.4692,-0.4637,-0.4662,-0.4149,-0.4086,-0.4598,-0.4274,-0.4363,-0.5038,-0.5035,-0.5233,-0.5734,-0.5697,-0.5944,-0.6513,-0.6773,-0.6791,-0.6639,-0.6766,-0.6833,-0.6645,-0.6527,-0.6507,-0.6485,-0.6503,-0.6525,-0.6524,-0.6649,-0.6675,-0.6712,-0.6939,-0.7109,-0.7136,-0.7139,-0.7221,-0.7417,-0.7729,-0.7855,-0.7894,-0.8048,-0.8237,-0.8038,-0.8038,-0.8038,-0.8038,-0.8024,-0.8018,-0.8028,-0.8028,-0.8007,-0.8031,-0.8045,-0.835,-0.9434,-0.9799,-1.048,-1.2182,-1.273,-1.327,-1.4035,-1.4196,-1.4418,-1.4854,-1.4954,-1.5166,-1.5586,-1.5773,-1.6069,-2.3721,-2.355,-2.3172,-2.2785,-2.2282,-2.1746,-2.1458,-2.1348,-2.0994,-2.0677,-2.0435,-2.0267,-2.0281,-2.0375,-2.022,-1.9921,-1.9584,-1.9242,-1.8772,-1.828,-1.7871,-1.7624,-1.7468,-1.7235,-1.6813,-1.6116,-1.5625,-1.4851,-1.3901,-1.3011,-1.2404,-1.1839,-1.061,-0.9537,-0.8675,-0.8434,-0.8322,-0.8316,-0.792,-0.7745,-0.7637,-0.7349,-0.706,-0.6792,-0.6292,-0.5872,-0.5677,-0.5413,-0.5209,-0.5022,-0.4556,-0.4481,-0.4855,-0.4562,-0.4661,-0.5226,-0.5404,-0.555,-0.5891,-0.5977,-0.6246,-0.666,-0.6666,-0.6578,-0.6484,-0.6628,-0.6679,-0.6556,-0.6676,-0.6734,-0.6599,-0.6974,-0.7049,-0.6756,-0.6813,-0.6895,-0.6831,-0.7004,-0.7136,-0.7149,-0.7217,-0.7333,-0.7506,-0.7729,-0.7866,-0.7909,-0.8103,-0.8137,-0.8038,-0.8038,-0.8038,-0.8038,-0.8038,-0.8038,-0.8038,-0.8038,-0.8038,-0.8038,-0.8113,-0.8553,-0.9578,-1.0071,-1.1006,-1.1954,-1.2886,-1.35,-1.364,-1.4078,-1.4553,-1.4931,-1.5116,-1.5367,-1.5607,-1.5732,-1.5887,-2.503,-2.4699,-2.4307,-2.3599,-2.2649,-2.2016,-2.165,-2.1458,-2.1423,-2.141,-2.141,-2.141,-2.141,-2.141,-2.141,-2.1229,-2.0934,-2.0409,-2.0003,-1.972,-1.9133,-1.8815,-1.8709,-1.8667,-1.8159,-1.7379,-1.7157,-1.6234,-1.4827,-1.4014,-1.299,-1.1817,-1.0562,-0.9439,-0.8489,-0.8429,-0.8489,-0.8489,-0.8434,-0.8371,-0.8257,-0.7783,-0.7491,-0.7408,-0.6704,-0.6338,-0.628,-0.6025,-0.5727,-0.548,-0.506,-0.4976,-0.5238,-0.5014,-0.5076,-0.5426,-0.5682,-0.5844,-0.5952,-0.6257,-0.6579,-0.6684,-0.6569,-0.6531,-0.6527,-0.6613,-0.663,-0.6568,-0.6944,-0.6999,-0.6897,-0.7297,-0.7484,-0.6944,-0.6933,-0.6916,-0.6909,-0.7054,-0.7139,-0.7156,-0.7275,-0.7428,-0.7577,-0.7723,-0.7862,-0.7991,-0.8038,-0.8038,-0.8038,-0.8038,-0.8038,-0.8038,-0.8038,-0.8038,-0.8038,-0.8038,-0.8038,-0.8038,-0.8163,-0.8736,-0.9615,-1.0481,-1.1336,-1.1907,-1.2929,-1.3609,-1.3418,-1.3851,-1.4608,-1.5048,-1.5199,-1.5352,-1.5616,-1.568,-1.5817,-2.67,-2.6012,-2.5477,-2.4279,-2.2768,-2.2388,-2.1983,-2.1602,-2.1458,-2.141,-2.141,-2.141,-2.141,-2.141,-2.141,-2.1264,-2.0997,-2.066,-2.0422,-2.0131,-1.9811,-1.9488,-1.9133,-1.8774,-1.8333,-1.7788,-1.7123,-1.6322,-1.5381,-1.4514,-1.2995,-1.1135,-1.0732,-1.0065,-0.9064,-0.8937,-0.8937,-0.8948,-0.8948,-0.8663,-0.8108,-0.7731,-0.7435,-0.7327,-0.6913,-0.6676,-0.6656,-0.644,-0.6323,-0.6288,-0.6041,-0.5984,-0.5962,-0.5847,-0.5771,-0.5875,-0.581,-0.5953,-0.6257,-0.6708,-0.7058,-0.71,-0.6952,-0.6863,-0.6824,-0.6552,-0.6622,-0.6933,-0.7038,-0.73,-0.7384,-0.7366,-0.741,-0.7354,-0.7178,-0.7003,-0.7001,-0.7054,-0.7139,-0.7139,-0.7285,-0.7431,-0.7584,-0.7733,-0.7879,-0.8018,-0.8038,-0.8038,-0.8038,-0.8038,-0.8038,-0.8038,-0.8038,-0.8038,-0.8038,-0.8038,-0.8048,-0.8058,-0.8174,-0.8678,-0.9488,-1.0096,-1.063,-1.2093,-1.2944,-1.3521,-1.4186,-1.4526,-1.4641,-1.5282,-1.5355,-1.5192,-1.5467,-1.558,-1.5833,-2.6917,-2.6197,-2.5977,-2.5014,-2.3583,-2.3221,-2.2668,-2.2044,-2.244,-2.2159,-2.1485,-2.1779,-2.1732,-2.141,-2.141,-2.1326,-2.1229,-2.0983,-2.0686,-2.0409,-2.0169,-1.9862,-1.954,-1.9384,-1.8963,-1.8344,-1.7963,-1.6989,-1.5507,-1.4163,-1.2589,-1.0989,-1.0807,-1.0168,-0.9087,-0.9022,-0.9022,-0.9022,-0.9022,-0.8845,-0.8453,-0.8069,-0.7883,-0.7838,-0.7279,-0.6923,-0.6923,-0.6869,-0.6761,-0.6598,-0.6464,-0.6365,-0.624,-0.6231,-0.6258,-0.6274,-0.6235,-0.6299,-0.6527,-0.6697,-0.7012,-0.7311,-0.6894,-0.6768,-0.7254,-0.6747,-0.6946,-0.8222,-0.8724,-0.8768,-0.8351,-0.8993,-0.9448,-0.9072,-0.8702,-0.845,-0.8151,-0.7888,-0.7584,-0.7241,-0.7356,-0.7522,-0.7617,-0.7804,-0.7957,-0.8031,-0.8038,-0.8038,-0.8038,-0.8038,-0.8038,-0.8038,-0.8038,-0.8038,-0.8038,-0.8038,-0.8079,-0.8174,-0.8299,-0.8713,-0.905,-1.0285,-1.1337,-1.2089,-1.2925,-1.3743,-1.4504,-1.4772,-1.4927,-1.5462,-1.5593,-1.5451,-1.5575,-1.5601,-1.572,-2.7464,-2.6525,-2.6102,-2.5205,-2.4166,-2.3852,-2.3281,-2.2721,-2.3123,-2.2786,-2.1983,-2.2175,-2.2049,-2.1698,-2.1458,-2.141,-2.1361,-2.1033,-2.0785,-2.056,-2.0271,-1.9965,-1.9798,-1.9643,-1.9331,-1.8827,-1.8506,-1.7313,-1.5342,-1.3983,-1.2405,-1.0982,-1.073,-1.0098,-0.9022,-0.8823,-0.8894,-0.8894,-0.8829,-0.8775,-0.8589,-0.8226,-0.8063,-0.8074,-0.7461,-0.7133,-0.7133,-0.7133,-0.7031,-0.6815,-0.6758,-0.6646,-0.6438,-0.6524,-0.6518,-0.6459,-0.6555,-0.6671,-0.6845,-0.7026,-0.7348,-0.7747,-0.7441,-0.7482,-0.7757,-0.7495,-0.7929,-0.9468,-1.0543,-1.0631,-0.97,-1.0484,-1.0863,-1.0426,-1.0054,-0.9638,-0.8926,-0.8544,-0.8021,-0.7252,-0.7404,-0.7641,-0.7729,-0.7902,-0.8035,-0.8038,-0.8038,-0.8038,-0.8038,-0.8038,-0.8038,-0.8038,-0.8038,-0.8038,-0.8041,-0.8092,-0.8157,-0.8262,-0.8401,-0.8581,-0.881,-1.0353,-1.1564,-1.1946,-1.33,-1.4196,-1.4645,-1.4926,-1.5166,-1.5374,-1.5465,-1.558,-1.5596,-1.5601,-1.5601,-2.885,-2.7182,-2.5687,-2.4813,-2.4276,-2.4155,-2.3827,-2.3319,-2.3305,-2.3187,-2.2965,-2.2589,-2.2314,-2.2235,-2.1684,-2.1423,-2.1313,-2.0858,-2.0673,-2.056,-2.0105,-1.9798,-1.9798,-1.9384,-1.9226,-1.9069,-1.8441,-1.7034,-1.5031,-1.4264,-1.2793,-1.064,-1.0521,-0.9831,-0.8765,-0.8582,-0.8517,-0.8582,-0.856,-0.8515,-0.8404,-0.804,-0.7794,-0.7688,-0.7329,-0.7133,-0.7133,-0.7133,-0.7085,-0.7085,-0.6946,-0.6827,-0.6813,-0.6682,-0.6502,-0.6358,-0.6583,-0.6959,-0.7306,-0.801,-0.8539,-0.8634,-0.8927,-0.9227,-0.8967,-0.8862,-0.9363,-1.0271,-1.2035,-1.2462,-1.1295,-1.1124,-1.1092,-1.0885,-1.0767,-1.0204,-0.9122,-0.9061,-0.8364,-0.7535,-0.7411,-0.7689,-0.7957,-0.8028,-0.8038,-0.8038,-0.8038,-0.8038,-0.8038,-0.8038,-0.8038,-0.8038,-0.8038,-0.8038,-0.8052,-0.8136,-0.8231,-0.8336,-0.8499,-0.8696,-0.9399,-1.0116,-1.0962,-1.1896,-1.3207,-1.4207,-1.478,-1.5153,-1.5355,-1.5451,-1.5552,-1.5601,-1.5601,-1.5601,-1.5601,-2.8931,-2.7288,-2.5655,-2.4886,-2.4757,-2.4791,-2.4432,-2.3912,-2.4321,-2.3969,-2.3348,-2.3363,-2.3172,-2.2663,-2.2189,-2.1779,-2.1375,-2.1033,-2.0772,-2.0573,-2.022,-1.9965,-1.9798,-1.9656,-1.9436,-1.9174,-1.8857,-1.7556,-1.5467,-1.4433,-1.2793,-1.0892,-1.0514,-0.9831,-0.8765,-0.8517,-0.8517,-0.8501,-0.8366,-0.8229,-0.7996,-0.7698,-0.7462,-0.734,-0.7182,-0.7133,-0.7133,-0.7133,-0.7133,-0.7133,-0.7062,-0.7031,-0.7018,-0.6987,-0.7062,-0.7177,-0.7298,-0.7517,-0.7766,-0.7999,-0.8436,-0.898,-0.8933,-0.9346,-0.9768,-0.9974,-1.0414,-1.1581,-1.2657,-1.3202,-1.3118,-1.277,-1.26,-1.2523,-1.2312,-1.1824,-1.1064,-1.0178,-0.9231,-0.8416,-0.7956,-0.7709,-0.795,-0.8038,-0.8038,-0.8038,-0.8038,-0.8038,-0.8038,-0.8038,-0.8038,-0.8038,-0.8038,-0.8038,-0.8038,-0.8167,-0.8296,-0.8425,-0.8574,-0.8733,-0.9265,-1.0502,-1.1455,-1.2005,-1.3207,-1.4239,-1.4836,-1.5342,-1.5454,-1.5503,-1.5601,-1.5601,-1.5601,-1.5601,-1.5601,-2.8678,-2.7304,-2.595,-2.5251,-2.5045,-2.5088,-2.4843,-2.4472,-2.4905,-2.4618,-2.3925,-2.4021,-2.3767,-2.3157,-2.2709,-2.2235,-2.1746,-2.1229,-2.0885,-2.0723,-2.0472,-2.0169,-1.9965,-1.9914,-1.9759,-1.9384,-1.9081,-1.7884,-1.5908,-1.4777,-1.3158,-1.1205,-1.0766,-0.9958,-0.8941,-0.857,-0.8398,-0.835,-0.8224,-0.7925,-0.7698,-0.748,-0.7277,-0.7122,-0.7133,-0.7133,-0.7133,-0.7133,-0.7133,-0.709,-0.7155,-0.7157,-0.7089,-0.7254,-0.7422,-0.7644,-0.7904,-0.8157,-0.8421,-0.86,-0.9067,-0.9794,-0.9969,-1.0309,-1.1057,-1.1174,-1.1683,-1.2518,-1.3074,-1.3581,-1.3928,-1.3895,-1.3781,-1.3705,-1.3533,-1.3008,-1.2389,-1.1214,-1.0086,-0.8918,-0.8055,-0.7849,-0.7974,-0.8028,-0.8038,-0.8038,-0.8137,-0.8237,-0.8038,-0.8137,-0.8137,-0.8041,-0.8038,-0.8038,-0.8182,-0.8516,-0.8546,-0.8675,-0.888,-0.9029,-0.9534,-1.0781,-1.1678,-1.2223,-1.3014,-1.4054,-1.4883,-1.5372,-1.5521,-1.5606,-1.5601,-1.5601,-1.5601,-1.5601,-1.5601,-2.8174,-2.74,-2.6541,-2.5791,-2.5163,-2.514,-2.5029,-2.4958,-2.4958,-2.4934,-2.4695,-2.4369,-2.4078,-2.3739,-2.3246,-2.2799,-2.2374,-2.1589,-2.1131,-2.1046,-2.0772,-2.0459,-2.022,-2.0169,-2.0016,-1.9695,-1.8975,-1.7809,-1.6373,-1.5293,-1.3888,-1.232,-1.108,-1.0205,-0.946,-0.8737,-0.8291,-0.8186,-0.7935,-0.7693,-0.7426,-0.7378,-0.7311,-0.7112,-0.7133,-0.7133,-0.7133,-0.7133,-0.709,-0.7133,-0.7133,-0.7188,-0.7202,-0.7432,-0.7595,-0.7825,-0.8288,-0.8714,-0.9066,-0.9961,-1.0502,-1.0989,-1.2044,-1.2298,-1.2265,-1.2526,-1.292,-1.3144,-1.3267,-1.3561,-1.3968,-1.4055,-1.4062,-1.4088,-1.3997,-1.358,-1.2711,-1.1929,-1.0885,-0.9054,-0.8117,-0.7811,-0.7974,-0.8038,-0.8038,-0.8038,-0.8333,-0.8531,-0.8237,-0.8435,-0.8428,-0.8134,-0.8038,-0.8038,-0.8442,-0.8874,-0.8895,-0.8934,-0.928,-0.9578,-1.0225,-1.1345,-1.2005,-1.2555,-1.3527,-1.4586,-1.4931,-1.541,-1.556,-1.5658,-1.5612,-1.5601,-1.5601,-1.5601,-1.5601,-2.8442,-2.8126,-2.7368,-2.6557,-2.5886,-2.5823,-2.5544,-2.5021,-2.5005,-2.5005,-2.4966,-2.4806,-2.4589,-2.4287,-2.3894,-2.3493,-2.3084,-2.2543,-2.1969,-2.1471,-2.1153,-2.0845,-2.051,-2.0271,-2.0067,-1.9695,-1.8975,-1.8093,-1.6946,-1.5593,-1.4058,-1.2671,-1.1648,-1.0591,-0.9558,-0.9084,-0.8701,-0.8225,-0.7758,-0.7515,-0.7378,-0.7284,-0.716,-0.7095,-0.7133,-0.7133,-0.7133,-0.7133,-0.7106,-0.7205,-0.7172,-0.7372,-0.7653,-0.7816,-0.8165,-0.872,-0.8814,-0.9059,-0.942,-1.0151,-1.087,-1.1403,-1.2211,-1.2806,-1.3075,-1.346,-1.3596,-1.3632,-1.3773,-1.4001,-1.4072,-1.4088,-1.4175,-1.4362,-1.4382,-1.4196,-1.3566,-1.2117,-1.048,-0.9263,-0.8273,-0.7756,-0.7963,-0.8038,-0.8038,-0.8038,-0.8237,-0.8336,-0.8652,-0.8542,-0.8237,-0.8038,-0.8038,-0.8041,-0.8313,-0.894,-0.9511,-0.9661,-0.9904,-1.0339,-1.1118,-1.1673,-1.2332,-1.3108,-1.4083,-1.4625,-1.5084,-1.5347,-1.5577,-1.5631,-1.5553,-1.5601,-1.5601,-1.5601,-1.5601,-2.8613,-2.8506,-2.8062,-2.7182,-2.6229,-2.6181,-2.5719,-2.5069,-2.5005,-2.5005,-2.5005,-2.5005,-2.4846,-2.4589,-2.4369,-2.4063,-2.3754,-2.3659,-2.3329,-2.2578,-2.1916,-2.1513,-2.1077,-2.061,-2.0271,-1.9811,-1.9016,-1.8201,-1.7401,-1.5928,-1.4483,-1.3235,-1.2266,-1.1085,-0.9794,-0.9236,-0.8704,-0.7969,-0.7515,-0.7316,-0.7284,-0.716,-0.7133,-0.7095,-0.7111,-0.7154,-0.7164,-0.7128,-0.7202,-0.7255,-0.7374,-0.7768,-0.8241,-0.8399,-0.8896,-0.9515,-0.9574,-0.9691,-1.0496,-1.1019,-1.1465,-1.2137,-1.2792,-1.331,-1.3682,-1.3918,-1.3932,-1.3867,-1.409,-1.4248,-1.4112,-1.4202,-1.4369,-1.4649,-1.4569,-1.4495,-1.4164,-1.2739,-1.1389,-1.0491,-0.9652,-0.8948,-0.8547,-0.8531,-0.8333,-0.8137,-0.8237,-0.8538,-0.8954,-0.8847,-0.8641,-0.8432,-0.8333,-0.834,-0.8155,-0.9,-1.001,-1.0398,-1.0805,-1.132,-1.1973,-1.2323,-1.2886,-1.3474,-1.4364,-1.4707,-1.5123,-1.5396,-1.5654,-1.5626,-1.5601,-1.5601,-1.5601,-1.5601,-1.5612,-2.8678,-2.8678,-2.8678,-2.7747,-2.6429,-2.6429,-2.5918,-2.5084,-2.5235,-2.529,-2.5171,-2.5227,-2.5037,-2.4789,-2.4692,-2.4467,-2.4394,-2.4597,-2.4505,-2.394,-2.3223,-2.2559,-2.2104,-2.1354,-2.0767,-2.0194,-1.9223,-1.8321,-1.7633,-1.628,-1.5099,-1.4052,-1.287,-1.1699,-1.0499,-0.9426,-0.8574,-0.7794,-0.7395,-0.7264,-0.7171,-0.7128,-0.7122,-0.7139,-0.716,-0.7219,-0.7193,-0.7336,-0.7318,-0.7338,-0.7804,-0.8256,-0.8674,-0.915,-0.9719,-1.0388,-1.017,-1.084,-1.1848,-1.2218,-1.2592,-1.3237,-1.368,-1.4152,-1.4237,-1.4305,-1.4241,-1.408,-1.4321,-1.4454,-1.4321,-1.4401,-1.4697,-1.489,-1.481,-1.4599,-1.4392,-1.3568,-1.262,-1.1978,-1.1517,-1.0833,-0.9575,-0.9604,-0.8916,-0.8421,-0.8428,-0.8935,-0.9343,-0.9343,-0.9232,-0.9027,-0.8825,-0.8531,-0.8446,-0.9493,-1.051,-1.0884,-1.1402,-1.234,-1.2719,-1.298,-1.3327,-1.4025,-1.4494,-1.4738,-1.5117,-1.5451,-1.5638,-1.5606,-1.5596,-1.5601,-1.5601,-1.5601,-1.5623,-2.9567,-2.9567,-2.9567,-2.8613,-2.7304,-2.7698,-2.6805,-2.5354,-2.6447,-2.6591,-2.623,-2.6094,-2.6038,-2.5911,-2.5211,-2.4766,-2.4626,-2.4699,-2.4564,-2.4371,-2.443,-2.3847,-2.3111,-2.2251,-2.1506,-2.0797,-1.9719,-1.8685,-1.7918,-1.6807,-1.5758,-1.4874,-1.358,-1.2411,-1.147,-1.0569,-0.9538,-0.8451,-0.8027,-0.7643,-0.7198,-0.7212,-0.7175,-0.7191,-0.7192,-0.7257,-0.7323,-0.7603,-0.779,-0.7833,-0.8266,-0.8669,-0.9145,-0.9824,-1.0434,-1.0966,-1.1421,-1.1781,-1.2298,-1.2806,-1.3244,-1.3535,-1.4152,-1.4607,-1.4891,-1.5114,-1.5104,-1.5016,-1.5286,-1.5306,-1.4951,-1.4949,-1.5082,-1.5268,-1.5275,-1.5177,-1.4937,-1.3981,-1.302,-1.2538,-1.1775,-1.1345,-1.1011,-1.0194,-0.9201,-0.8495,-0.851,-0.9229,-0.9838,-0.9735,-0.9624,-0.9426,-0.9126,-0.8825,-0.8965,-1.002,-1.0795,-1.1268,-1.2102,-1.3295,-1.3659,-1.3748,-1.4198,-1.4622,-1.4652,-1.4915,-1.5281,-1.5582,-1.5617,-1.5585,-1.5596,-1.5601,-1.5601,-1.5601,-1.5628,-2.9583,-2.9918,-2.9918,-2.9124,-2.8072,-2.8621,-2.7826,-2.6599,-2.7394,-2.7702,-2.7241,-2.7192,-2.6935,-2.6453,-2.587,-2.5298,-2.4854,-2.4942,-2.4942,-2.5002,-2.5483,-2.5168,-2.4213,-2.3339,-2.2593,-2.1852,-2.0639,-1.977,-1.8972,-1.7849,-1.6757,-1.5743,-1.4569,-1.3327,-1.1836,-1.1398,-1.0363,-0.9155,-0.8685,-0.83,-0.7689,-0.796,-0.7914,-0.7813,-0.7768,-0.7808,-0.783,-0.8594,-0.8937,-0.879,-0.9076,-0.9459,-0.9601,-1.0657,-1.1468,-1.1922,-1.2224,-1.2519,-1.3178,-1.3462,-1.3608,-1.4008,-1.4527,-1.4885,-1.5221,-1.5602,-1.5756,-1.5484,-1.5866,-1.5703,-1.5405,-1.5469,-1.5828,-1.6183,-1.6044,-1.5858,-1.5578,-1.4868,-1.4161,-1.3673,-1.3259,-1.2554,-1.2436,-1.1268,-1.0173,-0.9182,-0.9103,-1.0117,-1.0932,-1.0426,-1.0117,-1.0113,-0.9727,-0.9434,-0.9214,-1.0066,-1.0972,-1.1444,-1.261,-1.3901,-1.4083,-1.4202,-1.4401,-1.4606,-1.4871,-1.503,-1.5396,-1.5563,-1.5644,-1.558,-1.5596,-1.5601,-1.5601,-1.5807,-1.5818,-2.9157,-2.9918,-2.9918,-2.9394,-2.8705,-2.9157,-2.8715,-2.7939,-2.8483,-2.8611,-2.8339,-2.8283,-2.7709,-2.6678,-2.6469,-2.5942,-2.5013,-2.5237,-2.5456,-2.5706,-2.6168,-2.6126,-2.5282,-2.439,-2.3658,-2.2897,-2.1924,-2.0964,-2.0037,-1.9025,-1.7916,-1.6695,-1.5747,-1.4246,-1.2745,-1.2099,-1.1056,-0.9969,-0.9668,-0.9182,-0.8685,-0.8881,-0.8979,-0.8735,-0.8965,-0.8827,-0.8922,-0.9537,-1.0073,-0.9358,-1.017,-1.0419,-1.0404,-1.162,-1.2439,-1.2879,-1.2813,-1.3331,-1.4129,-1.3905,-1.3905,-1.4464,-1.4893,-1.5213,-1.5364,-1.5809,-1.6031,-1.5821,-1.6001,-1.6027,-1.5834,-1.6169,-1.663,-1.695,-1.6828,-1.6473,-1.6109,-1.5832,-1.5642,-1.5274,-1.5343,-1.4376,-1.3409,-1.2436,-1.194,-1.0779,-1.0614,-1.087,-1.1618,-1.1463,-1.1288,-1.138,-1.0811,-0.9949,-0.9875,-1.0014,-1.0828,-1.1549,-1.2966,-1.4137,-1.4137,-1.4234,-1.4363,-1.4503,-1.4798,-1.5058,-1.5273,-1.5456,-1.5548,-1.558,-1.5601,-1.5601,-1.5618,-1.6133,-1.6205,-2.9729,-2.9918,-2.9918,-2.9394,-2.886,-2.9732,-2.9378,-2.8165,-2.9777,-3.0073,-2.9604,-2.9365,-2.8698,-2.7725,-2.7046,-2.5958,-2.5195,-2.5178,-2.5293,-2.5668,-2.6147,-2.6519,-2.615,-2.5308,-2.4438,-2.3622,-2.2434,-2.1381,-2.0445,-1.9748,-1.8737,-1.7445,-1.6254,-1.5108,-1.4264,-1.3305,-1.2473,-1.1337,-1.0997,-1.0328,-0.9517,-0.9788,-1.003,-0.9901,-1.0339,-1.0176,-0.9791,-1.0122,-1.0222,-1.0228,-1.1015,-1.1617,-1.1527,-1.2505,-1.3178,-1.3331,-1.3768,-1.4201,-1.4489,-1.4418,-1.4425,-1.4632,-1.5022,-1.5292,-1.5578,-1.596,-1.6253,-1.6377,-1.6542,-1.6536,-1.6688,-1.7032,-1.7341,-1.7394,-1.7239,-1.7145,-1.6864,-1.6298,-1.5832,-1.5642,-1.5363,-1.5077,-1.4586,-1.3147,-1.2662,-1.2294,-1.217,-1.2048,-1.2129,-1.2314,-1.2443,-1.2428,-1.1604,-1.0848,-1.058,-1.0667,-1.1236,-1.2068,-1.3388,-1.4191,-1.4191,-1.4245,-1.4363,-1.4573,-1.4821,-1.5095,-1.537,-1.5499,-1.5591,-1.5596,-1.5601,-1.5601,-1.5769,-1.6189,-1.6861,-2.9918,-2.9918,-2.9918,-2.9648,-2.9399,-3.0294,-3.0232,-2.9732,-3.0887,-3.1264,-3.0844,-3.0662,-3.0032,-2.9075,-2.8455,-2.7432,-2.5963,-2.5211,-2.5115,-2.5409,-2.5792,-2.6195,-2.6471,-2.5997,-2.5232,-2.4518,-2.3566,-2.2433,-2.142,-2.0517,-1.9703,-1.852,-1.7137,-1.6024,-1.5264,-1.4501,-1.3612,-1.2682,-1.2401,-1.1836,-1.0993,-1.127,-1.1687,-1.1654,-1.1792,-1.1499,-1.0767,-1.1143,-1.1187,-1.1372,-1.215,-1.2659,-1.2505,-1.3317,-1.384,-1.3985,-1.4209,-1.4569,-1.4569,-1.4577,-1.464,-1.4887,-1.5213,-1.5554,-1.5896,-1.6246,-1.65,-1.6675,-1.6719,-1.6889,-1.7484,-1.7772,-1.7902,-1.7987,-1.78,-1.7707,-1.752,-1.677,-1.6204,-1.6109,-1.5737,-1.5549,-1.4902,-1.4031,-1.3686,-1.3491,-1.3157,-1.3026,-1.3127,-1.3303,-1.3388,-1.3195,-1.2409,-1.1768,-1.1444,-1.1522,-1.1959,-1.2703,-1.3788,-1.4191,-1.4304,-1.4266,-1.4352,-1.4616,-1.4891,-1.5149,-1.5397,-1.5515,-1.5601,-1.5601,-1.5601,-1.5601,-1.5818,-1.6397,-1.7063,-2.9919,-2.9989,-3.006,-3.006,-3.0189,-3.0885,-3.1072,-3.1033,-3.1765,-3.1912,-3.1856,-3.1837,-3.0994,-3.0282,-3.0037,-2.8887,-2.7323,-2.6202,-2.5926,-2.5624,-2.5932,-2.6153,-2.6306,-2.6176,-2.5885,-2.5384,-2.449,-2.3438,-2.2334,-2.147,-2.0433,-1.9518,-1.8295,-1.7031,-1.6026,-1.5449,-1.4849,-1.4081,-1.3967,-1.3625,-1.2956,-1.3154,-1.3413,-1.3415,-1.3219,-1.2564,-1.1999,-1.2004,-1.2218,-1.2378,-1.2952,-1.3171,-1.347,-1.3985,-1.4569,-1.4569,-1.4569,-1.4569,-1.4593,-1.4648,-1.4887,-1.5197,-1.5554,-1.5856,-1.6182,-1.646,-1.6659,-1.6778,-1.6913,-1.7294,-1.8033,-1.8245,-1.8443,-1.8564,-1.8365,-1.8272,-1.8079,-1.7333,-1.6857,-1.6487,-1.6224,-1.5925,-1.5712,-1.512,-1.4947,-1.463,-1.4282,-1.4106,-1.41,-1.4134,-1.4145,-1.418,-1.3464,-1.2454,-1.203,-1.1952,-1.2389,-1.3123,-1.4088,-1.452,-1.452,-1.4321,-1.4435,-1.4681,-1.4966,-1.5192,-1.5397,-1.5542,-1.5601,-1.5601,-1.5601,-1.5596,-1.6003,-1.6729,-1.7503,-3.0035,-3.0452,-3.0764,-3.0885,-3.0965,-3.1414,-3.1565,-3.162,-3.193,-3.209,-3.2037,-3.1893,-3.1225,-3.0529,-3.0214,-2.9465,-2.8494,-2.7701,-2.7136,-2.6626,-2.6662,-2.6659,-2.6395,-2.6344,-2.6068,-2.5655,-2.4925,-2.3896,-2.2719,-2.1832,-2.0729,-1.9756,-1.8924,-1.7899,-1.7229,-1.6817,-1.6446,-1.5785,-1.5698,-1.5396,-1.4915,-1.4689,-1.4563,-1.445,-1.4198,-1.3655,-1.2875,-1.2498,-1.2305,-1.2305,-1.2452,-1.2879,-1.3462,-1.4201,-1.4569,-1.4569,-1.4569,-1.4577,-1.464,-1.4927,-1.5078,-1.5316,-1.5737,-1.6071,-1.6285,-1.6532,-1.6746,-1.6953,-1.7286,-1.7763,-1.8216,-1.8518,-1.8708,-1.8727,-1.8735,-1.8643,-1.845,-1.8071,-1.7318,-1.6864,-1.6609,-1.6354,-1.6122,-1.5952,-1.5758,-1.5438,-1.5148,-1.5021,-1.5071,-1.4977,-1.4885,-1.4885,-1.475,-1.3663,-1.267,-1.248,-1.2728,-1.3434,-1.4229,-1.507,-1.4945,-1.4572,-1.4522,-1.4972,-1.5139,-1.5122,-1.5327,-1.5548,-1.5601,-1.5601,-1.5596,-1.5585,-1.6111,-1.6782,-1.8429,-3.0611,-3.0828,-3.1044,-3.1083,-3.1162,-3.1528,-3.1694,-3.1768,-3.2108,-3.2249,-3.2232,-3.2108,-3.1863,-3.1426,-3.1357,-3.0729,-2.9697,-2.8674,-2.8146,-2.7629,-2.713,-2.6888,-2.667,-2.6474,-2.6009,-2.5502,-2.4894,-2.3916,-2.2446,-2.1564,-2.0719,-1.9937,-1.9407,-1.8979,-1.8586,-1.8529,-1.8073,-1.754,-1.7367,-1.7165,-1.643,-1.6004,-1.5435,-1.5138,-1.4713,-1.4186,-1.3448,-1.3084,-1.2952,-1.2952,-1.2959,-1.339,-1.3905,-1.4346,-1.4569,-1.4577,-1.4585,-1.4744,-1.4879,-1.5125,-1.5316,-1.5713,-1.6055,-1.6285,-1.6452,-1.6659,-1.6889,-1.7254,-1.7469,-1.8001,-1.8518,-1.8724,-1.8804,-1.8827,-1.8827,-1.8827,-1.8735,-1.8442,-1.7885,-1.7268,-1.6845,-1.6663,-1.6572,-1.6393,-1.6374,-1.6144,-1.5897,-1.5971,-1.5975,-1.578,-1.5623,-1.5638,-1.5603,-1.4693,-1.3513,-1.3046,-1.3239,-1.3935,-1.468,-1.5418,-1.5654,-1.5302,-1.5309,-1.5673,-1.5597,-1.539,-1.5354,-1.5601,-1.5601,-1.5601,-1.5596,-1.5731,-1.6062,-1.6966,-1.8514,-3.1142,-3.1223,-3.1317,-3.1355,-3.1393,-3.1694,-3.1841,-3.193,-3.2232,-3.2406,-3.2406,-3.2406,-3.2371,-3.2388,-3.2231,-3.1777,-3.0782,-2.9675,-2.9198,-2.8615,-2.7882,-2.7413,-2.6978,-2.6689,-2.6168,-2.5654,-2.5013,-2.3804,-2.2364,-2.1498,-2.0762,-2.0348,-2.0104,-1.998,-1.9785,-1.9796,-1.9499,-1.9232,-1.9035,-1.8764,-1.7895,-1.6983,-1.6149,-1.5621,-1.5133,-1.4545,-1.3897,-1.3535,-1.3535,-1.3608,-1.3608,-1.3825,-1.4418,-1.4569,-1.4601,-1.4736,-1.468,-1.4927,-1.511,-1.5411,-1.569,-1.6055,-1.6246,-1.6468,-1.6651,-1.6841,-1.7104,-1.7628,-1.789,-1.8136,-1.8653,-1.8819,-1.8827,-1.8827,-1.8827,-1.8827,-1.8827,-1.8635,-1.8357,-1.7717,-1.717,-1.6988,-1.7014,-1.6881,-1.6754,-1.6736,-1.6485,-1.6504,-1.6533,-1.6466,-1.6343,-1.6417,-1.615,-1.5417,-1.4539,-1.3578,-1.392,-1.4652,-1.5492,-1.627,-1.6332,-1.6294,-1.6344,-1.6386,-1.5981,-1.5801,-1.5798,-1.5828,-1.5952,-1.5952,-1.5715,-1.5731,-1.6007,-1.6977,-1.8447,-3.1305,-3.164,-3.2055,-3.2232,-3.2232,-3.2267,-3.2319,-3.2319,-3.2371,-3.2406,-3.2406,-3.2406,-3.2406,-3.2406,-3.2406,-3.2283,-3.1987,-3.1549,-3.0776,-3.002,-2.9412,-2.8458,-2.7438,-2.7047,-2.6533,-2.5944,-2.5267,-2.3957,-2.2671,-2.1942,-2.1364,-2.0952,-2.1037,-2.1045,-2.0673,-2.0854,-2.0734,-2.0549,-2.0631,-2.02,-1.9262,-1.8342,-1.7229,-1.628,-1.5737,-1.5321,-1.4482,-1.3977,-1.3825,-1.4274,-1.3833,-1.3905,-1.4418,-1.4569,-1.4832,-1.5006,-1.5125,-1.5149,-1.5324,-1.5682,-1.6023,-1.6285,-1.6476,-1.6651,-1.6778,-1.7024,-1.7326,-1.7715,-1.8025,-1.8359,-1.8708,-1.8819,-1.8827,-1.8827,-1.8827,-1.8827,-1.8835,-1.897,-1.8675,-1.8527,-1.8001,-1.7718,-1.7576,-1.7401,-1.7235,-1.7219,-1.7153,-1.716,-1.7054,-1.6942,-1.6942,-1.7002,-1.7038,-1.6322,-1.5867,-1.4757,-1.4871,-1.562,-1.6192,-1.6999,-1.7139,-1.7091,-1.7123,-1.7054,-1.6616,-1.663,-1.6821,-1.6925,-1.6709,-1.6425,-1.6307,-1.6042,-1.566,-1.6954,-1.849,-3.1934,-3.2091,-3.2319,-3.2406,-3.2406,-3.2406,-3.2406,-3.2406,-3.2406,-3.2406,-3.2406,-3.2406,-3.2406,-3.2406,-3.2406,-3.2406,-3.2371,-3.2196,-3.1845,-3.1072,-3.036,-2.9399,-2.847,-2.7502,-2.6767,-2.6046,-2.5371,-2.4615,-2.3421,-2.2652,-2.2057,-2.1677,-2.1781,-2.1843,-2.1613,-2.1989,-2.191,-2.1616,-2.1209,-2.0666,-1.9933,-1.9069,-1.8075,-1.6991,-1.6358,-1.5745,-1.5125,-1.4489,-1.4266,-1.4569,-1.4201,-1.4274,-1.4489,-1.4593,-1.48,-1.5149,-1.5372,-1.5554,-1.5785,-1.6055,-1.6269,-1.6476,-1.6643,-1.6714,-1.6802,-1.708,-1.7501,-1.7938,-1.8168,-1.8462,-1.874,-1.8819,-1.8827,-1.8827,-1.8827,-1.8827,-1.8883,-1.9082,-1.9099,-1.8972,-1.8885,-1.8743,-1.8506,-1.8231,-1.8005,-1.7893,-1.7681,-1.7477,-1.7477,-1.7371,-1.7371,-1.747,-1.7475,-1.7265,-1.6882,-1.6304,-1.6261,-1.6726,-1.678,-1.7428,-1.7817,-1.7942,-1.8046,-1.811,-1.7923,-1.7981,-1.8094,-1.7644,-1.7172,-1.6991,-1.6897,-1.6632,-1.6408,-1.7373,-1.8907,-3.2406,-3.2406,-3.2406,-3.2406,-3.2406,-3.2406,-3.2406,-3.2406,-3.2406,-3.2406,-3.2406,-3.2406,-3.2406,-3.2406,-3.2406,-3.2406,-3.2388,-3.2232,-3.2161,-3.1686,-3.0976,-3.0116,-2.9274,-2.8192,-2.7142,-2.6052,-2.5864,-2.528,-2.4709,-2.4005,-2.3378,-2.2554,-2.2649,-2.2647,-2.2669,-2.2777,-2.2749,-2.247,-2.1553,-2.0996,-2.0602,-1.9694,-1.8834,-1.7959,-1.706,-1.6228,-1.5621,-1.5133,-1.4856,-1.4569,-1.4569,-1.4489,-1.4569,-1.4743,-1.4967,-1.5324,-1.565,-1.6071,-1.6222,-1.6381,-1.6492,-1.6627,-1.6754,-1.6786,-1.6953,-1.7207,-1.7588,-1.8112,-1.8359,-1.8573,-1.8748,-1.8827,-1.8827,-1.8827,-1.8827,-1.8827,-1.8883,-1.9137,-1.9399,-1.9502,-1.9583,-2.0037,-1.9747,-1.9265,-1.8923,-1.8624,-1.8325,-1.801,-1.7898,-1.7793,-1.7898,-1.7911,-1.7856,-1.7919,-1.7994,-1.7723,-1.7786,-1.7815,-1.7861,-1.8033,-1.8459,-1.8867,-1.9237,-1.9175,-1.9112,-1.9099,-1.9101,-1.8333,-1.764,-1.78,-1.7713,-1.7361,-1.7469,-1.8329,-1.9233,-3.2406,-3.2406,-3.2406,-3.2406,-3.2406,-3.2406,-3.2406,-3.2406,-3.2406,-3.2406,-3.2406,-3.2406,-3.2406,-3.2406,-3.2406,-3.2406,-3.2406,-3.2406,-3.2284,-3.2073,-3.1699,-3.0899,-3.0034,-2.9114,-2.8214,-2.7248,-2.6585,-2.626,-2.6054,-2.5447,-2.4765,-2.4082,-2.3633,-2.3541,-2.3335,-2.311,-2.3078,-2.2763,-2.2013,-2.1565,-2.1187,-2.0484,-1.9584,-1.8834,-1.821,-1.7453,-1.607,-1.5683,-1.5213,-1.4784,-1.4768,-1.472,-1.4792,-1.5062,-1.5284,-1.5562,-1.6039,-1.6412,-1.6571,-1.6611,-1.6683,-1.6722,-1.6794,-1.6921,-1.7135,-1.7525,-1.7906,-1.824,-1.8502,-1.8708,-1.8812,-1.8827,-1.8827,-1.8827,-1.8843,-1.8899,-1.901,-1.9272,-1.9534,-1.9805,-2.017,-2.0599,-2.0867,-2.0357,-1.9561,-1.9257,-1.8952,-1.8639,-1.8429,-1.8422,-1.8318,-1.8387,-1.8224,-1.8381,-1.8968,-1.8921,-1.8803,-1.8833,-1.8948,-1.8968,-1.907,-1.9594,-2.0172,-2.0308,-2.0147,-2.0176,-1.9968,-1.9258,-1.8754,-1.8687,-1.8538,-1.8342,-1.8277,-1.8746,-1.9698,-3.2406,-3.2406,-3.2406,-3.2406,-3.2406,-3.2406,-3.2406,-3.2406,-3.2406,-3.2406,-3.2406,-3.2406,-3.2406,-3.2406,-3.2406,-3.2406,-3.2406,-3.2406,-3.2319,-3.2196,-3.186,-3.1465,-3.0675,-2.99,-2.9041,-2.8347,-2.753,-2.691,-2.6776,-2.6279,-2.5991,-2.5355,-2.4625,-2.3981,-2.3662,-2.3318,-2.3125,-2.2957,-2.2531,-2.2087,-2.1901,-2.1146,-2.0313,-1.9835,-1.889,-1.8152,-1.7129,-1.6594,-1.5974,-1.5476,-1.5411,-1.5211,-1.5104,-1.538,-1.5634,-1.5825,-1.6317,-1.6516,-1.6706,-1.673,-1.673,-1.6794,-1.6929,-1.7151,-1.7366,-1.7771,-1.8081,-1.8367,-1.8621,-1.8812,-1.8827,-1.8827,-1.8827,-1.8827,-1.8859,-1.8931,-1.9145,-1.9415,-1.9646,-1.9908,-2.0635,-2.1188,-2.1269,-2.131,-2.0601,-1.9879,-1.9576,-1.9272,-1.9056,-1.8966,-1.8974,-1.9027,-1.8977,-1.9224,-1.9718,-1.9731,-1.9752,-1.9828,-2.0012,-2.0012,-2.0127,-2.0343,-2.0841,-2.1077,-2.1145,-2.0966,-2.0707,-2.0165,-1.9998,-2.0057,-1.9761,-1.9382,-1.9384,-1.9425,-2.0235,-3.2406,-3.2406,-3.2406,-3.2406,-3.2406,-3.2406,-3.2406,-3.2406,-3.2406,-3.2406,-3.2406,-3.2406,-3.2406,-3.2406,-3.2406,-3.2406,-3.2406,-3.2406,-3.2371,-3.2214,-3.2001,-3.1783,-3.1278,-3.0627,-2.9792,-2.9261,-2.8118,-2.728,-2.7099,-2.6428,-2.6153,-2.5885,-2.5583,-2.4832,-2.4002,-2.3378,-2.3125,-2.3017,-2.2653,-2.242,-2.2235,-2.1588,-2.0892,-2.0495,-1.9694,-1.889,-1.8085,-1.7423,-1.6833,-1.6413,-1.6173,-1.5971,-1.5829,-1.5859,-1.6156,-1.6309,-1.6389,-1.6492,-1.6651,-1.673,-1.6786,-1.6945,-1.7104,-1.7342,-1.7652,-1.8033,-1.8271,-1.8494,-1.8708,-1.8827,-1.8827,-1.8827,-1.8827,-1.8827,-1.8827,-1.8915,-1.9272,-1.9566,-1.9781,-2.0019,-2.0672,-2.1293,-2.1404,-2.1428,-2.1216,-2.0601,-2.03,-1.9887,-1.9576,-1.9606,-1.9658,-1.967,-1.9779,-2.0135,-2.0494,-2.054,-2.0516,-2.0659,-2.0831,-2.1174,-2.1296,-2.1524,-2.1737,-2.194,-2.2004,-2.185,-2.1696,-2.1542,-2.1405,-2.138,-2.091,-2.0287,-2.0586,-2.0643,-2.1107,-3.2406,-3.2406,-3.2406,-3.2406,-3.2406,-3.2406,-3.2406,-3.2406,-3.244,-3.2422,-3.2457,-3.2457,-3.2457,-3.2422,-3.2457,-3.2422,-3.2406,-3.2406,-3.2319,-3.2196,-3.2037,-3.1819,-3.1542,-3.1009,-3.0471,-2.947,-2.8534,-2.7759,-2.7396,-2.6526,-2.6214,-2.6333,-2.6148,-2.5562,-2.4641,-2.3649,-2.3138,-2.3005,-2.2653,-2.2531,-2.2347,-2.1889,-2.1388,-2.1008,-2.0495,-1.9694,-1.8957,-1.823,-1.7703,-1.7312,-1.7135,-1.6793,-1.6228,-1.6838,-1.6971,-1.67,-1.6748,-1.678,-1.673,-1.6738,-1.6921,-1.7183,-1.735,-1.7636,-1.8081,-1.8343,-1.8454,-1.8669,-1.8796,-1.8827,-1.8827,-1.8827,-1.8827,-1.8843,-1.8851,-1.9252,-1.9629,-1.9789,-2.0019,-2.0365,-2.0708,-2.1019,-2.1326,-2.153,-2.1623,-2.1318,-2.1019,-2.0712,-2.0498,-2.0124,-2.0185,-2.0588,-2.0819,-2.0914,-2.1296,-2.1241,-2.1274,-2.141,-2.1645,-2.1987,-2.2214,-2.2328,-2.2539,-2.2846,-2.2757,-2.2589,-2.2859,-2.3162,-2.2803,-2.2291,-2.1561,-2.1212,-2.156,-2.1838,-2.2026,-3.2406,-3.2406,-3.2406,-3.2406,-3.2406,-3.2406,-3.2406,-3.244,-3.2523,-3.2606,-3.2639,-3.2787,-3.2737,-3.2639,-3.259,-3.2523,-3.2422,-3.2406,-3.2319,-3.2267,-3.2054,-3.1982,-3.1746,-3.1411,-3.1021,-3.0588,-2.9609,-2.881,-2.8836,-2.7345,-2.6973,-2.7134,-2.6609,-2.5788,-2.491,-2.406,-2.3721,-2.3185,-2.2957,-2.2836,-2.2763,-2.2396,-2.2025,-2.1788,-2.1146,-2.0484,-1.989,-1.9166,-1.8662,-1.8293,-1.8128,-1.7805,-1.7261,-1.7674,-1.7675,-1.7277,-1.7294,-1.7781,-1.7458,-1.7236,-1.7127,-1.7467,-1.7691,-1.7985,-1.8287,-1.8541,-1.8692,-1.878,-1.8912,-1.892,-1.8827,-1.8827,-1.8843,-1.8907,-1.9103,-1.9817,-2.0175,-2.0231,-2.0329,-2.0793,-2.1208,-2.181,-2.2215,-2.2426,-2.2526,-2.2325,-2.2123,-2.2123,-2.2013,-2.1146,-2.0909,-2.1571,-2.1817,-2.1852,-2.1993,-2.1895,-2.2085,-2.2214,-2.2328,-2.2675,-2.2901,-2.2901,-2.2893,-2.2877,-2.3197,-2.3395,-2.3522,-2.361,-2.3522,-2.3082,-2.2291,-2.1907,-2.2149,-2.222,-2.2319,-3.2473,-3.2489,-3.2489,-3.2574,-3.2608,-3.2439,-3.2406,-3.2457,-3.2606,-3.2734,-3.283,-3.3006,-3.3037,-3.2894,-3.2766,-3.2654,-3.2489,-3.2422,-3.2319,-3.2284,-3.2143,-3.2018,-3.1873,-3.1671,-3.1487,-3.1202,-3.0403,-2.9644,-2.9387,-2.8176,-2.7646,-2.7487,-2.7045,-2.6269,-2.5384,-2.4724,-2.3897,-2.3305,-2.3017,-2.3078,-2.2944,-2.2763,-2.2531,-2.2223,-2.1788,-2.1198,-2.0741,-2.0227,-1.9663,-1.932,-1.9039,-1.8848,-1.8504,-1.8369,-1.8435,-1.8035,-1.7819,-1.8371,-1.8245,-1.8029,-1.811,-1.864,-1.8442,-1.8498,-1.8635,-1.8859,-1.9206,-1.9355,-1.9363,-1.9271,-1.9271,-1.9271,-1.9404,-1.9469,-1.9901,-2.0626,-2.1083,-2.1145,-2.1387,-2.1778,-2.2021,-2.261,-2.3094,-2.3411,-2.3619,-2.342,-2.322,-2.332,-2.3338,-2.2494,-2.1845,-2.2449,-2.2683,-2.2614,-2.2632,-2.2623,-2.2765,-2.3014,-2.3014,-2.3014,-2.3014,-2.2901,-2.3014,-2.3062,-2.3292,-2.3538,-2.384,-2.392,-2.3877,-2.3546,-2.2949,-2.2697,-2.2772,-2.2841,-2.2992,-3.2654,-3.2684,-3.2684,-3.2848,-3.2975,-3.2641,-3.2474,-3.2457,-3.2672,-3.2844,-3.2983,-3.3111,-3.3232,-3.3232,-3.2925,-3.2734,-3.2621,-3.2473,-3.2336,-3.2232,-3.2196,-3.209,-3.1982,-3.1929,-3.1709,-3.1206,-3.0637,-3.014,-2.9638,-2.8902,-2.8323,-2.7709,-2.7347,-2.6707,-2.5973,-2.5218,-2.4253,-2.3649,-2.3185,-2.3125,-2.3065,-2.3065,-2.2836,-2.2531,-2.2223,-2.1901,-2.1439,-2.0892,-2.0708,-2.0441,-2.0112,-1.9808,-1.958,-1.9516,-1.9177,-1.8831,-1.8417,-1.8501,-1.9126,-1.9019,-1.9333,-1.9705,-1.9154,-1.9224,-1.9389,-1.9505,-1.9712,-2.0175,-2.0257,-2.0076,-1.9985,-2.0283,-2.059,-2.0772,-2.0989,-2.1541,-2.2212,-2.2487,-2.2742,-2.298,-2.2994,-2.3311,-2.3466,-2.3872,-2.4223,-2.4412,-2.4214,-2.4134,-2.4071,-2.348,-2.3116,-2.3417,-2.3538,-2.3403,-2.3406,-2.3487,-2.3311,-2.3448,-2.3127,-2.3014,-2.3014,-2.3014,-2.3014,-2.3117,-2.3379,-2.3837,-2.4577,-2.4561,-2.4154,-2.3913,-2.364,-2.3447,-2.3473,-2.3834,-2.4023,-3.2654,-3.2684,-3.2684,-3.2848,-3.3055,-3.2979,-3.2916,-3.2948,-3.3178,-3.3339,-3.3494,-3.3662,-3.3634,-3.3569,-3.3262,-3.297,-3.2719,-3.2523,-3.2388,-3.2319,-3.2232,-3.2126,-3.2054,-3.1946,-3.1763,-3.1507,-3.113,-3.0828,-3.0589,-2.9895,-2.8542,-2.7565,-2.7673,-2.7146,-2.6418,-2.5881,-2.5051,-2.4203,-2.3569,-2.3245,-2.3138,-2.3138,-2.2957,-2.2836,-2.2592,-2.2334,-2.2013,-2.1565,-2.1323,-2.093,-2.0773,-2.0599,-2.0751,-2.0386,-2.0031,-1.9963,-1.9083,-1.8486,-1.9697,-2.0295,-2.0479,-2.0727,-2.0288,-2.0381,-2.043,-2.0365,-2.0275,-2.0808,-2.1141,-2.0944,-2.0889,-2.1114,-2.1275,-2.1363,-2.1749,-2.2469,-2.3067,-2.3372,-2.3708,-2.3925,-2.3935,-2.4026,-2.4177,-2.4285,-2.4627,-2.502,-2.5216,-2.503,-2.4773,-2.429,-2.414,-2.4358,-2.4474,-2.43,-2.4335,-2.4548,-2.4214,-2.388,-2.3672,-2.3352,-2.3239,-2.3239,-2.3127,-2.3464,-2.4072,-2.4882,-2.5761,-2.5547,-2.5109,-2.4879,-2.463,-2.4441,-2.4363,-2.4517,-2.4674,-3.2834,-3.2943,-3.2862,-3.3068,-3.3339,-3.3368,-3.3368,-3.3397,-3.3444,-3.3577,-3.3698,-3.3834,-3.3868,-3.3762,-3.3379,-3.305,-3.2848,-3.2541,-3.2406,-3.2371,-3.2284,-3.2249,-3.2161,-3.209,-3.1982,-3.18,-3.1614,-3.1414,-3.1162,-3.0339,-2.9075,-2.8051,-2.8176,-2.7287,-2.6639,-2.6396,-2.629,-2.5353,-2.4495,-2.3688,-2.339,-2.3223,-2.3138,-2.3065,-2.2775,-2.2714,-2.2592,-2.2137,-2.1827,-2.1537,-2.143,-2.1408,-2.1604,-2.1574,-2.1254,-2.1098,-2.0299,-2.013,-2.0879,-2.1569,-2.1586,-2.1636,-2.1646,-2.1836,-2.1427,-2.1168,-2.1347,-2.1704,-2.1747,-2.1817,-2.1793,-2.1866,-2.1807,-2.1844,-2.2585,-2.3345,-2.3765,-2.4184,-2.4478,-2.4796,-2.4941,-2.4941,-2.5039,-2.4941,-2.5039,-2.5333,-2.5518,-2.543,-2.5362,-2.5036,-2.4969,-2.5225,-2.5204,-2.5254,-2.5324,-2.5441,-2.511,-2.488,-2.4676,-2.4351,-2.3904,-2.397,-2.4261,-2.4628,-2.5086,-2.5779,-2.6557,-2.644,-2.6058,-2.5844,-2.5613,-2.5501,-2.5119,-2.491,-2.5152,-3.3135,-3.3393,-3.3226,-3.3397,-3.378,-3.378,-3.378,-3.378,-3.3605,-3.3587,-3.3707,-3.378,-3.3887,-3.3842,-3.3455,-3.316,-3.2898,-3.2608,-3.2406,-3.2406,-3.2371,-3.2371,-3.2371,-3.2371,-3.2161,-3.2037,-3.1893,-3.1688,-3.1253,-3.06,-2.9812,-2.876,-2.8094,-2.7525,-2.7193,-2.7149,-2.7123,-2.6911,-2.5795,-2.4811,-2.3961,-2.3526,-2.3223,-2.3138,-2.3065,-2.3065,-2.2944,-2.2714,-2.242,-2.2223,-2.2178,-2.2104,-2.2434,-2.2833,-2.2572,-2.2216,-2.1625,-2.185,-2.2359,-2.3062,-2.3137,-2.3172,-2.3135,-2.296,-2.2422,-2.198,-2.2157,-2.2422,-2.2473,-2.2551,-2.2608,-2.2577,-2.2583,-2.2915,-2.348,-2.4152,-2.4517,-2.486,-2.5149,-2.5333,-2.5333,-2.544,-2.544,-2.5333,-2.5333,-2.5635,-2.5732,-2.5732,-2.5791,-2.5644,-2.591,-2.5975,-2.6305,-2.6405,-2.627,-2.6318,-2.6109,-2.5889,-2.578,-2.5652,-2.5406,-2.5343,-2.544,-2.5874,-2.6334,-2.671,-2.709,-2.7181,-2.716,-2.6772,-2.6606,-2.6507,-2.6157,-2.5888,-2.5575,-3.3502,-3.3633,-3.3643,-3.3707,-3.3807,-3.3807,-3.3807,-3.3807,-3.3734,-3.378,-3.3868,-3.3807,-3.3788,-3.3868,-3.3437,-3.319,-3.2993,-3.2641,-3.244,-3.2406,-3.2406,-3.2406,-3.2406,-3.2406,-3.2284,-3.2161,-3.2001,-3.1819,-3.147,-3.1002,-3.0448,-2.9483,-2.886,-2.8503,-2.7854,-2.7951,-2.8151,-2.8172,-2.7693,-2.6351,-2.5162,-2.4655,-2.4365,-2.3628,-2.3236,-2.3261,-2.3188,-2.303,-2.2726,-2.2432,-2.2759,-2.2941,-2.3202,-2.3644,-2.3841,-2.3654,-2.3105,-2.3366,-2.3914,-2.4555,-2.4575,-2.419,-2.3897,-2.357,-2.3222,-2.2784,-2.2696,-2.296,-2.3135,-2.3222,-2.3232,-2.3291,-2.3428,-2.3898,-2.4359,-2.4756,-2.5254,-2.5498,-2.5713,-2.5732,-2.5732,-2.5732,-2.5732,-2.5732,-2.5732,-2.5732,-2.5732,-2.5762,-2.6064,-2.6173,-2.6675,-2.6914,-2.7663,-2.781,-2.7554,-2.7413,-2.7403,-2.707,-2.6952,-2.6825,-2.6797,-2.693,-2.7057,-2.7241,-2.7588,-2.7939,-2.8262,-2.8417,-2.8246,-2.7767,-2.7651,-2.7507,-2.7526,-2.7239,-2.6585,-3.3716,-3.3868,-3.3868,-3.3842,-3.3807,-3.3807,-3.3807,-3.3807,-3.3698,-3.3698,-3.3762,-3.3753,-3.378,-3.3762,-3.3368,-3.319,-3.2993,-3.2608,-3.2474,-3.2406,-3.2406,-3.2406,-3.2406,-3.2406,-3.2371,-3.2249,-3.2108,-3.1893,-3.1614,-3.1393,-3.084,-2.9878,-2.9626,-2.9264,-2.8586,-2.8764,-2.9054,-2.9032,-2.9247,-2.8394,-2.6784,-2.628,-2.5734,-2.4818,-2.4296,-2.4086,-2.3571,-2.3387,-2.2969,-2.3034,-2.3504,-2.4337,-2.4755,-2.5171,-2.5295,-2.5205,-2.497,-2.4777,-2.5455,-2.5815,-2.5906,-2.5348,-2.5147,-2.4978,-2.4563,-2.4125,-2.3377,-2.356,-2.3657,-2.3744,-2.357,-2.3523,-2.4015,-2.4494,-2.4522,-2.4736,-2.5234,-2.5635,-2.5732,-2.5732,-2.5732,-2.5732,-2.5732,-2.5732,-2.5732,-2.5732,-2.5732,-2.5946,-2.6259,-2.6861,-2.7272,-2.7794,-2.8574,-2.8753,-2.8473,-2.8591,-2.8804,-2.8572,-2.8126,-2.8242,-2.8408,-2.8491,-2.8621,-2.8823,-2.8983,-2.9123,-2.9384,-2.944,-2.9076,-2.851,-2.8537,-2.8491,-2.8489,-2.863,-2.8518,-3.391,-3.4074,-3.4023,-3.3921,-3.3834,-3.3807,-3.3807,-3.378,-3.3615,-3.3491,-3.3473,-3.3671,-3.3633,-3.3433,-3.3178,-3.3117,-3.2898,-3.2574,-3.2422,-3.2406,-3.2406,-3.2371,-3.2354,-3.2354,-3.2319,-3.2249,-3.2161,-3.1929,-3.1634,-3.1507,-3.1079,-3.014,-2.9732,-2.9476,-2.9202,-2.9243,-2.9595,-2.9904,-3.0084,-3.0051,-2.9078,-2.8054,-2.7284,-2.6571,-2.5895,-2.5169,-2.4477,-2.3895,-2.3409,-2.3566,-2.4141,-2.5224,-2.6064,-2.65,-2.6785,-2.6725,-2.67,-2.6526,-2.6611,-2.677,-2.6685,-2.6554,-2.6637,-2.6389,-2.5891,-2.5221,-2.4467,-2.4231,-2.4327,-2.4176,-2.4003,-2.4054,-2.4569,-2.5149,-2.5098,-2.5085,-2.5494,-2.5917,-2.5917,-2.5917,-2.6014,-2.6014,-2.5907,-2.5907,-2.5917,-2.5927,-2.5936,-2.6247,-2.6687,-2.7533,-2.8082,-2.8714,-2.9474,-2.9528,-2.9303,-2.9544,-2.9869,-2.9754,-2.9513,-2.9774,-2.9959,-2.9964,-3.0088,-3.0408,-3.0611,-3.0509,-3.0324,-3.0255,-2.9757,-2.9266,-2.9338,-2.9353,-2.9493,-2.9678,-3.0548,-3.4154,-3.4005,-3.3998,-3.3921,-3.3834,-3.3807,-3.3807,-3.3807,-3.3753,-3.3559,-3.3327,-3.3433,-3.3433,-3.3178,-3.2912,-3.2816,-3.2784,-3.2489,-3.2422,-3.2406,-3.2371,-3.2319,-3.2267,-3.2267,-3.2196,-3.2161,-3.2126,-3.1965,-3.1728,-3.1709,-3.1596,-3.1181,-3.0627,-3.0442,-3.046,-3.0473,-3.0408,-3.0608,-3.0635,-3.0577,-3.0555,-2.9496,-2.8294,-2.7496,-2.6606,-2.5882,-2.5169,-2.4529,-2.3844,-2.3802,-2.4632,-2.5925,-2.6872,-2.7623,-2.7878,-2.815,-2.8126,-2.8065,-2.8016,-2.8024,-2.7891,-2.7545,-2.7464,-2.7221,-2.6801,-2.6389,-2.5808,-2.5641,-2.5495,-2.484,-2.4669,-2.4498,-2.4909,-2.5795,-2.6187,-2.6298,-2.6652,-2.6658,-2.6658,-2.6945,-2.7146,-2.6924,-2.6587,-2.6607,-2.6754,-2.6764,-2.6668,-2.6921,-2.7375,-2.8131,-2.8885,-2.9627,-3.0274,-3.0242,-3.0088,-3.0276,-3.0588,-3.0588,-3.0734,-3.084,-3.1032,-3.1356,-3.1569,-3.1792,-3.1636,-3.1542,-3.1285,-3.1063,-3.0713,-3.0344,-3.0255,-3.0207,-3.0335,-3.078,-3.1592]}]]